[[{"header":{"parameterUnit":"m.s-1","parameterCategory":1,"la1":31.0,"la2":29.5877,"lo1":-88.7671,"lo2":-86.6584,"dy":0.0162,"dx":0.0185,"nx":115,"ny":88,"refTime":"2024-02-19T18:00:00:Z","depth":0,"parameterNumber":2,"parameterNumberName":"U-component_of_WINDS"},"data":[0.0,0.0,0.0,0.0,0.0,0.0,0.0,0.0,0.0,0.0,0.0,0.0,0.0,0.0,0.0,0.0,0.0,0.0,0.0,0.0,0.0,0.0,0.0,0.0,0.0,0.0,0.0,0.0,0.0,0.0,0.0,0.0,0.0,0.0,0.0,0.0,0.0,0.0,0.0,0.0,0.0,0.0,0.0,0.0,0.0,0.0,0.0,0.0,0.0,0.0,0.0,0.0,0.0,0.0,0.0,0.0,0.0,0.0,0.0,0.0,0.0,0.0,0.0,0.0,0.0,0.0,0.0,0.0,0.0,0.0,0.0,0.0,0.0,0.0,0.0,0.0,0.0,0.0,0.0,0.0,0.0,0.0,0.0,0.0,0.0,0.0,0.0,0.0,0.0,0.0,0.0,0.0,0.0,0.0,0.0,0.0,0.0,0.0,0.0,0.0,0.0,0.0,0.0,0.0,0.0,0.0,0.0,0.0,0.0,0.0,0.0,0.0,0.0,0.0,0.0,0.0,0.0,0.0,0.0,0.0,0.0,0.0,0.0,0.0,0.0,0.0,0.0,0.0,0.0,0.0,0.0,0.0,0.0,0.0,0.0,0.0,0.0,0.0,0.0,0.0,0.0,0.0,0.0,0.0,0.0,0.0,0.0,0.0,0.0,0.0,0.0,0.0,0.0,0.0,0.0,0.0,0.0,0.0,0.0,0.0,0.0,0.0,0.0,0.0,0.0,0.0,0.0,0.0,0.0,0.0,0.0,0.0,0.0,0.0,0.0,0.0,0.0,0.0,0.0,0.0,0.0,0.0,0.0,0.0,0.0,0.0,0.0,0.0,0.0,0.0,0.0,0.0,0.0,0.0,0.0,0.0,0.0,0.0,0.0,0.0,0.0,0.0,0.0,0.0,0.0,0.0,0.0,0.0,0.0,0.0,0.0,0.0,0.0,0.0,0.0,0.0,0.0,0.0,0.0,0.0,0.0,0.0,0.0,0.0,0.0,0.0,0.0,0.0,0.0,0.0,0.0,0.0,0.0,0.0,0.0,0.0,0.0,0.0,0.0,0.0,0.0,0.0,0.0,0.0,0.0,0.0,0.0,0.0,0.0,0.0,0.0,0.0,0.0,0.0,0.0,0.0,0.0,0.0,0.0,0.0,0.0,0.0,0.0,0.0,0.0,0.0,0.0,0.0,0.0,0.0,0.0,0.0,0.0,0.0,0.0,0.0,0.0,0.0,0.0,0.0,0.0,0.0,0.0,0.0,0.0,0.0,0.0,0.0,0.0,0.0,0.0,0.0,0.0,0.0,0.0,0.0,0.0,0.0,0.0,0.0,0.0,0.0,0.0,0.0,0.0,0.0,0.0,0.0,0.0,0.0,0.0,0.0,0.0,0.0,0.0,0.0,0.0,0.0,0.0,0.0,0.0,0.0,0.0,0.0,0.0,0.0,0.0,0.0,0.0,0.0,0.0,0.0,0.0,0.0,0.0,0.0,0.0,0.0,0.0,0.0,0.0,0.0,0.0,0.0,0.0,0.0,0.0,0.0,0.0,0.0,0.0,0.0,0.0,0.0,0.0,0.0,0.0,0.0,0.0,0.0,0.0,0.0,0.0,0.0,0.0,0.0,0.0,0.0,0.0,0.0,0.0,0.0,0.0,0.0,0.0,0.0,0.0,0.0,0.0,0.0,0.0,0.0,0.0,0.0,0.0,0.0,0.0,0.0,0.0,0.0,0.0,0.0,0.0,0.0,0.0,0.0,0.0,0.0,0.0,0.0,0.0,0.0,0.0,0.0,0.0,0.0,0.0,0.0,0.0,0.0,0.0,0.0,0.0,0.0,0.0,0.0,0.0,0.0,0.0,0.0,0.0,0.0,0.0,0.0,0.0,0.0,0.0,0.0,0.0,0.0,0.0,0.0,0.0,0.0,0.0,0.0,0.0,0.0,0.0,0.0,0.0,0.0,0.0,0.0,0.0,0.0,0.0,0.0,0.0,0.0,0.0,0.0,0.0,0.0,0.0,0.0,0.0,0.0,0.0,0.0,0.0,0.0,0.0,0.0,0.0,0.0,0.0,0.0,0.0,0.0,0.0,0.0,0.0,0.0,0.0,0.0,0.0,0.0,0.0,0.0,0.0,0.0,0.0,0.0,0.0,0.0,0.0,0.0,0.0,0.0,0.0,0.0,0.0,0.0,0.0,0.0,0.0,0.0,0.0,0.0,0.0,0.0,0.0,0.0,0.0,0.0,0.0,0.0,0.0,0.0,0.0,0.0,0.0,0.0,0.0,0.0,0.0,0.0,0.0,0.0,0.0,0.0,0.0,0.0,0.0,0.0,0.0,0.0,0.0,0.0,0.0,0.0,0.0,0.0,0.0,0.0,0.0,0.0,0.0,0.0,0.0,0.0,0.0,0.0,0.0,0.0,0.0,0.0,0.0,0.0,0.0,0.0,0.0,0.0,0.0,0.0,0.0,0.0,0.0,0.0,0.0,0.0,0.0,0.0,0.0,0.0,0.0,0.0,0.0,0.0,0.0,0.0,0.0,0.0,0.0,0.0,0.0,0.0,0.0,0.0,0.0,0.0,0.0,0.0,0.0,0.0,0.0,0.0,0.0,0.0,0.0,0.0,0.0,0.0,0.0,0.0,0.0,0.0,0.0,0.0,0.0,0.0,0.0,0.0,0.0,0.0,0.0,0.0,0.0,0.0,0.0,0.0,0.0,0.0,0.0,0.0,0.0,0.0,0.0,0.0,0.0,0.0,0.0,0.0,0.0,0.0,0.0,0.0,0.0,0.0,0.0,0.0,0.0,0.0,0.0,0.0,0.0,0.0,0.0,0.0,0.0,0.0,0.0,0.0,0.0,0.0,0.0,0.0,0.0,0.0,0.0,0.0,0.0,0.0,0.0,0.0,0.0,0.0,0.0,0.0,0.0,0.0,0.0,0.0,0.0,0.0,0.0,0.0,0.0,0.0,0.0,0.0,0.0,0.0,0.0,0.0,0.0,0.0,0.0,0.0,0.0,0.0,0.0,0.0,0.0,0.0,0.0,0.0,0.0,0.0,0.0,0.0,0.0,0.0,0.0,0.0,0.0,0.0,0.0,0.0,0.0,0.0,0.0,0.0,0.0,0.0,0.0,0.0,0.0,0.0,0.0,0.0,0.0,0.0,0.0,0.0,0.0,0.0,0.0,0.0,0.0,0.0,0.0,0.0,0.0,0.0,0.0,0.0,0.0,0.0,0.0,0.0,0.0,0.0,0.0,0.0,0.0,0.0,0.0,0.0,0.0,0.0,0.0,0.0,0.0,0.0,0.0,0.0,0.0,0.0,0.0,0.0,0.0,0.0,0.0,0.0,0.0,0.0,0.0,0.0,0.0,0.0,0.0,0.0,0.0,0.0,0.0,0.0,0.0,0.0,0.0,0.0,0.0,0.0,0.0,0.0,0.0,0.0,0.0,0.0,0.0,0.0,0.0,0.0,0.0,0.0,0.0,0.0,0.0,0.0,0.0,0.0,0.0,0.0,0.0,0.0,0.0,0.0,0.0,0.0,0.0,0.0,0.0,0.0,0.0,0.0,0.0,0.0,0.0,0.0,0.0,0.0,0.0,0.0,0.0,0.0,0.0,0.0,0.0,0.0,0.0,0.0,0.0,0.0,0.0,0.0,0.0,0.0,0.0,0.0,0.0,0.0,0.0,0.0,0.0,0.0,0.0,0.0,0.0,0.0,0.0,0.0,0.0,0.0,0.0,0.0,0.0,0.0,0.0,0.0,0.0,0.0,0.0,0.0,0.0,0.0,0.0,0.0,0.0,0.0,0.0,0.0,0.0,0.0,0.0,0.0,0.0,0.0,0.0,0.0,0.0,0.0,0.0,0.0,0.0,0.0,0.0,0.0,0.0,0.0,0.0,0.0,0.0,0.0,0.0,0.0,0.0,0.0,0.0,0.0,0.0,0.0,0.0,0.0,0.0,0.0,0.0,0.0,0.0,0.0,0.0,0.0,0.0,0.0,0.0,0.0,0.0,0.0,0.0,0.0,0.0,0.0,0.0,0.0,0.0,0.0,0.0,0.0,0.0,0.0,0.0,0.0,0.0,0.0,0.0,0.0,0.0,0.0,0.0,0.0,0.0,0.0,0.0,0.0,0.0,0.0,0.0,0.0,0.0,0.0,0.0,0.0,0.0,0.0,0.0,0.0,0.0,0.0,0.0,0.0,0.0,0.0,0.0,0.0,0.0,0.0,0.0,0.0,0.0,0.0,0.0,0.0,0.0,0.0,0.0,0.0,-0.9798,0.0,0.0,0.0,0.0,0.0,0.0,0.0,0.0,0.0,0.0,0.0,0.0,0.0,0.0,0.0,0.0,0.0,0.0,0.0,0.0,0.0,0.0,0.0,0.0,0.0,0.0,0.0,0.0,0.0,0.0,0.0,0.0,0.0,0.0,0.0,0.0,0.0,0.0,0.0,0.0,0.0,0.0,0.0,0.0,0.0,0.0,0.0,0.0,0.0,0.0,0.0,0.0,0.0,0.0,0.0,0.0,0.0,0.0,0.0,0.0,0.0,0.0,0.0,0.0,0.0,0.0,0.0,0.0,0.0,0.0,0.0,0.0,0.0,0.0,0.0,0.0,0.0,0.0,0.0,0.0,0.0,0.0,0.0,0.0,0.0,0.0,0.0,0.0,0.0,0.0,0.0,0.0,0.0,0.0,0.0,0.0,0.0,0.0,0.0,0.0,0.0,0.0,0.0,0.0,0.0,0.0,0.0,0.0,0.0,0.0,-0.9367,-0.95,-0.9583,-0.9683,-0.9728,0.0,0.0,0.0,0.0,0.0,0.0,0.0,0.0,0.0,0.0,0.0,0.0,0.0,0.0,0.0,0.0,0.0,0.0,0.0,0.0,0.0,0.0,0.0,0.0,0.0,0.0,0.0,0.0,0.0,0.0,0.0,0.0,0.0,0.0,0.0,0.0,0.0,0.0,0.0,0.0,0.0,0.0,0.0,0.0,0.0,0.0,0.0,0.0,0.0,0.0,0.0,0.0,0.0,0.0,0.0,0.0,0.0,0.0,0.0,0.0,0.0,0.0,0.0,0.0,0.0,0.0,0.0,0.0,0.0,0.0,0.0,0.0,0.0,0.0,0.0,0.0,0.0,0.0,0.0,0.0,0.0,0.0,0.0,0.0,0.0,0.0,0.0,0.0,0.0,0.0,0.0,0.0,0.0,0.0,0.0,0.0,0.0,0.0,0.0,0.0,0.0,0.0,0.0,0.0,0.0,0.0,0.0,0.0,0.0,0.0,0.0,0.0,-0.9545,-0.9619,-0.9675,0.0,0.0,0.0,0.0,0.0,0.0,0.0,0.0,0.0,0.0,0.0,0.0,0.0,0.0,0.0,0.0,0.0,0.0,0.0,0.0,0.0,0.0,0.0,0.0,0.0,0.0,0.0,0.0,0.0,0.0,0.0,0.0,0.0,0.0,0.0,0.0,0.0,0.0,0.0,0.0,0.0,0.0,0.0,0.0,0.0,0.0,0.0,0.0,0.0,0.0,0.0,0.0,0.0,0.0,0.0,0.0,0.0,0.0,0.0,0.0,0.0,0.0,0.0,0.0,0.0,0.0,0.0,0.0,0.0,0.0,0.0,0.0,0.0,0.0,0.0,0.0,0.0,0.0,0.0,0.0,0.0,0.0,0.0,0.0,0.0,0.0,0.0,0.0,0.0,0.0,0.0,0.0,0.0,0.0,0.0,0.0,0.0,0.0,0.0,0.0,0.0,0.0,0.0,0.0,0.0,0.0,0.0,0.0,0.0,0.0,-0.9234,-0.9321,-0.9448,0.0,-0.9583,0.0,0.0,0.0,0.0,0.0,0.0,0.0,0.0,0.0,0.0,0.0,0.0,0.0,0.0,0.0,0.0,0.0,0.0,0.0,0.0,0.0,0.0,0.0,0.0,0.0,0.0,0.0,0.0,0.0,0.0,0.0,0.0,0.0,0.0,0.0,0.0,0.0,0.0,0.0,0.0,0.0,0.0,0.0,0.0,0.0,0.0,0.0,0.0,0.0,0.0,0.0,0.0,0.0,0.0,0.0,0.0,0.0,0.0,0.0,0.0,0.0,0.0,0.0,0.0,0.0,0.0,0.0,0.0,0.0,0.0,0.0,0.0,0.0,0.0,0.0,0.0,0.0,0.0,0.0,0.0,0.0,0.0,0.0,0.0,0.0,0.0,0.0,0.0,0.0,0.0,0.0,0.0,0.0,0.0,0.0,0.0,0.0,0.0,0.0,0.0,0.0,0.0,0.0,0.0,0.0,0.0,0.0,0.0,0.0,0.0,-0.9136,-0.9255,-0.9412,-0.9527,0.0,0.0,0.0,0.0,0.0,0.0,0.0,0.0,0.0,0.0,0.0,0.0,0.0,0.0,0.0,0.0,0.0,0.0,0.0,0.0,0.0,0.0,0.0,0.0,0.0,0.0,0.0,0.0,0.0,0.0,0.0,0.0,0.0,0.0,0.0,0.0,0.0,0.0,0.0,0.0,0.0,0.0,0.0,0.0,0.0,0.0,0.0,0.0,0.0,0.0,0.0,0.0,0.0,0.0,0.0,0.0,0.0,0.0,0.0,0.0,0.0,0.0,0.0,0.0,0.0,0.0,0.0,0.0,0.0,0.0,0.0,0.0,0.0,0.0,0.0,0.0,0.0,0.0,0.0,0.0,0.0,0.0,0.0,0.0,0.0,0.0,0.0,0.0,0.0,0.0,0.0,0.0,0.0,0.0,0.0,0.0,0.0,0.0,0.0,0.0,0.0,0.0,0.0,0.0,0.0,0.0,0.0,0.0,0.0,0.0,-0.893,-0.9036,-0.9199,-0.9367,-0.9466,-0.9456,0.0,0.0,0.0,0.0,0.0,0.0,0.0,0.0,0.0,0.0,0.0,0.0,0.0,0.0,0.0,0.0,0.0,0.0,0.0,0.0,0.0,0.0,0.0,0.0,0.0,0.0,0.0,0.0,0.0,0.0,0.0,0.0,0.0,0.0,0.0,0.0,0.0,0.0,0.0,0.0,0.0,0.0,0.0,0.0,0.0,0.0,0.0,0.0,0.0,0.0,0.0,0.0,0.0,0.0,0.0,0.0,0.0,0.0,0.0,0.0,0.0,0.0,0.0,0.0,0.0,0.0,0.0,0.0,0.0,0.0,0.0,0.0,0.0,0.0,0.0,0.0,0.0,0.0,0.0,0.0,0.0,0.0,0.0,0.0,0.0,0.0,0.0,0.0,0.0,0.0,0.0,0.0,0.0,0.0,0.0,0.0,0.0,0.0,0.0,0.0,0.0,0.0,0.0,0.0,0.0,0.0,0.0,0.0,-0.8705,-0.8835,-0.9001,-0.9206,-0.9274,-0.9348,0.0,0.0,0.0,0.0,0.0,0.0,0.0,0.0,0.0,0.0,0.0,0.0,0.0,0.0,0.0,0.0,0.0,0.0,0.0,0.0,0.0,0.0,0.0,0.0,0.0,0.0,0.0,0.0,0.0,0.0,0.0,0.0,0.0,0.0,0.0,0.0,0.0,0.0,0.0,0.0,0.0,0.0,0.0,0.0,0.0,0.0,0.0,0.0,0.0,0.0,0.0,0.0,0.0,0.0,0.0,0.0,0.0,0.0,0.0,0.0,0.0,0.0,0.0,0.0,0.0,0.0,0.0,0.0,0.0,0.0,0.0,0.0,0.0,0.0,0.0,0.0,0.0,0.0,0.0,0.0,0.0,0.0,0.0,0.0,0.0,0.0,0.0,0.0,0.0,0.0,0.0,0.0,0.0,0.0,0.0,0.0,0.0,0.0,0.0,0.0,0.0,0.0,0.0,0.0,0.0,0.0,0.0,0.0,0.0,-0.8559,-0.8806,-0.8957,-0.9075,-0.9174,-0.9241,0.0,0.0,0.0,0.0,0.0,0.0,0.0,0.0,0.0,0.0,0.0,0.0,0.0,0.0,0.0,0.0,0.0,0.0,0.0,0.0,0.0,0.0,0.0,0.0,0.0,0.0,0.0,0.0,0.0,0.0,0.0,0.0,0.0,0.0,0.0,0.0,0.0,0.0,0.0,0.0,0.0,0.0,0.0,0.0,0.0,0.0,0.0,0.0,0.0,0.0,0.0,0.0,0.0,0.0,0.0,0.0,0.0,0.0,0.0,0.0,0.0,0.0,0.0,0.0,0.0,0.0,0.0,0.0,0.0,0.0,0.0,0.0,0.0,0.0,0.0,0.0,0.0,0.0,0.0,0.0,0.0,0.0,0.0,0.0,0.0,0.0,0.0,0.0,0.0,0.0,0.0,0.0,0.0,0.0,0.0,0.0,0.0,0.0,0.0,0.0,0.0,0.0,0.0,0.0,0.0,0.0,0.0,0.0,0.0,-0.851,0.0,-0.8897,-0.8974,-0.9056,-0.9109,0.0,0.0,0.0,0.0,0.0,0.0,0.0,0.0,0.0,0.0,0.0,0.0,0.0,0.0,0.0,0.0,0.0,0.0,0.0,0.0,0.0,0.0,0.0,0.0,0.0,0.0,0.0,0.0,0.0,0.0,0.0,0.0,0.0,0.0,0.0,0.0,0.0,0.0,0.0,0.0,0.0,0.0,0.0,0.0,0.0,0.0,0.0,0.0,0.0,0.0,0.0,0.0,0.0,0.0,0.0,0.0,0.0,0.0,0.0,0.0,0.0,0.0,0.0,0.0,0.0,0.0,0.0,0.0,0.0,0.0,0.0,0.0,0.0,0.0,0.0,0.0,0.0,0.0,0.0,0.0,0.0,0.0,0.0,0.0,0.0,0.0,0.0,0.0,0.0,0.0,0.0,0.0,0.0,0.0,0.0,0.0,0.0,0.0,0.0,0.0,0.0,0.0,0.0,0.0,0.0,0.0,0.0,0.0,-0.8229,-0.8501,-0.8628,-0.8764,-0.8897,-0.8897,-0.8936,0.0,0.0,0.0,0.0,0.0,0.0,0.0,0.0,0.0,0.0,0.0,0.0,0.0,0.0,0.0,0.0,0.0,0.0,0.0,0.0,0.0,0.0,0.0,0.0,0.0,0.0,0.0,0.0,0.0,0.0,0.0,0.0,0.0,0.0,0.0,0.0,0.0,0.0,0.0,0.0,0.0,0.0,0.0,0.0,0.0,0.0,0.0,0.0,0.0,0.0,0.0,0.0,0.0,0.0,0.0,0.0,0.0,0.0,0.0,0.0,0.0,0.0,0.0,0.0,0.0,0.0,0.0,0.0,0.0,0.0,0.0,0.0,0.0,0.0,0.0,0.0,0.0,0.0,0.0,0.0,0.0,0.0,0.0,0.0,0.0,0.0,0.0,0.0,0.0,0.0,0.0,0.0,0.0,0.0,0.0,0.0,0.0,0.0,0.0,0.0,0.0,0.0,0.0,0.0,0.0,0.0,0.0,0.0,0.0,-0.8282,-0.8412,-0.8542,-0.8685,-0.8748,-0.8784,0.0,0.0,0.0,0.0,0.0,0.0,0.0,0.0,0.0,0.0,0.0,0.0,0.0,0.0,0.0,0.0,0.0,0.0,0.0,0.0,0.0,0.0,0.0,0.0,0.0,0.0,0.0,0.0,0.0,0.0,0.0,0.0,0.0,0.0,0.0,0.0,0.0,0.0,0.0,0.0,0.0,0.0,0.0,0.0,0.0,0.0,0.0,0.0,0.0,0.0,0.0,0.0,0.0,0.0,0.0,0.0,0.0,0.0,0.0,0.0,0.0,0.0,0.0,0.0,0.0,0.0,0.0,0.0,0.0,0.0,0.0,0.0,0.0,0.0,0.0,0.0,0.0,0.0,0.0,0.0,0.0,0.0,0.0,0.0,0.0,0.0,0.0,0.0,0.0,0.0,0.0,0.0,0.0,0.0,0.0,0.0,0.0,0.0,0.0,0.0,0.0,0.0,0.0,0.0,0.0,0.0,0.0,0.0,0.0,-0.7941,-0.8149,-0.8309,-0.8486,-0.8554,-0.8624,-0.8684,0.0,0.0,0.0,0.0,0.0,0.0,0.0,0.0,0.0,0.0,0.0,0.0,0.0,0.0,0.0,0.0,0.0,0.0,0.0,0.0,0.0,0.0,0.0,0.0,0.0,0.0,0.0,0.0,0.0,0.0,0.0,0.0,0.0,0.0,0.0,0.0,0.0,0.0,0.0,0.0,0.0,0.0,0.0,0.0,0.0,0.0,0.0,0.0,0.0,0.0,0.0,0.0,0.0,0.0,0.0,0.0,0.0,0.0,0.0,0.0,0.0,0.0,0.0,0.0,0.0,0.0,0.0,0.0,0.0,0.0,0.0,0.0,0.0,0.0,0.0,0.0,0.0,0.0,0.0,0.0,0.0,0.0,0.0,0.0,0.0,0.0,0.0,0.0,0.0,0.0,0.0,0.0,0.0,0.0,0.0,0.0,0.0,0.0,0.0,0.0,0.0,0.0,0.0,0.0,0.0,0.0,0.0,0.0,-0.7498,-0.7797,-0.8066,-0.8274,-0.8351,-0.8412,0.0,0.0,0.0,0.0,0.0,0.0,0.0,0.0,0.0,0.0,0.0,0.0,0.0,0.0,0.0,0.0,0.0,0.0,0.0,0.0,0.0,0.0,0.0,0.0,0.0,0.0,0.0,0.0,0.0,0.0,0.0,0.0,0.0,0.0,0.0,0.0,0.0,0.0,0.0,0.0,0.0,0.0,0.0,0.0,0.0,0.0,0.0,0.0,0.0,0.0,0.0,0.0,0.0,0.0,0.0,0.0,0.0,0.0,0.0,0.0,0.0,0.0,0.0,0.0,0.0,0.0,0.0,0.0,0.0,0.0,0.0,0.0,0.0,0.0,0.0,0.0,0.0,0.0,0.0,0.0,0.0,0.0,0.0,0.0,0.0,0.0,0.0,0.0,0.0,0.0,0.0,0.0,0.0,0.0,0.0,0.0,0.0,0.0,0.0,0.0,0.0,0.0,0.0,0.0,0.0,0.0,0.0,0.0,0.0,-0.7341,-0.7452,-0.765,-0.7997,-0.8121,-0.8232,0.0,0.0,0.0,0.0,0.0,0.0,0.0,0.0,0.0,0.0,0.0,0.0,0.0,0.0,0.0,0.0,0.0,0.0,0.0,0.0,0.0,0.0,0.0,0.0,0.0,0.0,0.0,0.0,0.0,0.0,0.0,0.0,0.0,0.0,0.0,0.0,0.0,0.0,0.0,0.0,0.0,0.0,0.0,0.0,0.0,0.0,0.0,0.0,0.0,0.0,0.0,0.0,0.0,0.0,0.0,0.0,0.0,0.0,0.0,0.0,0.0,0.0,0.0,0.0,0.0,0.0,0.0,0.0,0.0,0.0,0.0,0.0,0.0,0.0,0.0,0.0,0.0,0.0,0.0,0.0,0.0,0.0,0.0,0.0,0.0,0.0,0.0,0.0,0.0,0.0,0.0,0.0,0.0,0.0,0.0,0.0,0.0,0.0,0.0,0.0,0.0,0.0,0.0,0.0,0.0,0.0,0.0,0.0,-0.7055,-0.7118,-0.7203,-0.7392,-0.765,-0.7811,-0.7998,0.0,0.0,0.0,0.0,0.0,0.0,0.0,0.0,0.0,0.0,0.0,0.0,0.0,0.0,0.0,0.0,0.0,0.0,0.0,0.0,0.0,0.0,0.0,0.0,0.0,0.0,0.0,0.0,0.0,0.0,0.0,0.0,0.0,0.0,0.0,0.0,0.0,0.0,0.0,0.0,0.0,0.0,0.0,0.0,0.0,0.0,0.0,0.0,0.0,0.0,0.0,0.0,0.0,0.0,0.0,0.0,0.0,0.0,0.0,0.0,0.0,0.0,0.0,0.0,0.0,0.0,0.0,0.0,0.0,0.0,0.0,0.0,0.0,0.0,0.0,0.0,0.0,0.0,0.0,0.0,0.0,0.0,0.0,0.0,0.0,0.0,0.0,0.0,0.0,0.0,0.0,0.0,0.0,0.0,0.0,0.0,0.0,0.0,0.0,0.0,0.0,0.0,0.0,0.0,0.0,0.0,0.0,0.0,-0.6891,-0.6894,-0.7088,-0.7201,-0.726,-0.7543,-0.7753,0.0,0.0,0.0,0.0,0.0,0.0,0.0,0.0,0.0,0.0,0.0,0.0,0.0,0.0,0.0,0.0,0.0,0.0,0.0,0.0,0.0,0.0,0.0,0.0,0.0,0.0,0.0,0.0,0.0,0.0,0.0,0.0,0.0,0.0,0.0,0.0,0.0,0.0,0.0,0.0,0.0,0.0,0.0,0.0,0.0,0.0,0.0,0.0,0.0,0.0,0.0,0.0,0.0,0.0,0.0,0.0,0.0,0.0,0.0,0.0,0.0,0.0,0.0,0.0,0.0,0.0,0.0,0.0,0.0,0.0,0.0,0.0,0.0,0.0,0.0,0.0,0.0,0.0,0.0,0.0,0.0,0.0,0.0,0.0,0.0,0.0,0.0,0.0,0.0,0.0,0.0,0.0,0.0,0.0,0.0,0.0,0.0,0.0,0.0,0.0,0.0,0.0,0.0,0.0,0.0,0.0,0.0,0.0,-0.6791,-0.6894,-0.6944,-0.7036,-0.7145,-0.7403,-0.7574,0.0,0.0,0.0,0.0,0.0,0.0,0.0,0.0,0.0,0.0,0.0,0.0,0.0,0.0,0.0,0.0,0.0,0.0,0.0,0.0,0.0,0.0,0.0,0.0,0.0,0.0,0.0,0.0,0.0,0.0,0.0,0.0,0.0,0.0,0.0,0.0,0.0,0.0,0.0,0.0,0.0,0.0,0.0,0.0,0.0,0.0,0.0,0.0,0.5301,0.0,0.0,0.0,0.0,0.0,0.0,0.0,0.0,0.0,0.0,0.0,0.0,0.0,0.0,0.0,0.0,0.0,0.0,0.0,0.0,0.0,0.0,0.0,0.0,0.0,0.0,0.0,0.0,0.0,0.0,0.0,0.0,0.0,0.0,0.0,0.0,0.0,0.0,0.0,0.0,0.0,0.0,0.0,0.0,0.0,0.0,0.0,0.0,0.0,0.0,0.0,0.0,0.0,0.0,0.0,0.0,0.0,0.0,0.0,-0.6689,-0.6757,-0.6858,-0.6941,-0.7003,-0.7212,-0.7371,0.0,0.0,0.0,0.0,0.0,0.0,0.0,0.0,0.0,0.0,0.0,0.0,0.0,0.0,0.0,0.0,0.0,0.0,0.0,0.0,0.0,0.0,0.0,0.0,0.0,0.0,0.0,0.0,0.0,0.0,0.0,0.0,0.0,0.0,0.0,0.0,0.0,0.0,0.0,0.0,0.0,0.0,0.0,0.0,0.0,0.0,0.0,0.0,0.0,0.0,0.0,0.0,0.0,0.0,0.0,0.0,0.0,0.0,0.0,0.0,0.0,0.0,0.0,0.0,0.0,0.0,0.0,0.0,0.0,0.0,0.0,0.0,0.0,0.0,0.0,0.0,0.0,0.0,0.0,0.0,0.0,0.0,0.0,0.0,0.0,0.0,0.0,0.0,0.0,0.0,0.0,0.0,0.0,0.0,0.0,0.0,0.0,0.0,0.0,0.0,0.0,0.0,0.0,0.0,0.0,0.0,0.0,-0.6547,-0.6599,-0.6616,-0.6774,-0.6822,-0.676,-0.6963,-0.7091,-0.7107,0.0,0.0,0.0,0.0,0.0,0.0,0.0,0.0,0.0,0.0,0.0,0.0,0.0,0.0,0.0,0.0,0.0,0.0,0.0,0.0,0.0,0.0,0.0,0.0,0.0,0.0,0.0,0.0,0.0,0.0,0.0,0.0,0.0,0.0,0.0,0.0,0.0,0.0,0.2239,0.2711,0.0,0.0,0.0,0.0,0.0,0.0,0.0,0.0,0.6488,0.0,0.0,0.0,0.0,0.0,0.0,0.0,0.0,0.0,0.0,0.0,0.0,0.0,0.0,0.0,0.0,0.0,0.0,0.0,0.0,0.0,0.0,0.0,0.0,0.0,0.0,0.0,0.0,0.0,0.0,0.0,0.0,0.0,0.0,0.0,0.0,0.0,0.0,0.0,0.0,0.0,0.0,0.0,0.0,0.0,0.0,0.0,0.0,0.0,0.0,0.0,0.0,0.0,0.0,0.0,0.0,-0.6418,-0.6478,-0.6564,-0.6685,-0.6706,-0.6555,-0.6195,-0.6716,-0.6791,-0.6355,0.0,0.0,0.0,0.0,0.0,0.0,0.0,0.0,0.0,0.0,0.0,0.0,0.0,0.0,0.0,0.0,0.0,0.0,0.0,0.0,0.0,0.0,0.0,0.0,0.0,0.0,0.0,0.0,0.0,0.0,0.0,0.0,0.0,0.0,0.0,0.0,0.0,0.0,0.0,0.3015,0.3224,0.0,0.0,0.0,0.0,0.0,0.0,0.0,0.0,0.6841,0.0,0.0,0.0,0.0,0.0,0.0,0.0,0.0,0.0,0.0,0.0,0.0,0.0,0.0,0.0,0.0,0.0,0.0,0.0,0.0,0.0,0.0,0.0,0.0,0.0,0.0,0.0,0.0,0.0,0.0,0.0,0.0,0.0,0.0,0.0,0.0,0.0,0.0,0.0,0.0,0.0,0.0,0.0,0.0,0.0,0.0,0.0,0.0,0.0,0.0,0.0,0.0,0.0,0.0,0.0,-0.6307,-0.6383,-0.6359,-0.6202,-0.6241,-0.6078,-0.562,-0.5699,-0.5727,0.0,0.0,0.0,0.0,0.0,0.0,0.0,0.0,0.0,0.0,0.0,0.0,0.0,0.0,0.0,0.0,0.0,0.0,0.0,0.0,0.0,0.0,0.0,0.0,0.0,0.0,0.0,0.0,0.0,0.0,0.0,0.0,0.0,0.0,0.0,0.0,0.0,0.0,0.0,0.0,0.3688,0.3965,0.4061,0.0,0.0,0.0,0.0,0.0,0.0,0.6837,0.7003,0.0,0.0,0.0,0.0,0.0,0.0,0.0,0.0,0.0,0.0,0.0,0.0,0.0,0.0,0.0,0.0,0.0,0.0,0.0,0.0,0.0,0.0,0.0,0.0,0.0,0.0,0.0,0.0,0.0,0.0,0.0,0.0,0.0,0.0,0.0,0.0,0.0,0.0,0.0,0.0,0.0,0.0,0.0,0.0,0.0,0.0,0.0,0.0,0.0,0.0,0.0,0.0,0.0,0.0,0.0,-0.6165,-0.6199,-0.6064,-0.5737,-0.5733,-0.554,-0.5078,-0.4799,-0.482,0.0,0.0,0.0,0.0,0.0,0.0,0.0,0.0,0.0,0.0,0.0,0.0,0.0,0.0,0.0,0.0,0.0,0.0,0.0,0.0,0.0,0.0,0.0,0.0,0.0,0.0,0.0,0.0,0.0,0.0,0.0,0.0,0.0,0.0,0.0,0.0,0.0,0.0,0.0,0.0,0.0,0.4575,0.4702,0.5156,0.0,0.0,0.0,0.0,0.6668,0.6917,0.0,0.0,0.0,0.0,0.0,0.0,0.0,0.0,0.0,0.0,0.0,0.0,0.0,0.0,0.0,0.0,0.0,0.0,0.0,0.0,0.0,0.0,0.0,0.0,0.0,0.0,0.0,0.0,0.0,0.0,0.0,0.0,0.0,0.0,0.0,0.0,0.0,0.0,0.0,0.0,0.0,0.0,0.0,0.0,0.0,0.0,0.0,0.0,0.0,0.0,0.0,0.0,0.0,0.0,0.0,0.0,-0.6004,-0.5741,-0.5681,-0.576,-0.5447,-0.5053,-0.4599,-0.4758,-0.4813,0.0,0.0,0.0,0.0,0.0,0.0,0.0,0.0,0.0,0.0,0.0,0.0,0.0,0.0,0.0,0.0,0.0,0.0,0.0,0.0,0.0,0.0,0.0,0.0,0.0,0.0,0.0,0.0,0.0,0.0,0.0,0.0,0.0,0.0,0.0,0.0,0.0,0.0,0.0,0.0,0.0,0.4682,0.4773,0.5301,0.5811,0.0,0.0,0.647,0.6655,0.6824,0.0,0.0,0.0,0.0,0.0,0.0,0.0,0.0,0.0,0.0,0.0,0.0,0.0,0.0,0.0,0.0,0.0,0.0,0.0,0.0,0.0,0.0,0.0,0.0,0.0,0.0,0.0,0.0,0.0,0.0,0.0,0.0,0.0,0.0,0.0,0.0,0.0,0.0,0.0,0.0,0.0,0.0,0.0,0.0,0.0,0.0,0.0,0.0,0.0,0.0,0.0,0.0,0.0,0.0,0.0,-0.6014,-0.6004,-0.5666,-0.5462,-0.5339,-0.4952,-0.4535,-0.4108,-0.4245,-0.4307,0.0,0.0,0.0,0.0,0.0,0.0,0.0,0.0,0.0,0.0,0.0,0.0,0.0,0.0,0.0,0.0,0.0,0.0,0.0,0.0,0.0,0.0,0.0,0.0,0.0,0.0,0.0,0.0,0.0,0.0,0.0,0.0,0.0,0.0,0.0,0.0,0.0,0.0,0.0,0.0,0.0,0.0,0.4901,0.5397,0.0,0.0,0.0,0.6535,0.6723,0.0,0.0,0.0,0.0,0.0,0.0,0.0,0.0,0.0,0.0,0.0,0.0,0.0,0.0,0.0,0.0,0.0,0.0,0.0,0.0,0.0,0.0,0.0,0.0,0.0,0.0,0.0,0.0,0.0,0.0,0.0,0.0,0.0,0.0,0.0,0.0,0.0,0.0,0.0,0.0,0.0,0.0,0.0,0.0,0.0,0.0,0.0,0.0,0.0,0.0,0.0,0.0,0.0,0.0,0.0,0.0,0.0,-0.5998,-0.5568,-0.5234,-0.501,-0.4516,-0.4127,-0.3869,-0.3941,0.0,0.0,0.0,0.0,0.0,0.0,0.0,0.0,0.0,0.0,0.0,0.0,0.0,0.0,0.0,0.0,0.0,0.0,0.0,0.0,0.0,0.0,0.0,0.0,0.0,0.0,0.0,-0.2072,0.0,0.0,0.0,0.0,0.0,0.0,0.0,0.0,0.0,0.0,0.0,0.0,0.0,0.0,0.4872,0.5,0.5463,0.5948,0.0,0.0,0.6758,0.6923,0.753,0.8009,0.0,0.0,0.0,0.0,0.0,0.0,0.0,0.0,0.0,0.0,0.0,0.0,0.0,0.0,0.0,0.0,0.0,0.0,0.0,0.0,0.0,0.0,0.0,0.0,0.0,0.0,0.0,0.0,0.0,0.0,0.0,0.0,0.0,0.0,0.0,0.0,0.0,0.0,0.0,0.0,0.0,0.0,0.0,0.0,0.0,0.0,0.0,0.0,0.0,0.0,0.0,0.0,0.0,0.0,0.0,-0.5993,-0.5243,-0.4932,-0.5074,-0.4281,-0.3884,-0.3977,-0.412,-0.422,0.0,0.0,0.0,0.0,0.0,0.0,0.0,0.0,0.0,0.0,0.0,0.0,0.0,0.0,0.0,0.0,0.0,0.0,0.0,0.0,0.0,0.0,0.0,0.0,0.0,0.0,0.0,0.0,0.0,0.0,0.0,0.0,0.0,0.0,0.0,0.0,0.0,0.0,0.0,0.0,0.0,0.4872,0.5069,0.5501,0.5929,0.0,0.0,0.7259,0.7363,0.7976,0.85,0.8631,0.0,0.0,0.0,0.0,0.0,0.0,0.0,0.0,0.0,0.0,0.0,0.0,0.0,0.0,0.0,0.0,0.0,0.0,0.0,0.0,0.0,0.0,0.0,0.0,0.0,0.0,0.0,0.0,0.0,0.0,0.0,0.0,0.0,0.0,0.0,0.0,0.0,0.0,0.0,0.0,0.0,0.0,0.0,0.0,0.0,0.0,0.0,0.0,0.0,0.0,0.0,0.0,0.0,-0.6183,-0.6295,-0.5355,-0.4998,-0.5185,-0.4291,-0.3884,-0.4064,-0.4235,-0.4336,0.0,0.0,0.0,0.0,0.0,0.0,0.0,0.0,0.0,0.0,0.0,0.0,0.0,0.0,0.0,0.0,0.0,0.0,0.0,0.0,0.0,0.0,0.0,0.0,0.0,0.0,0.0,0.0,-0.3128,-0.2977,-0.2981,0.0,0.0,0.0,0.0,0.0,0.0,0.0,0.0,0.0,0.0,0.559,0.5166,0.5827,0.0,0.0,0.7354,0.7545,0.7852,0.8533,0.9033,0.9179,0.9245,0.0,0.0,0.0,0.0,0.0,0.0,0.0,0.0,0.0,0.0,0.0,0.0,0.0,0.0,0.0,0.0,0.0,0.0,0.0,0.0,0.0,0.0,0.0,0.0,0.0,0.0,0.0,0.0,0.0,0.0,0.0,0.0,0.0,0.0,0.0,0.0,0.0,0.0,0.0,0.0,0.0,0.0,0.0,0.0,0.0,0.0,0.0,0.0,0.0,0.0,0.0,0.0,-0.6337,-0.65,-0.5633,-0.5215,-0.5298,-0.4519,-0.4107,-0.4095,-0.4296,-0.442,0.0,0.0,0.0,0.0,0.0,0.0,0.0,0.0,0.0,0.0,0.0,0.0,0.0,0.0,0.0,0.0,0.0,0.0,0.0,0.0,0.0,0.0,0.0,0.0,0.0,0.0,0.0,0.0,-0.3131,-0.2757,-0.2811,0.0,0.0,0.0,0.0,0.0,0.0,0.0,0.0,0.0,0.0,0.6117,0.5615,0.6313,0.7269,0.8286,0.813,0.8032,0.8376,0.9046,0.957,0.9689,0.0,0.0,0.0,0.0,0.0,0.0,0.0,0.0,0.0,0.0,0.0,0.0,0.0,0.0,0.0,0.0,0.0,0.0,0.0,0.0,0.0,0.0,0.0,0.0,0.0,0.0,0.0,0.0,0.0,0.0,-1.1644,0.0,0.0,0.0,0.0,0.0,0.0,0.0,0.0,0.0,0.0,0.0,0.0,0.0,0.0,0.0,0.0,0.0,0.0,0.0,0.0,0.0,0.0,-0.6366,-0.651,-0.6073,-0.5669,-0.5298,-0.4962,-0.4547,-0.412,-0.4296,-0.4451,-0.4587,0.0,0.0,0.0,0.0,0.0,0.0,0.0,0.0,0.0,0.0,0.0,0.0,0.0,0.0,0.0,0.0,0.0,0.0,0.0,0.0,0.0,0.0,0.0,0.0,0.0,0.0,-0.3661,-0.3147,-0.2804,0.0,0.0,0.0,0.0,0.0,0.0,0.0,0.0,0.0,0.0,0.6166,0.6353,0.6455,0.6989,0.791,0.9386,0.9194,0.8911,0.897,0.9541,1.0021,0.0,0.0,0.0,0.0,0.0,0.0,0.0,0.0,0.0,0.0,0.0,0.0,0.0,0.0,0.0,0.0,0.0,0.0,0.0,0.0,0.0,0.0,0.0,0.0,0.0,0.0,0.0,-1.2181,-1.1917,0.0,0.0,0.0,0.0,0.0,0.0,0.0,0.0,0.0,0.0,0.0,-0.9762,-0.9461,0.0,0.0,0.0,0.0,0.0,0.0,0.0,0.0,0.0,0.0,0.0,0.0,-0.6517,-0.6668,-0.6173,-0.5709,-0.5298,-0.4917,-0.4536,-0.4104,-0.4299,-0.4499,-0.4728,0.0,0.0,0.0,0.0,0.0,0.0,0.0,0.0,0.0,0.0,0.0,0.0,0.0,0.0,0.0,0.0,0.0,0.0,0.0,0.0,0.0,0.0,0.0,0.0,0.0,-0.2886,0.0,0.0,0.0,0.0,0.0,0.0,0.0,0.0,0.0,0.0,0.0,0.6231,0.685,0.7147,0.733,0.7402,0.7877,0.8526,0.0,0.0,0.0,0.0,0.0,0.0,0.0,0.0,0.0,0.0,0.0,0.0,0.0,0.0,1.1156,1.0706,1.0678,1.0735,1.0728,0.0,0.0,0.0,0.0,0.0,0.0,0.0,0.0,0.0,0.0,0.0,0.0,0.0,0.0,0.0,0.0,-1.2609,0.0,0.0,0.0,0.0,0.0,0.0,0.0,0.0,-1.0352,-0.9988,-0.9593,-0.9339,-0.9108,0.0,-0.8712,-0.8589,0.0,0.0,0.0,0.0,0.0,0.0,0.0,0.0,-0.6517,-0.6681,-0.6365,-0.5964,-0.5568,-0.5149,-0.4756,-0.4401,-0.4425,-0.4537,-0.4761,-0.4732,-0.4652,0.0,0.0,0.0,0.0,0.0,0.0,0.0,0.0,0.0,0.0,0.0,0.0,0.0,0.0,0.0,0.0,0.0,0.0,0.0,0.0,0.0,0.0,0.0,-0.2205,0.0,0.0,0.0,0.0,0.0,0.0,0.0,0.0,0.0,0.5671,0.6225,0.675,0.7373,0.7637,0.7792,0.7898,0.0,0.0,0.0,0.0,0.0,0.0,0.0,1.0146,1.0879,1.1078,1.1518,1.2586,1.3332,1.3657,1.3417,0.0,0.0,1.1703,1.1488,1.1471,1.1687,1.1754,1.1873,1.2067,1.2125,1.211,0.0,0.0,0.0,0.0,0.0,0.0,0.0,0.0,-1.2492,-1.2436,0.0,-1.2436,0.0,0.0,0.0,0.0,0.0,0.0,0.0,0.0,-1.0731,-1.0183,-0.9464,-0.9263,-0.8994,-0.8739,-0.8583,-0.8488,-0.8439,-0.8561,0.0,0.0,0.0,0.0,0.0,0.0,-0.6378,-0.6493,-0.6625,-0.6445,-0.5987,-0.5618,-0.5245,-0.4925,-0.4649,-0.4562,-0.4684,-0.4761,-0.4757,-0.4693,-0.4459,0.0,0.0,0.0,0.0,0.0,0.0,0.0,0.0,0.0,0.0,0.0,0.0,0.0,0.0,0.0,0.0,0.0,0.0,0.0,0.0,-0.1455,0.0,0.0,0.0,0.0,0.0,0.0,0.0,0.0,0.0,0.0,0.6009,0.6612,0.7145,0.748,0.0,0.0,0.0,0.0,0.8684,0.9205,0.9405,0.9564,0.9762,0.9854,1.0146,1.0879,0.0,0.0,1.3261,1.419,1.4583,1.4124,1.4361,1.4218,1.2484,1.1813,1.1693,1.2211,1.2365,1.2607,1.3118,1.3173,1.3188,-1.749,0.0,0.0,0.0,0.0,-1.4413,-1.4146,-1.4152,-1.3674,-1.3218,-1.2847,-1.3351,0.0,0.0,0.0,0.0,0.0,0.0,-1.1669,-1.1353,-1.1176,-1.0882,-1.0457,-0.9974,-0.9638,-0.9412,-0.899,-0.8795,-0.8756,-0.8795,-0.8496,-0.7867,0.0,0.0,0.0,0.0,-0.6679,-0.646,-0.6517,-0.6294,-0.578,-0.5913,-0.5676,-0.5046,-0.4639,-0.4485,-0.462,-0.4684,-0.474,-0.4757,-0.4606,0.0,0.0,0.0,0.0,0.0,0.0,0.0,0.0,0.0,0.0,0.0,0.0,0.0,0.0,0.0,0.0,0.0,0.0,0.0,-0.038,-0.02,0.0376,0.0,0.0,0.0,0.0,0.0,0.0,0.0,0.0,0.0,0.6748,0.6975,0.7255,0.0,0.0,0.7773,0.7744,0.8138,0.8551,0.896,0.0,0.0,0.0,0.9736,1.0054,1.0754,1.1693,1.2742,1.383,1.4242,1.4406,1.4277,1.445,1.4259,1.3385,1.2854,1.2673,1.2842,1.287,1.2953,1.3099,1.3156,1.3156,-1.862,-1.721,-1.6599,-1.6085,-1.5649,-1.5207,-1.5013,-1.5023,-1.4611,-1.4189,-1.3817,-1.4023,-1.3892,-1.3454,-1.333,0.0,0.0,0.0,-1.2197,-1.1796,-1.1684,-1.1417,-1.0951,-1.0593,-1.0277,-1.0049,-0.9551,-0.9255,-0.917,-0.894,-0.865,-0.8282,0.0,0.0,-0.7371,-0.7251,-0.6973,-0.6587,-0.6631,-0.6438,-0.6006,-0.6146,-0.5958,-0.5394,-0.4952,-0.4792,-0.4944,-0.476,-0.4693,-0.4763,-0.4702,-0.4567,0.0,0.0,0.0,0.0,0.0,0.0,0.0,0.0,0.0,0.0,0.0,-0.2575,0.0,0.0,0.0,0.0,-0.1969,-0.1096,0.009,0.0793,0.0,0.0,0.0,0.0,0.0,0.0,0.0,0.6149,0.6631,0.7026,0.7264,0.7344,0.7403,0.7579,0.7686,0.7773,0.7764,0.0,0.846,0.8834,0.9069,0.9271,0.9458,0.9605,0.9987,1.0699,1.1963,1.3027,1.3555,1.395,1.4208,1.4287,1.4369,1.431,1.3967,1.3762,1.3586,1.3403,1.3333,1.3445,1.3657,1.3728,1.3714,-1.9543,-1.9274,-1.7938,-1.6754,-1.5671,-1.5465,-1.5337,-1.5325,-1.5261,-1.5121,-1.498,-1.4547,-1.433,-1.4256,-1.3817,0.0,-1.3557,-1.3501,-1.3049,-1.2361,-1.2296,-1.183,-1.1149,-1.1113,-1.0928,-1.0671,-1.0186,-0.9866,-0.9694,-0.9113,-0.8917,-0.9067,-0.857,-0.8271,-0.8177,-0.7782,-0.7337,-0.6867,-0.6918,-0.679,-0.6462,-0.6328,-0.6143,-0.5844,-0.5458,-0.5336,-0.5453,-0.4961,-0.4689,-0.4701,-0.4755,-0.4724,-0.4624,0.0,0.0,0.0,0.0,0.0,0.0,0.0,0.0,0.0,0.0,0.0,0.0,0.0,0.0,0.0,-0.1254,0.0,0.026,0.1713,0.0,0.0,0.0,0.5191,0.5968,0.6147,0.647,0.7017,0.0,0.0,0.7607,0.0,0.7656,0.7618,0.7656,0.7725,0.788,0.8082,0.8358,0.8723,0.8955,0.9151,0.9366,0.9526,0.9907,1.0684,1.1899,1.2685,1.2956,1.3499,1.3992,1.4124,1.4189,1.4287,1.4365,1.4365,1.4304,1.3799,1.3791,1.4032,1.4463,1.4603,1.4544,-2.0367,-1.994,-1.9303,-1.8384,-1.7255,-1.6237,-1.585,-1.5812,-1.5389,-1.5172,-1.5159,-1.5018,-1.4954,-1.4954,-1.4726,-1.4421,-1.4027,-1.3955,-1.3559,-1.292,-1.2793,-1.2582,-1.2289,-1.1826,-1.1536,-1.1324,-1.0888,-1.0642,-1.0557,-1.0044,-0.9828,-0.9874,-0.9383,-0.8835,-0.83,-0.8111,-0.778,-0.727,-0.7259,-0.7182,-0.6979,-0.6342,-0.6075,-0.6264,-0.5918,-0.5612,-0.5367,-0.5352,-0.5128,-0.4646,-0.4693,-0.4702,-0.467,-0.4501,0.0,0.0,0.0,0.0,0.0,0.0,0.0,0.0,0.0,-0.3461,-0.3634,0.0,-0.2573,0.0,0.0112,0.0626,0.15,0.3276,0.0,0.0,0.6035,0.6693,0.7149,0.7455,0.7702,0.7819,0.8206,0.8379,0.8098,0.8141,0.8065,0.7744,0.7695,0.7754,0.787,0.8082,0.8301,0.86,0.8861,0.9065,0.9244,0.9499,0.9921,1.0671,1.1127,1.1677,1.2649,1.3383,1.3861,1.3947,1.3941,1.3987,1.4138,1.4144,1.409,1.3974,1.4169,1.4353,1.4519,1.4533,1.4547,-2.1086,-2.0492,-1.9807,-1.9136,-1.8454,-1.7204,-1.6561,-1.6278,-1.5919,-1.578,-1.578,-1.5526,-1.5272,-1.5044,-1.4993,-1.4816,-1.4537,-1.445,-1.4087,-1.3479,-1.3383,-1.3117,-1.272,-1.2408,-1.2161,-1.1988,-1.1536,-1.1266,-1.1166,-1.0704,-1.0486,-1.0534,-0.9999,-0.9501,-0.91,-0.8759,-0.8328,-0.7696,-0.7413,-0.7271,-0.7299,-0.6916,-0.6777,-0.6916,-0.6631,-0.62,-0.5648,-0.5552,-0.5236,-0.4647,-0.4943,-0.4994,-0.4676,-0.4889,-0.4806,0.0,0.0,0.0,0.0,0.0,0.0,0.0,0.0,0.0,0.0,0.0,-0.1861,0.0,0.0751,0.0,0.2597,0.4252,0.5562,0.6276,0.6876,0.7433,0.794,0.8191,0.8375,0.8446,0.8733,0.8824,0.8564,0.861,0.8574,0.832,0.8156,0.8029,0.7929,0.8091,0.8319,0.8477,0.8778,0.9026,0.9205,0.9487,0.9835,1.0239,1.0623,1.1171,1.1844,1.2961,1.3703,1.3376,1.3572,1.3821,1.3954,1.3993,1.4,1.4032,1.4149,1.4246,1.4278,1.4278,1.4278,-2.1555,-2.1,-1.993,-1.9464,-1.9323,-1.8185,-1.7346,-1.6777,-1.6602,-1.6534,-1.6497,-1.6019,-1.5542,-1.513,-1.509,-1.504,-1.5016,-1.4977,-1.465,-1.4026,-1.4014,-1.3606,-1.2948,-1.2912,-1.2805,-1.252,-1.2137,-1.1876,-1.1751,-1.1266,-1.1081,-1.112,-1.0534,-1.0232,-1.0179,-0.9538,-0.8866,-0.816,-0.7525,-0.7274,-0.7427,-0.7554,-0.7605,-0.7591,-0.7411,-0.6952,-0.6205,-0.5896,-0.5481,-0.4953,-0.5491,-0.5537,-0.4888,-0.5419,-0.546,0.0,-0.4642,0.0,0.0,0.0,0.0,0.0,0.0,0.0,0.0,-0.2217,-0.0633,0.0246,0.1059,0.2109,0.358,0.4924,0.6076,0.691,0.7293,0.78,0.8498,0.8727,0.8863,0.8979,0.9046,0.9101,0.9067,0.9082,0.9082,0.8945,0.875,0.8478,0.8108,0.8179,0.8308,0.8382,0.8701,0.9042,0.9247,0.9514,0.9696,0.9798,1.0268,1.0782,1.0937,1.2174,1.311,1.2812,1.3272,1.3695,1.3741,1.3861,1.3934,1.3934,1.3934,1.3967,1.4032,1.4032,1.4,-2.1794,-2.1495,-2.0462,-1.9823,-1.9374,-1.8879,-1.8201,-1.7232,-1.6722,-1.6534,-1.6509,-1.6409,-1.6308,-1.6208,-1.6208,-1.5957,-1.5555,-1.5542,-1.5241,-1.4714,-1.4586,-1.4262,-1.3704,-1.3619,-1.3349,-1.2838,-1.274,-1.2657,-1.2563,-1.2043,-1.1801,-1.1777,-1.1257,-1.093,-1.0791,0.0,0.0,0.0,-0.7928,-0.7665,-0.7632,-0.7372,-0.7315,-0.7526,-0.7726,0.0,-0.717,-0.7362,-0.719,-0.6519,-0.6533,0.0,0.0,0.0,0.0,0.0,0.0,0.0,0.0,0.0,0.0,0.0,-0.4375,-0.4572,-0.4509,-0.2401,-0.0774,-0.0173,0.1574,0.3087,0.409,0.5534,0.6702,0.7456,0.7949,0.8421,0.8925,0.9574,0.9863,0.9515,0.9777,0.9865,0.9534,0.9476,0.9349,0.9102,0.9104,0.8963,0.854,0.8406,0.8329,0.841,0.8795,0.9108,0.9286,0.9526,0.971,0.9761,0.989,1.0298,1.0784,1.0668,1.1487,1.2724,1.3289,1.3357,1.3527,1.3581,1.3615,1.3669,1.3682,1.3735,1.3967,1.4,1.4,-2.2339,0.0,-2.0927,-2.0271,0.0,-1.9195,-1.8706,-1.8141,-1.73,-1.6785,-1.6534,-1.6534,-1.6534,-1.6534,-1.6534,-1.6371,-1.6107,-1.6107,-1.5806,-1.5279,-1.5226,-1.486,-1.4299,-1.4261,-1.3952,-1.3361,-1.3361,-1.3178,-1.2838,-1.2523,-1.2389,-1.2389,-1.1834,-1.1471,-1.1275,-1.0498,-0.9578,-0.8505,-0.817,-0.7961,-0.7923,-0.774,-0.7635,-0.7607,0.0,0.0,0.0,0.0,0.0,0.0,0.0,0.0,0.0,0.0,0.0,-0.6283,-0.6146,-0.5997,-0.5802,-0.531,-0.4845,-0.4468,-0.4397,-0.4275,-0.4139,-0.2298,-0.0718,0.0276,0.1947,0.3432,0.4646,0.5949,0.7001,0.7757,0.8429,0.8894,0.9228,0.9883,1.0147,0.9944,1.0108,1.0186,0.999,0.9951,0.9883,0.9658,0.9611,0.9506,0.9268,0.8932,0.8709,0.8672,0.8878,0.9135,0.9274,0.9514,0.971,0.971,0.9802,1.0018,1.0335,1.0133,1.0347,1.1568,1.2461,1.322,1.3335,1.3425,1.3514,1.3581,1.3628,1.3648,1.3861,1.3894,1.3881,-2.2895,-2.1603,-2.1275,-2.0706,-1.9952,-1.9397,-1.9108,-1.8895,0.0,0.0,0.0,-1.6534,-1.6534,-1.6534,-1.6534,-1.6534,-1.6534,-1.6534,-1.6271,-1.5844,-1.5844,-1.5489,-1.4885,-1.4885,-1.456,-1.4001,-1.3989,-1.3717,-1.3202,-1.3033,-1.2961,-1.2924,-1.2323,-1.183,-1.1477,-1.0742,-0.9785,-0.8691,-0.8484,-0.8395,-0.8366,-0.8317,-0.8162,-0.7876,-0.815,-0.7903,-0.7045,-0.7247,-0.7137,-0.6655,-0.7119,-0.717,-0.6669,-0.7166,-0.7231,-0.6704,-0.6458,-0.6261,-0.602,-0.5583,-0.508,-0.449,-0.3925,-0.3513,-0.3278,-0.1979,-0.0478,0.1112,0.2411,0.3759,0.525,0.6291,0.7225,0.8023,0.868,0.9155,0.9457,0.9858,1.0157,1.0118,1.0186,1.0283,1.0312,1.0302,1.0322,1.0302,1.0129,1.0025,0.9935,0.9453,0.9012,0.8912,0.9026,0.9151,0.9286,0.9526,0.9684,0.971,0.9802,0.988,0.988,0.988,0.988,1.0044,1.1595,1.2735,1.317,1.3335,1.348,1.3581,1.3581,1.3628,1.3788,1.3821,1.3854,-2.3065,-2.2042,-2.1377,-2.0693,-1.9978,-1.9787,-1.9434,-1.8945,-1.7865,-1.7061,-1.6534,-1.6534,-1.6534,-1.6534,-1.6534,-1.6534,-1.6534,-1.6534,-1.6429,0.0,-1.6409,-1.6107,-1.558,-1.558,-1.5239,-1.4789,-1.4751,-1.4611,-1.4346,-1.3889,-1.3643,-1.3496,-1.2782,-1.2036,-1.1297,-1.0956,-1.0375,-0.954,-0.9334,-0.916,-0.8984,-0.8818,-0.8632,-0.8499,-0.8659,-0.875,-0.859,-0.868,-0.8743,-0.8598,-0.8418,-0.818,-0.7862,-0.7744,-0.7608,-0.7306,-0.703,-0.6739,-0.6416,-0.5844,-0.5129,-0.4332,-0.2968,-0.2188,-0.2336,-0.1237,0.0253,0.2099,0.3335,0.4612,0.597,0.6787,0.7553,0.835,0.8584,0.89,0.9618,0.9776,0.9911,1.0079,1.0127,1.0157,1.0283,1.0322,1.0322,1.038,1.0444,1.0453,1.0235,0.9712,0.9158,0.8973,0.9069,0.9205,0.9313,0.9526,0.9684,0.971,0.9802,0.988,0.988,0.988,0.988,0.988,1.1048,1.2128,1.2973,1.3245,1.3323,1.3493,1.3527,1.3594,1.3754,1.3854,1.3888,-2.3593,-2.2609,-2.2214,-2.1447,-2.046,-1.9988,-1.951,-1.8958,-1.8505,-1.7965,-1.7426,-1.7124,-1.6986,-1.6961,-1.6616,-1.6534,-1.6534,-1.6534,-1.6534,-1.6534,-1.6534,-1.6384,-1.617,-1.6145,-1.5844,-1.5329,-1.5249,-1.502,-1.4656,-1.4269,-1.4055,-1.3927,-1.3085,-1.2401,-1.1889,-1.1424,-1.0895,-1.0349,-0.9644,-0.9197,-0.9028,-0.878,-0.8574,-0.847,-0.8436,-0.8366,-0.8253,-0.8235,-0.8157,-0.8018,-0.7799,-0.7644,-0.7509,-0.728,-0.708,-0.6983,-0.6631,-0.6268,-0.5826,-0.4728,-0.3739,-0.2922,-0.1731,-0.0761,-0.0301,0.0267,0.1469,0.346,0.4267,0.5056,0.6119,0.6959,0.7696,0.8312,0.859,0.9003,0.9503,0.9683,0.9793,1.001,1.0088,1.0166,1.0273,1.0322,1.0312,1.0418,1.0611,1.0644,1.0362,0.9949,0.9567,0.9354,0.9237,0.9228,0.9313,0.9526,0.9684,0.971,0.9802,0.988,0.988,0.988,0.988,0.9942,1.0822,1.1927,1.2985,1.3254,1.3357,1.3459,1.3527,1.3628,1.3808,1.3987,1.4105,-2.3989,-2.3067,-2.284,-2.2137,-2.0964,-2.029,-1.9761,-1.9397,-1.9258,-1.8957,-1.8518,-1.7877,-1.7564,-1.7513,-1.7087,-1.6898,-1.6898,-1.6898,-1.6854,-1.6886,-1.6773,-1.671,-1.6685,-1.6597,-1.6283,-1.5878,-1.5757,-1.5476,-1.5011,-1.4679,-1.4345,-1.4026,-1.3372,-1.2901,-1.2563,-1.1986,-1.1492,-1.1108,-1.0163,-0.9518,-0.9227,-0.8889,-0.8675,-0.8505,-0.8333,-0.8089,-0.7797,-0.7531,-0.7377,-0.7258,-0.7076,-0.6953,-0.6895,-0.6662,-0.6447,-0.6311,-0.5954,-0.537,-0.4607,-0.3345,-0.2219,-0.1359,-0.0441,0.0561,0.1647,0.1965,0.2747,0.4398,0.4946,0.5459,0.6258,0.7093,0.7764,0.8187,0.8686,0.9062,0.9355,0.9563,0.9753,0.9911,1.0019,1.0127,1.0244,1.0283,1.0312,1.0457,1.0736,1.0756,1.0435,1.0218,0.9959,0.9701,0.9425,0.9282,0.9339,0.9552,0.9684,0.971,0.9828,0.988,0.988,0.988,0.988,1.0018,1.085,1.1989,1.2965,1.3369,1.3459,1.3514,1.3594,1.3728,1.3987,1.4138,1.4287,-2.4059,-2.3289,-2.2935,-2.2267,-2.1423,-2.0869,-2.0592,-2.0492,-1.9974,-1.9698,-1.9522,-1.8581,-1.8154,-1.8129,-1.8053,-1.799,-1.799,-1.8041,-1.8016,-1.7953,-1.7539,-1.73,-1.7262,-1.6785,-1.6454,-1.633,-1.6343,-1.6151,-1.5825,-1.5205,-1.4488,-1.3761,-1.3767,-1.3458,-1.2907,-1.2603,-1.2246,-1.181,-1.1301,-1.0634,-0.9953,-0.9575,-0.9222,-0.885,-0.8873,-0.8625,-0.8003,-0.7471,-0.7314,-0.7439,-0.7051,-0.6763,-0.6672,-0.6338,-0.596,-0.5604,-0.5087,-0.4274,-0.2936,-0.2094,-0.1188,-0.0221,0.0703,0.1804,0.3128,0.3524,0.3933,0.4646,0.5236,0.5919,0.6776,0.7376,0.7796,0.8115,0.8659,0.9016,0.9105,0.9435,0.9723,0.9723,0.9911,1.0059,1.0118,1.0244,1.04,1.0582,1.0871,1.104,1.0915,1.05,1.0099,0.9901,0.9579,0.9383,0.947,0.9579,0.971,0.9776,0.9854,0.988,0.988,0.988,0.988,1.0006,1.0921,1.2099,1.3037,1.348,1.3527,1.3615,1.3728,1.3888,1.417,1.43,1.4332,-2.4302,-2.3861,-2.3457,-2.2776,-2.1945,-2.138,-2.1154,-2.1129,-2.0916,-2.0627,-2.0288,-1.9849,-1.9296,-1.8681,-1.8367,-1.8059,-1.7877,-1.8119,-1.8302,-1.8447,-1.805,-1.7865,-1.784,-1.7547,-1.7352,-1.7281,-1.6848,-1.6565,-1.6242,-1.5475,-1.4859,-1.4476,-1.4021,-1.3574,-1.313,-1.2529,-1.206,-1.1669,-1.1274,-1.0788,-1.0245,-0.9891,-0.9553,-0.9152,-0.8988,-0.8581,-0.7926,-0.7301,-0.6935,-0.6912,-0.646,-0.6113,-0.5814,-0.5385,-0.4948,-0.4496,-0.3853,-0.2938,-0.1618,-0.0786,-0.0,0.0816,0.1681,0.2569,0.3395,0.3887,0.4353,0.4886,0.5429,0.6025,0.6755,0.7245,0.7663,0.7987,0.8406,0.8741,0.8975,0.9226,0.9475,0.9683,0.9881,1.001,1.0127,1.0312,1.0505,1.0708,1.0995,1.1147,1.1132,1.084,1.0362,0.9776,0.9629,0.9643,0.9554,0.9617,0.971,0.9776,0.9854,0.988,0.9905,0.9905,0.988,0.988,1.1,1.2203,1.3467,1.3648,1.3708,1.3762,1.396,1.4138,1.43,1.4461,1.4556,-2.4864,-2.453,-2.387,-2.3208,-2.2498,-2.1945,-2.1707,-2.1681,-2.1556,-2.1255,-2.0957,-2.0945,-2.0451,-1.9673,-1.897,-1.8471,-1.8251,-1.8484,-1.8803,-1.8951,-1.8591,-1.8382,-1.8369,-1.8086,-1.7989,-1.7784,-1.7251,-1.675,-1.6373,-1.5672,-1.5165,-1.4846,-1.4136,-1.3656,-1.332,-1.2648,-1.2094,-1.1808,-1.1388,-1.0965,-1.0492,-1.0117,-0.9659,-0.9152,-0.8891,-0.8378,-0.7618,-0.7014,-0.6558,-0.6313,-0.5833,-0.5408,-0.4997,-0.4543,-0.3984,-0.3416,-0.2646,-0.1756,-0.0613,0.0153,0.0866,0.1616,0.2367,0.3035,0.3543,0.4091,0.4621,0.5084,0.5536,0.6049,0.6562,0.7027,0.744,0.7765,0.8103,0.8455,0.8805,0.9056,0.9297,0.9554,0.9823,1.0049,1.0196,1.0428,1.0659,1.0822,1.1023,1.1185,1.1196,1.1064,1.0729,0.9875,0.9956,0.99,0.9632,0.9617,0.971,0.9802,0.988,0.9905,0.9919,0.9905,0.9905,1.0006,1.1105,1.2213,1.3467,1.3815,1.3888,1.3974,1.4138,1.4365,1.4447,1.4651,1.4808,-2.5895,-2.5216,-2.4098,-2.3428,-2.299,-2.2535,-2.2297,-2.2297,-2.1769,-2.1493,-2.1455,-2.1455,-2.1418,-2.1204,-2.0188,-1.9736,-1.9723,-1.9723,-1.9736,-1.9673,-1.9246,-1.8896,-1.8722,-1.8238,-1.7883,-1.7764,-1.7484,-1.6883,-1.6018,-1.5736,-1.5272,-1.4452,-1.4107,-1.3815,-1.3538,-1.3097,-1.2754,-1.2329,-1.1831,-1.139,-1.0839,-1.0281,-0.9512,-0.874,-0.8584,-0.8126,-0.7212,-0.654,-0.6081,-0.5845,-0.5323,-0.4873,-0.4522,-0.3929,-0.3264,-0.2498,-0.1557,-0.0714,-0.0107,0.0637,0.1311,0.2087,0.269,0.3271,0.3866,0.4451,0.4908,0.5195,0.5595,0.6017,0.6483,0.6842,0.7147,0.7482,0.7897,0.8234,0.8521,0.8935,0.9217,0.9368,0.9774,1.0127,1.0351,1.0505,1.0697,1.0888,1.105,1.1223,1.1207,1.1168,1.108,1.0833,1.0534,1.0165,0.9778,0.9684,0.9762,0.9828,0.9905,0.9931,0.9944,0.9944,0.9931,1.0273,1.1448,1.2546,1.3544,1.4013,1.4059,1.4157,1.4287,1.4479,1.4606,1.4732,1.4902,-2.5928,-2.5299,-2.4844,-2.4518,-2.4155,-2.3627,-2.3389,-2.3339,-2.2786,-2.2334,-2.2046,-2.202,-2.1832,-2.1455,-2.1066,-2.0774,-2.0523,-2.0774,-2.0715,-2.0373,-2.0082,-1.9679,-1.9177,-1.8802,-1.8576,-1.8437,-1.7843,-1.6993,-1.6052,-1.5541,-1.5066,-1.4559,-1.3994,-1.3563,-1.3228,-1.2842,-1.252,-1.2126,-1.1569,-1.1015,-1.0454,-0.9888,-0.9247,-0.8541,-0.826,-0.7846,-0.7235,-0.6352,-0.5688,-0.5511,-0.5085,-0.4569,-0.4012,-0.3183,-0.2517,-0.1962,-0.1065,-0.0279,0.0386,0.121,0.1916,0.2489,0.3074,0.3567,0.4085,0.462,0.5052,0.5436,0.5816,0.6244,0.6648,0.678,0.6979,0.7356,0.7746,0.8134,0.8529,0.8854,0.9177,0.9439,0.9883,1.0283,1.0505,1.0697,1.085,1.1023,1.126,1.1298,1.1314,1.1519,1.1768,1.1903,1.1607,1.1064,1.0297,0.9921,0.9776,0.9854,0.9931,0.9982,1.0008,1.0123,1.0148,1.0597,1.1747,1.3068,1.4032,1.4176,1.4222,1.4369,1.4529,1.4669,1.4763,1.4887,1.5056,-2.6199,-2.5602,-2.5371,-2.5218,-2.4974,-2.4443,-2.4255,-2.4217,-2.3841,-2.3364,-2.2924,-2.2849,-2.2548,-2.2083,-2.202,-2.1856,-2.1535,-2.145,-2.1181,-2.0907,-2.0735,-2.0348,-1.9812,-1.9443,-1.9132,-1.8887,-1.8089,-1.7149,-1.6262,-1.5665,-1.506,-1.4482,-1.3875,-1.332,-1.2871,-1.2471,-1.2126,-1.1678,-1.1175,-1.0608,-1.0035,-0.9517,-0.889,-0.8309,-0.7824,-0.745,-0.7074,-0.6046,-0.5395,-0.5171,-0.4739,-0.4132,-0.3294,-0.2519,-0.185,-0.1403,-0.0617,0.0224,0.0953,0.168,0.235,0.2798,0.3355,0.3868,0.4328,0.4794,0.528,0.565,0.6086,0.6471,0.6823,0.6963,0.7106,0.7416,0.773,0.8101,0.8512,0.8814,0.9177,0.9607,1.004,1.0351,1.0572,1.0774,1.0964,1.1195,1.141,1.1448,1.1485,1.1785,1.2282,1.2614,1.2234,1.1631,1.1067,1.0725,1.0193,1.0133,1.0134,1.0135,1.0379,1.0457,1.0677,1.112,1.2084,1.3458,1.4176,1.4351,1.4465,1.4578,1.4704,1.4873,1.498,1.5086,1.528,-2.679,-2.6076,-2.5563,-2.5396,-2.5394,-2.4985,-2.482,-2.482,-2.4745,-2.4368,-2.3916,-2.3954,-2.3627,-2.3213,-2.3015,-2.298,-2.266,-2.1795,-2.1312,-2.1212,-2.1043,-2.0767,-2.0361,-1.9929,-1.94,-1.8939,-1.8124,-1.7268,-1.6482,-1.5977,-1.5248,-1.4287,-1.3709,-1.3161,-1.2499,-1.2104,-1.1678,-1.1267,-1.071,-1.0138,-0.9614,-0.9093,-0.8508,-0.7877,-0.7246,-0.682,-0.6647,-0.5769,-0.5171,-0.4842,-0.4298,-0.3466,-0.2464,-0.1962,-0.1459,-0.0729,-0.0056,0.0729,0.1628,0.2018,0.2464,0.3019,0.3522,0.4015,0.4604,0.5039,0.5462,0.5901,0.6262,0.6654,0.7028,0.7381,0.7615,0.7632,0.7973,0.8252,0.8498,0.8806,0.9266,0.9862,1.0215,1.0428,1.0649,1.085,1.1088,1.1362,1.1511,1.1597,1.1708,1.2004,1.2389,1.2671,1.2518,1.2038,1.179,1.1555,1.0916,1.0452,1.0428,1.0442,1.1013,1.1251,1.1422,1.1858,1.2936,1.4242,1.4401,1.4543,1.4669,1.478,1.4935,1.5143,1.5363,1.5527,1.5619,-2.7407,-2.6729,-2.6563,-2.6378,-2.6097,-2.5548,-2.5347,-2.531,-2.4983,-2.4732,-2.4582,-2.4569,-2.4456,-2.4154,-2.3779,-2.3468,-2.3344,-2.2469,-2.1834,-2.1528,-2.1316,-2.0947,-2.0379,-1.9889,-1.9229,-1.8395,-1.7711,-1.709,-1.6451,-1.5815,-1.5202,-1.4542,-1.3675,-1.2987,-1.2461,-1.182,-1.1276,-1.0863,-1.0285,-0.9762,-0.9309,-0.8784,-0.8203,-0.7503,-0.6864,-0.6322,-0.5769,-0.5281,-0.4787,-0.4298,-0.3855,-0.3132,-0.2238,-0.1906,-0.1346,-0.0505,0.0168,0.0897,0.1684,0.2073,0.2464,0.3074,0.3633,0.4184,0.4791,0.5234,0.5697,0.6172,0.6605,0.6987,0.7454,0.7902,0.8141,0.8117,0.8432,0.8799,0.9157,0.9581,0.9867,1.0058,1.0322,1.0582,1.0812,1.105,1.1298,1.1511,1.1734,1.1918,1.1892,1.215,1.2496,1.2789,1.2614,1.2531,1.2346,1.2209,1.189,1.1417,1.1201,1.1126,1.1629,1.2047,1.2234,1.2783,1.3854,1.4436,1.4641,1.4746,1.4871,1.5037,1.5188,1.5482,1.5833,1.6058,1.6226,-2.7629,-2.7117,-2.7024,-2.682,-2.6496,-2.605,-2.5925,-2.5875,-2.5573,-2.531,-2.5146,-2.5109,-2.4918,-2.4653,-2.4188,-2.3912,-2.371,-2.2955,-2.2418,-2.2018,-2.1692,-2.1247,-2.0604,-1.9867,-1.8948,-1.7962,-1.7384,-1.6874,-1.6239,-1.5659,-1.5091,-1.4465,-1.3687,-1.2885,-1.2272,-1.1601,-1.1019,-1.0443,-0.988,-0.9361,-0.889,-0.8368,-0.7777,-0.7074,-0.6485,-0.5832,-0.5171,-0.4787,-0.4349,-0.3907,-0.3299,-0.2631,-0.1961,-0.157,-0.0954,-0.0168,0.0617,0.1346,0.1908,0.2354,0.2796,0.3352,0.3965,0.4463,0.5014,0.5458,0.5946,0.6436,0.6815,0.7311,0.7836,0.8315,0.8611,0.8785,0.896,0.9369,0.9827,1.0277,1.0484,1.0512,1.0696,1.0909,1.1054,1.125,1.1522,1.1697,1.1932,1.2113,1.2089,1.2294,1.2603,1.2814,1.2822,1.2787,1.2814,1.2806,1.2814,1.2484,1.216,1.2112,1.2318,1.2668,1.2947,1.3539,1.4477,1.4668,1.4873,1.4932,1.5039,1.5233,1.5587,1.6041,1.6515,1.6787,1.6971,-2.7667,-2.7259,-2.7152,-2.6947,-2.6622,-2.6515,-2.6452,-2.6496,-2.6458,-2.6076,-2.5724,-2.5649,-2.5278,-2.476,-2.4595,-2.4325,-2.394,-2.3212,-2.2743,-2.2372,-2.2001,-2.1409,-2.0802,-1.9832,-1.8855,-1.7905,-1.7245,-1.6622,-1.5946,-1.5507,-1.4926,-1.4146,-1.3648,-1.2996,-1.2035,-1.1411,-1.0751,-1.0053,-0.9501,-0.8896,-0.8362,-0.7783,-0.7246,-0.6647,-0.6105,-0.5449,-0.4846,-0.4184,-0.3799,-0.3574,-0.2742,-0.213,-0.1628,-0.101,-0.0336,0.0336,0.129,0.185,0.2296,0.274,0.3352,0.391,0.4411,0.4912,0.5352,0.5782,0.6218,0.6707,0.7085,0.7521,0.8115,0.8586,0.9026,0.957,0.9722,0.9979,1.0486,1.0912,1.106,1.1074,1.1236,1.1428,1.1333,1.1508,1.1764,1.1968,1.2113,1.2222,1.233,1.2461,1.2626,1.2814,1.3012,1.3076,1.307,1.3257,1.3245,1.322,1.3006,1.3046,1.3037,1.3341,1.3646,1.4262,1.4718,1.4925,1.51,1.5217,1.5511,1.5895,1.6325,1.6799,1.7187,1.7522,1.7811,-2.8594,-2.8267,-2.8125,-2.767,-2.7163,-2.7067,-2.6816,-2.6559,-2.6533,-2.6433,-2.6226,-2.6239,-2.599,-2.5741,-2.5185,-2.4731,-2.4177,-2.3257,-2.2515,-2.2031,-2.1463,-2.0903,-2.0331,-1.9563,-1.8827,-1.8114,-1.7144,-1.6307,-1.5819,-1.5231,-1.461,-1.4028,-1.3325,-1.2704,-1.2118,-1.1068,-1.0354,-0.9897,-0.915,-0.8521,-0.8037,-0.7456,-0.6869,-0.6213,-0.5614,-0.4956,-0.4239,-0.3352,-0.2798,-0.2629,-0.2355,-0.174,-0.1066,-0.0449,0.0168,0.0841,0.1682,0.2355,0.2633,0.313,0.3741,0.4298,0.4798,0.5238,0.5786,0.6114,0.649,0.6923,0.7354,0.7783,0.8321,0.8798,0.9524,1.0395,1.0545,1.082,1.13,1.1528,1.165,1.1711,1.193,1.1975,1.2009,1.2119,1.22,1.2226,1.2316,1.2413,1.2496,1.2615,1.2779,1.3012,1.3163,1.3288,1.3399,1.3581,1.3735,1.3795,1.3813,1.3925,1.3916,1.4038,1.4322,1.4676,1.4956,1.5165,1.544,1.563,1.6043,1.6549,1.701,1.7474,1.8,1.838,1.8683,-2.8977,-2.8703,-2.8499,-2.8091,-2.7607,-2.7381,-2.7105,-2.6804,-2.6553,-2.6521,-2.6465,-2.6408,-2.627,-2.6025,-2.544,-2.5006,-2.4572,-2.3293,-2.2538,-2.2122,-2.1048,-2.027,-1.9836,-1.9329,-1.8751,-1.8019,-1.7163,-1.6311,-1.5553,-1.4958,-1.436,-1.3683,-1.3075,-1.2484,-1.1921,-1.108,-1.0178,-0.9584,-0.8834,-0.8226,-0.7568,-0.702,-0.6426,-0.5723,-0.512,-0.4463,-0.3522,-0.2798,-0.241,-0.224,-0.185,-0.1234,-0.0505,0.0112,0.0729,0.1457,0.2186,0.2689,0.3077,0.363,0.4184,0.4739,0.5179,0.5673,0.6109,0.649,0.6869,0.73,0.7676,0.8103,0.8633,0.9211,0.9991,1.0769,1.1175,1.1557,1.1974,1.2149,1.2248,1.2398,1.2567,1.268,1.2582,1.2798,1.2776,1.2695,1.2827,1.2746,1.2663,1.2804,1.2978,1.3198,1.3335,1.3438,1.3527,1.3708,1.3974,1.4072,1.4268,1.4429,1.4511,1.456,1.4686,1.4887,1.5193,1.549,1.5797,1.6147,1.6696,1.7176,1.7688,1.8182,1.8708,1.8937,1.9286,-2.9014,-2.8797,-2.8664,-2.8407,-2.8122,-2.7607,-2.7344,-2.7168,-2.6691,-2.6465,-2.6396,-2.627,-2.6062,-2.5828,-2.5463,-2.5146,-2.4874,-2.3328,-2.2502,-2.1744,-2.0588,-1.9671,-1.932,-1.909,-1.8476,-1.7688,-1.7261,-1.6271,-1.536,-1.4809,-1.4082,-1.3358,-1.283,-1.2263,-1.1556,-1.0876,-1.0165,-0.9282,-0.8527,-0.7766,-0.7062,-0.646,-0.5823,-0.5226,-0.446,-0.3744,-0.2912,-0.2354,-0.2127,-0.2127,-0.1288,-0.0561,0.0056,0.0673,0.1457,0.224,0.2631,0.3077,0.3627,0.4239,0.4736,0.5179,0.5727,0.6218,0.6544,0.6918,0.7348,0.7777,0.8109,0.8533,0.9113,0.9784,1.0454,1.1074,1.1536,1.1927,1.2323,1.2725,1.2916,1.2909,1.3202,1.3324,1.3364,1.3433,1.357,1.3341,1.3392,1.3215,1.3107,1.3104,1.3251,1.3378,1.3493,1.3539,1.3674,1.3841,1.4092,1.4287,1.4525,1.4683,1.4763,1.4811,1.4887,1.5143,1.5721,1.6063,1.6241,1.673,1.7341,1.7896,1.8425,1.8952,1.945,1.9405,1.9585,-3.001,-2.9796,-2.958,-2.9252,-2.8712,-2.816,-2.767,-2.7243,-2.6703,-2.6408,-2.627,-2.6213,-2.591,-2.5453,-2.5312,-2.4957,-2.4304,-2.3098,-2.1891,-2.0225,-1.9687,-1.8875,-1.8539,-1.8405,-1.8142,-1.7552,-1.6835,-1.6127,-1.5318,-1.4457,-1.3609,-1.2933,-1.2313,-1.1772,-1.1181,-1.0472,-0.9832,-0.9075,-0.8109,-0.7321,-0.6595,-0.5908,-0.5238,-0.4629,-0.3688,-0.2968,-0.2408,-0.168,-0.1008,-0.056,-0.028,0.0168,0.0785,0.1569,0.2184,0.2631,0.3186,0.3685,0.4239,0.4787,0.5336,0.5782,0.6213,0.6707,0.7074,0.7402,0.7777,0.8203,0.8533,0.9008,0.9688,1.036,1.0922,1.1427,1.1877,1.2323,1.2725,1.3007,1.3215,1.3533,1.3854,1.4136,1.3979,1.417,1.4222,1.4094,1.3927,1.3751,1.3619,1.3543,1.3588,1.3702,1.3796,1.3877,1.3874,1.4072,1.4319,1.4607,1.4872,1.5117,1.5165,1.5039,1.5129,1.5672,1.6427,1.6667,1.691,1.7522,1.8197,1.8663,1.9056,1.9375,1.9615,1.969,1.9705,-3.0292,-3.0075,-2.9869,-2.9465,-2.8888,-2.8348,-2.7783,-2.7243,-2.6634,-2.6339,-2.6201,-2.605,-2.5688,-2.5312,-2.5028,-2.4517,-2.3626,-2.2364,-2.0895,-1.9533,-1.8942,-1.8472,-1.8008,-1.7735,-1.752,-1.7207,-1.6569,-1.5892,-1.5112,-1.4263,-1.3394,-1.2569,-1.1981,-1.1383,-1.0758,-1.0013,-0.9377,-0.8606,-0.7722,-0.691,-0.6134,-0.5409,-0.4514,-0.3755,-0.2912,-0.2354,-0.1681,-0.0953,-0.0224,0.0393,0.084,0.1232,0.1569,0.2186,0.2689,0.313,0.3685,0.4291,0.4842,0.534,0.5832,0.6273,0.6756,0.7074,0.745,0.7777,0.8209,0.8633,0.8949,0.942,1.0249,1.0761,1.1276,1.1728,1.2184,1.2569,1.2958,1.318,1.3467,1.3858,1.4258,1.4517,1.462,1.4792,1.4799,1.4677,1.4866,1.4651,1.4296,1.4212,1.4034,1.4076,1.4158,1.417,1.4152,1.4287,1.4543,1.49,1.5255,1.5541,1.5754,1.5554,1.5309,1.6087,1.6919,1.7459,1.7777,1.8425,1.8847,1.9176,1.9465,1.963,1.9705,1.9705,1.9705,-3.0292,-3.0075,-2.9856,-2.9465,-2.8888,-2.8335,-2.7783,-2.7172,-2.6507,-2.6144,-2.605,-2.5758,-2.5334,-2.498,-2.453,-2.3895,-2.2797,-2.1468,-1.9995,-1.905,-1.8539,-1.8066,-1.7666,-1.7185,-1.676,-1.663,-1.6167,-1.5566,-1.4816,-1.4016,-1.315,-1.2329,-1.1586,-1.092,-1.0219,-0.9588,-0.8902,-0.8043,-0.725,-0.6485,-0.5624,-0.4893,-0.3972,-0.2983,-0.224,-0.168,-0.0896,-0.0224,0.0449,0.1122,0.1961,0.2408,0.2633,0.2742,0.3132,0.368,0.4236,0.4791,0.5336,0.5832,0.6322,0.6756,0.7187,0.7557,0.7883,0.8256,0.8679,0.9054,0.9465,0.9932,1.0659,1.1175,1.1569,1.1977,1.2332,1.2706,1.3132,1.342,1.3716,1.4046,1.4466,1.4812,1.5084,1.5283,1.5302,1.5338,1.5494,1.5542,1.5184,1.4966,1.4848,1.4849,1.4972,1.5165,1.5162,1.5139,1.5319,1.5528,1.5855,1.6114,1.6419,1.6349,1.6293,1.6681,1.7371,1.8004,1.844,1.8787,1.9211,1.9585,1.9705,1.9705,1.9705,1.9705,1.9705,-3.0228,-2.9856,-2.9792,-2.9453,-2.8875,-2.8335,-2.7673,-2.7018,-2.6412,-2.5992,-2.5688,-2.5453,-2.4873,-2.4249,-2.3781,-2.2855,-2.1526,-2.0307,-1.9458,-1.8637,-1.8134,-1.7735,-1.7107,-1.6621,-1.6202,-1.5859,-1.5568,-1.5067,-1.4379,-1.355,-1.2803,-1.211,-1.1162,-1.0296,-0.973,-0.9066,-0.8339,-0.755,-0.674,-0.5919,-0.5119,-0.4317,-0.3417,-0.237,-0.1629,-0.0896,-0.0224,0.0449,0.1177,0.2074,0.2465,0.291,0.3297,0.3461,0.3793,0.4239,0.4736,0.5285,0.5837,0.6322,0.6756,0.7182,0.7723,0.8156,0.8468,0.8844,0.9204,0.9621,1.0087,1.0608,1.0972,1.1477,1.1977,1.2332,1.2569,1.2842,1.342,1.38,1.4035,1.4373,1.4743,1.5119,1.539,1.5659,1.5736,1.5831,1.6008,1.6237,1.6185,1.6004,1.5931,1.5923,1.5922,1.6154,1.632,1.6319,1.6372,1.6517,1.6752,1.6953,1.7173,1.7239,1.7394,1.7789,1.8227,1.8832,1.9166,1.9241,1.939,1.966,1.9705,1.9705,1.9705,1.9705,1.9705,-3.0152,-2.9754,-2.9478,-2.9013,-2.8461,-2.7836,-2.7142,-2.6586,-2.6091,-2.5688,-2.5465,-2.5229,-2.4614,-2.3746,-2.3279,-2.2154,-2.0525,-1.9468,-1.8798,-1.8202,-1.7657,-1.7245,-1.6682,-1.6202,-1.563,-1.5204,-1.4848,-1.4482,-1.397,-1.3194,-1.252,-1.1784,-1.0792,-0.9932,-0.922,-0.8417,-0.7666,-0.6907,-0.6128,-0.5331,-0.4544,-0.3638,-0.2627,-0.167,-0.0905,-0.0168,0.0505,0.1289,0.1905,0.2521,0.2912,0.3463,0.3904,0.4291,0.4515,0.4849,0.523,0.5723,0.6268,0.6756,0.7241,0.7723,0.8203,0.8626,0.8949,0.9316,0.9777,1.0241,1.0608,1.1175,1.1528,1.1868,1.2274,1.2618,1.2803,1.3142,1.3658,1.4129,1.4455,1.4686,1.4971,1.53,1.557,1.5836,1.61,1.6318,1.6491,1.6693,1.696,1.6896,1.6718,1.6684,1.6651,1.677,1.6987,1.7142,1.7241,1.7401,1.7646,1.7802,1.7988,1.8086,1.8411,1.8812,1.9301,1.948,1.951,1.9495,1.963,1.9705,1.9705,1.9705,1.9705,1.9705,1.9741,-3.0075,-2.9578,-2.9126,-2.8474,-2.7836,-2.7242,-2.6698,-2.6054,-2.5688,-2.5453,-2.5229,-2.4897,-2.4143,-2.3223,-2.2313,-2.1144,-1.9534,-1.8795,-1.8221,-1.7803,-1.7176,-1.6751,-1.6263,-1.5771,-1.5133,-1.4697,-1.4049,-1.3615,-1.347,-1.2785,-1.2078,-1.1278,-1.0431,-0.9541,-0.8722,-0.7797,-0.6981,-0.6218,-0.5488,-0.4757,-0.3776,-0.2757,-0.1774,-0.0764,-0.0171,0.0505,0.1233,0.1961,0.2519,0.2963,0.3463,0.407,0.4567,0.5011,0.5285,0.5449,0.5719,0.6209,0.675,0.7182,0.7664,0.8203,0.8672,0.9047,0.942,0.9895,1.0411,1.0972,1.1276,1.1578,1.1977,1.2274,1.2618,1.291,1.3094,1.3372,1.3999,1.4512,1.4869,1.5096,1.53,1.548,1.5748,1.6057,1.6306,1.6479,1.665,1.6863,1.7115,1.7323,1.7304,1.7317,1.7293,1.7323,1.7512,1.7777,1.7906,1.8121,1.8394,1.8632,1.8865,1.9034,1.9319,1.9405,1.9495,1.963,1.969,1.9705,1.9705,1.9705,1.9705,1.9705,1.9705,1.9726,1.9762,-2.9847,-2.9038,-2.8938,-2.8249,-2.7229,-2.6984,-2.6448,-2.5712,-2.5453,-2.5253,-2.5004,-2.4143,-2.327,-2.2136,-2.0447,-1.9458,-1.8843,-1.8329,-1.7784,-1.7304,-1.6821,-1.6342,-1.585,-1.5267,-1.4697,-1.4122,-1.3404,-1.3039,-1.2746,-1.215,-1.1471,-1.0801,-0.9785,-0.8834,-0.8185,-0.7104,-0.6226,-0.5491,-0.4824,-0.3909,-0.2842,-0.1809,-0.091,-0.0177,0.0517,0.1236,0.1962,0.2519,0.291,0.3519,0.4073,0.4625,0.5117,0.555,0.5991,0.6263,0.6485,0.6593,0.7182,0.7605,0.8137,0.8679,0.9093,0.9517,0.9991,1.0454,1.1015,1.1528,1.1728,1.2017,1.2363,1.2696,1.3035,1.318,1.3334,1.3763,1.4337,1.5017,1.5379,1.5457,1.5647,1.5736,1.5913,1.6219,1.6479,1.6637,1.6808,1.7031,1.7323,1.7611,1.7828,1.7855,1.7979,1.8024,1.81,1.8332,1.8506,1.8796,1.8986,1.9271,1.9337,1.9417,1.9564,1.963,1.9705,1.9726,1.9726,1.9726,1.9741,1.9741,1.9741,1.9741,1.9705,1.9726,1.9797,-2.9149,-2.8875,-2.8113,-2.7503,-2.6959,-2.6448,-2.5895,-2.5489,-2.5253,-2.4969,-2.4517,-2.372,-2.2509,-2.0964,-1.9469,-1.8751,-1.8269,-1.7794,-1.7382,-1.6899,-1.6412,-1.5921,-1.5417,-1.4768,-1.4129,-1.347,-1.2813,-1.215,-1.1861,-1.1409,-1.0887,-1.0215,-0.9109,-0.8221,-0.754,-0.6384,-0.5519,-0.4758,-0.3956,-0.2939,-0.1905,-0.0962,-0.0125,0.0483,0.1347,0.2002,0.2533,0.3019,0.3463,0.407,0.4677,0.5222,0.5719,0.6154,0.6539,0.7079,0.7235,0.7391,0.7658,0.8131,0.8666,0.9197,0.9673,1.0138,1.071,1.1116,1.1569,1.2126,1.2224,1.2471,1.2793,1.3074,1.342,1.361,1.3668,1.4129,1.4697,1.5424,1.5925,1.5925,1.6001,1.6088,1.6219,1.6436,1.6735,1.6947,1.7115,1.7323,1.7652,1.7975,1.8189,1.8344,1.8569,1.8754,1.8823,1.8972,1.9031,1.9214,1.9265,1.9507,1.9558,1.9675,1.9705,1.9726,1.9726,1.9726,1.9762,1.9762,1.9741,1.9741,1.9741,1.9777,1.9777,1.9884,1.9955,-2.8195,-2.8349,-2.7379,-2.6897,-2.6606,-2.5834,-2.5465,-2.5241,-2.4969,-2.4541,-2.3761,-2.2801,-2.1337,-1.9949,-1.8971,-1.8269,-1.7803,-1.7304,-1.6899,-1.6491,-1.5929,-1.5346,-1.4848,-1.4201,-1.355,-1.2966,-1.2144,-1.1484,-1.0887,-1.0357,-0.9986,-0.9513,-0.8433,-0.7539,-0.6635,-0.5658,-0.4755,-0.3892,-0.2958,-0.188,-0.0934,-0.013,0.0637,0.1363,0.2104,0.2733,0.3017,0.3527,0.4125,0.4677,0.5222,0.5823,0.6372,0.6756,0.7187,0.767,0.7937,0.8249,0.8455,0.8823,0.9242,0.9769,1.0344,1.0913,1.141,1.1769,1.2058,1.2559,1.2657,1.2949,1.3276,1.3515,1.38,1.4057,1.4208,1.4605,1.5051,1.5736,1.6231,1.6231,1.6349,1.6607,1.6693,1.6778,1.6947,1.7199,1.7419,1.7597,1.7949,1.8347,1.8542,1.8659,1.8851,1.9101,1.9265,1.9376,1.9538,1.9611,1.9647,1.9683,1.9777,1.9741,1.9705,1.9726,1.9762,1.9797,1.9884,1.9812,1.9741,1.9812,1.9848,1.9848,1.9884,1.999,2.0111,-2.713,-2.7155,-2.6996,-2.6461,-2.5679,-2.5477,-2.5241,-2.4969,-2.4478,-2.383,-2.295,-2.1348,-1.996,-1.8971,-1.8329,-1.7794,-1.7245,-1.6821,-1.6412,-1.585,-1.5275,-1.4768,-1.4266,-1.3622,-1.2973,-1.2305,-1.1558,-1.0738,-0.9986,-0.9301,-0.9003,-0.8637,-0.7629,-0.6777,-0.5853,-0.49,-0.3835,-0.2956,-0.1883,-0.0941,-0.0133,0.0657,0.1482,0.2285,0.2739,0.3105,0.3674,0.4194,0.4677,0.5226,0.5823,0.6421,0.6972,0.7402,0.783,0.8262,0.8685,0.8995,0.9302,0.9458,0.9821,1.0395,1.1006,1.1578,1.1927,1.2274,1.2608,1.2939,1.3084,1.343,1.3763,1.4057,1.428,1.4523,1.4708,1.4971,1.5457,1.6032,1.6448,1.6522,1.6693,1.6905,1.7144,1.7227,1.7282,1.7488,1.7788,1.8003,1.8268,1.8581,1.8798,1.895,1.9026,1.925,1.9501,1.9647,1.9705,1.9777,1.9827,1.9863,1.9919,1.9848,1.9777,1.9812,1.9884,1.9955,1.999,1.9955,1.9955,1.9955,1.999,2.0025,2.0096,2.0166,2.027,-2.6346,-2.6135,-2.6039,-2.5776,-2.5382,-2.5253,-2.4897,-2.455,-2.4177,-2.305,-2.1659,-2.0296,-1.9216,-1.8368,-1.7794,-1.7235,-1.6821,-1.6351,-1.5859,-1.5346,-1.484,-1.4266,-1.3688,-1.3032,-1.2305,-1.1706,-1.0887,-1.0218,-0.9544,-0.8546,-0.8102,-0.769,-0.6826,-0.5988,-0.5068,-0.4013,-0.2907,-0.1882,-0.0941,-0.0067,0.0738,0.1666,0.2428,0.2887,0.3354,0.3706,0.4274,0.4759,0.5305,0.5823,0.6426,0.702,0.7563,0.7984,0.8415,0.8896,0.9256,0.9673,1.0035,1.0138,1.0395,1.1108,1.1719,1.2175,1.2372,1.2706,1.3035,1.3324,1.3563,1.3905,1.414,1.443,1.4616,1.4937,1.5165,1.539,1.5869,1.6436,1.6705,1.6791,1.6947,1.7186,1.7434,1.7666,1.772,1.7774,1.8069,1.8361,1.8634,1.8851,1.904,1.9213,1.9288,1.9435,1.9669,1.9777,1.9884,1.9955,1.999,2.0025,2.0061,1.997,1.9919,1.9955,2.0025,2.0131,2.0166,2.0166,2.0131,2.0076,2.0131,2.0235,2.0304,2.0373,2.0553,-2.591,-2.5535,-2.5253,-2.5182,-2.5111,-2.4897,-2.455,-2.4009,-2.357,-2.2319,-2.0344,-1.9451,-1.8626,-1.7773,-1.7235,-1.6751,-1.6263,-1.578,-1.5275,-1.4776,-1.4201,-1.3688,-1.3025,-1.2365,-1.1706,-1.1037,-1.0293,-0.962,-0.8865,-0.794,-0.7291,-0.6648,-0.5882,-0.5038,-0.4239,-0.3049,-0.1817,-0.0873,-0.0067,0.0806,0.1614,0.2417,0.3207,0.3452,0.3987,0.4482,0.5008,0.549,0.5903,0.6455,0.7025,0.7557,0.809,0.8567,0.8995,0.9413,0.9829,1.0241,1.0557,1.0863,1.1167,1.1819,1.2255,1.2608,1.2852,1.318,1.3573,1.3752,1.4046,1.4337,1.4558,1.4834,1.5074,1.5345,1.539,1.5647,1.6175,1.6735,1.6918,1.7099,1.7295,1.7529,1.7801,1.8082,1.8201,1.8254,1.8489,1.8697,1.8851,1.9078,1.9302,1.945,1.9545,1.969,1.9833,1.999,2.0096,2.0166,2.02,2.0185,2.02,2.0131,2.0061,2.0131,2.02,2.0339,2.0339,2.0339,2.0235,2.0181,2.027,2.0392,2.0509,2.0608,2.0897,-2.5639,-2.5312,-2.4874,-2.4731,-2.4601,-2.4334,-2.3948,-2.3436,-2.2556,-2.1229,-1.9532,-1.8527,-1.7783,-1.7235,-1.6742,-1.6184,-1.563,-1.5125,-1.4617,-1.4129,-1.355,-1.2893,-1.2298,-1.1706,-1.1037,-1.0293,-0.962,-0.8937,-0.8178,-0.7326,-0.6489,-0.5588,-0.4716,-0.3896,-0.3393,-0.1933,-0.0808,-0.0067,0.0672,0.1614,0.2421,0.2958,0.3544,0.4169,0.458,0.5061,0.5751,0.6129,0.6582,0.7116,0.7628,0.8143,0.8672,0.9152,0.9569,0.994,1.0411,1.0871,1.1276,1.1628,1.2067,1.2412,1.2745,1.3035,1.3276,1.3621,1.401,1.4186,1.4512,1.4789,1.5062,1.5334,1.557,1.5691,1.5736,1.5957,1.6522,1.7073,1.7295,1.7432,1.7679,1.7963,1.8228,1.8489,1.8644,1.8798,1.895,1.9064,1.9176,1.9339,1.956,1.969,1.9833,1.994,2.008,2.02,2.0304,2.0373,2.0407,2.0426,2.0392,2.0323,2.0289,2.0304,2.0441,2.061,2.0577,2.0509,2.0509,2.0509,2.046,2.0561,2.0677,2.0919,2.1288,-2.429,-2.3857,-2.3537,-2.319,-2.2945,-2.3191,-2.31,-2.2512,-2.1115,-1.9877,-1.8944,-1.7908,-1.7235,-1.6742,-1.6114,-1.5559,-1.5133,-1.4561,-1.4057,-1.3477,-1.282,-1.2298,-1.1626,-1.0962,-1.0288,-0.9771,-0.9089,-0.8327,-0.7714,-0.6692,-0.5851,-0.4975,-0.3543,-0.2675,-0.2283,-0.1283,-0.0269,0.047,0.1344,0.2153,0.2757,0.336,0.3956,0.4746,0.4993,0.5586,0.6577,0.6885,0.7354,0.7848,0.8371,0.8791,0.926,0.9739,1.0141,1.0545,1.0997,1.1578,1.2067,1.255,1.2735,1.2958,1.3172,1.3471,1.3736,1.415,1.4384,1.466,1.5108,1.5326,1.5367,1.576,1.6025,1.6088,1.6163,1.6436,1.6905,1.7406,1.7747,1.7801,1.7963,1.8335,1.8634,1.8836,1.9026,1.9191,1.9339,1.9398,1.9508,1.9581,1.9777,1.994,2.008,2.022,2.0339,2.0475,2.0577,2.0644,2.0677,2.0677,2.0628,2.0561,2.0494,2.0475,2.0711,2.0892,2.097,2.1017,2.0907,2.086,2.1114,2.1098,2.11,2.147,2.1937,-2.3494,-2.3012,-2.2673,-2.2263,-2.1893,-2.2262,-2.2013,-2.1176,-1.9846,-1.8844,-1.81,-1.7338,-1.6673,-1.6123,-1.5497,-1.5015,-1.4649,-1.3985,-1.3324,-1.2739,-1.215,-1.1552,-1.0887,-1.0288,-0.969,-0.9089,-0.8479,-0.771,-0.7007,-0.6033,-0.5066,-0.3946,-0.2403,-0.1653,-0.1218,-0.0471,0.0336,0.1209,0.2017,0.2621,0.3222,0.3823,0.4558,0.5193,0.5636,0.6109,0.713,0.7763,0.8171,0.872,0.915,0.9559,1.005,1.0485,1.0926,1.1408,1.2034,1.2661,1.3299,1.3741,1.3941,1.406,1.3952,1.41,1.4558,1.5115,1.5409,1.5705,1.5916,1.6158,1.6329,1.6679,1.6752,1.6841,1.6753,1.7038,1.7678,1.8229,1.8549,1.8536,1.856,1.8849,1.9094,1.9205,1.9398,1.956,1.9683,1.9786,1.9888,1.9995,2.0132,2.0323,2.0481,2.0618,2.0673,2.0679,2.0794,2.0925,2.1021,2.1181,2.0941,2.0893,2.0777,2.0726,2.0989,2.1247,2.1488,2.1552,2.1697,2.1923,2.2198,2.2053,2.1665,2.2085,2.2735,-2.3301,-2.2627,-2.2298,-2.1851,-2.1516,-2.1333,-2.0679,-1.9461,-1.8894,-1.81,-1.7185,-1.6769,-1.6123,-1.5488,-1.4856,-1.4441,-1.4015,-1.3273,-1.2592,-1.1922,-1.1329,-1.0738,-1.0143,-0.9544,-0.8937,-0.8322,-0.7702,-0.6915,-0.6136,-0.5136,-0.4162,-0.3043,-0.1651,-0.0812,-0.0202,0.0538,0.121,0.2017,0.2487,0.309,0.3689,0.4428,0.516,0.5738,0.6167,0.687,0.7833,0.8833,0.9338,0.9781,1.0136,1.0649,1.1182,1.16,1.2111,1.2758,1.3465,1.3994,1.4375,1.4749,1.519,1.5286,1.5256,1.5301,1.5534,1.6067,1.6427,1.6739,1.7051,1.7422,1.7745,1.7834,1.7945,1.7778,1.7503,1.8017,1.8747,1.9222,1.9514,1.9559,1.9488,1.9629,1.9744,1.9834,2.0161,2.0436,2.0591,2.0563,2.062,2.0527,2.0678,2.0864,2.1004,2.1061,2.1145,2.1485,2.168,2.2003,2.1843,2.1843,2.1537,2.1295,2.1071,2.1103,2.1327,2.1665,2.2232,2.2556,2.2752,2.2981,2.3226,2.3046,2.2687,2.3193,2.3783,-2.1659,-2.1192,-2.0864,-2.0333,-1.9807,-1.9274,-1.8773,-1.8389,-1.7839,-1.725,-1.6742,-1.6123,-1.5488,-1.4856,-1.4129,-1.3702,-1.3112,-1.2452,-1.1855,-1.118,-1.0507,-0.9911,-0.9301,-0.8685,-0.8089,-0.7536,-0.6827,-0.608,-0.5214,-0.4184,-0.2936,-0.1748,-0.0816,0.0067,0.0873,0.1681,0.222,0.2691,0.3025,0.3558,0.4223,0.4891,0.562,0.628,0.6544,0.733,0.8559,0.9907,1.0424,1.0488,1.0719,1.1179,1.1608,1.2175,1.2738,1.3549,1.4184,1.4714,1.5029,1.5455,1.5931,1.6423,1.6531,1.6653,1.6761,1.6959,1.7397,1.7763,1.8019,1.8323,1.8624,1.8763,1.8926,1.8878,1.8798,1.9306,1.9985,2.0329,2.0569,2.0387,2.0315,2.0454,2.0528,2.078,2.1129,2.1432,2.1556,2.1481,2.1383,2.1284,2.1506,2.1724,2.1843,2.2045,2.2453,2.283,2.2963,2.3062,2.2802,2.2688,2.272,2.2394,2.168,2.181,2.2606,2.2998,2.3292,2.3538,2.3687,2.3918,2.4116,2.3934,2.3901,2.4363,2.466,-2.0839,-2.0377,-2.0074,-1.9483,-1.8607,-1.792,-1.7588,-1.7373,-1.7097,-1.6673,-1.6123,-1.5426,-1.4776,-1.4129,-1.3397,-1.2813,-1.2291,-1.1552,-1.0881,-1.0185,-0.9728,-0.907,-0.8458,-0.7815,-0.7155,-0.6547,-0.5911,-0.5179,-0.4201,-0.3013,-0.1748,-0.0825,0.0067,0.0943,0.1748,0.2488,0.3092,0.336,0.3694,0.4092,0.4691,0.5422,0.6214,0.6868,0.7064,0.8037,0.9204,1.0611,1.1133,1.1228,1.156,1.2041,1.2621,1.3318,1.3942,1.4763,1.5269,1.5727,1.6116,1.6512,1.6838,1.7278,1.7815,1.8073,1.8103,1.822,1.8472,1.8722,1.8907,1.9162,1.9391,1.9664,1.9866,2.0054,2.0427,2.0767,2.1143,2.1473,2.1382,2.1155,2.1164,2.1329,2.1535,2.1838,2.1948,2.2041,2.2152,2.2207,2.217,2.2133,2.254,2.2959,2.3047,2.3167,2.3596,2.3863,2.38,2.3736,2.3572,2.3539,2.372,2.3654,2.3162,2.3556,2.4314,2.4463,2.443,2.4464,2.4597,2.4863,2.5096,2.5112,2.5144,2.5394,2.5628,-2.0373,-1.9889,-1.9694,-1.8818,-1.791,-1.73,-1.6803,-1.6444,-1.6234,-1.6,-1.5401,-1.4736,-1.4045,-1.3273,-1.2501,-1.182,-1.1284,-1.0625,-0.9939,-0.9055,-0.8697,-0.8105,-0.743,-0.6807,-0.6177,-0.5491,-0.4804,-0.4108,-0.3177,-0.2042,-0.096,0.0067,0.0807,0.1614,0.2488,0.3094,0.3627,0.4225,0.4556,0.4954,0.5491,0.6152,0.6806,0.7587,0.8166,0.9005,0.9901,1.0856,1.1817,1.2174,1.2581,1.308,1.3895,1.4585,1.5293,1.582,1.6248,1.6684,1.706,1.7431,1.7867,1.83,1.891,1.9105,1.9165,1.9166,1.9333,1.9573,1.9759,2.0054,2.0285,2.054,2.0745,2.0982,2.1285,2.1574,2.1865,2.2169,2.2279,2.2091,2.2142,2.2297,2.2511,2.2787,2.3047,2.2848,2.2961,2.3164,2.3196,2.3185,2.3551,2.4142,2.4246,2.4284,2.4407,2.4576,2.4413,2.4331,2.4332,2.4514,2.4813,2.4813,2.4729,2.5061,2.5394,2.5478,2.5478,2.5463,2.553,2.5848,2.6117,2.6352,2.6453,2.6369,2.6267,-1.8953,-1.8458,-1.7787,-1.7254,-1.6766,-1.6188,-1.5521,-1.4898,-1.4513,-1.4563,-1.4585,-1.3869,-1.3033,-1.2237,-1.1501,-1.087,-1.0278,-0.9691,-0.9031,-0.8322,-0.7761,-0.7102,-0.6295,-0.5771,-0.5093,-0.4517,-0.3844,-0.301,-0.1903,-0.0965,-0.0203,0.0605,0.1479,0.2287,0.2891,0.3426,0.4159,0.4888,0.5484,0.5815,0.628,0.6872,0.7587,0.8231,0.8941,0.9582,1.0471,1.1421,1.1988,1.2421,1.3025,1.3795,1.4815,1.54,1.5921,1.6389,1.6864,1.7312,1.7689,1.8061,1.8441,1.8857,1.9344,1.9656,1.9914,1.9978,2.0131,2.0385,2.0623,2.0871,2.1118,2.1313,2.1568,2.1759,2.1996,2.2292,2.2552,2.2799,2.304,2.3039,2.3061,2.3239,2.3442,2.3717,2.4011,2.4241,2.4453,2.4592,2.467,2.4687,2.4758,2.5239,2.5406,2.5461,2.5403,2.5359,2.5245,2.5429,2.5547,2.5731,2.5883,2.5731,2.5562,2.5981,2.6283,2.6183,2.6116,2.6216,2.6386,2.6589,2.6623,2.6657,2.6759,2.6708,2.6657,-1.819,-1.7822,-1.6878,-1.6182,-1.5661,-1.521,-1.4641,-1.4049,-1.351,-1.3324,-1.3282,-1.2738,-1.2096,-1.1326,-1.0596,-0.9956,-0.9394,-0.8795,-0.8184,-0.7593,-0.6828,-0.6111,-0.5377,-0.4708,-0.4229,-0.367,-0.267,-0.1736,-0.0756,-0.0136,0.0538,0.1412,0.2218,0.2688,0.3155,0.3959,0.4691,0.5422,0.628,0.6806,0.7134,0.7712,0.8296,0.8941,0.9582,1.0288,1.0975,1.1856,1.2413,1.3025,1.3692,1.4469,1.5303,1.5826,1.6285,1.674,1.719,1.7645,1.8018,1.8464,1.8863,1.9377,1.9733,2.008,2.0978,2.108,2.0908,2.1133,2.1059,2.1229,2.1506,2.1698,2.1902,2.2137,2.2402,2.2678,2.2918,2.3157,2.3304,2.3375,2.3528,2.3823,2.404,2.4284,2.4563,2.4682,2.5036,2.5301,2.547,2.5972,2.6131,2.6244,2.6379,2.6286,2.606,2.608,2.6132,2.6385,2.6537,2.6437,2.6286,2.6353,2.6469,2.6521,2.6572,2.6538,2.6538,2.6589,2.6657,2.6759,2.6759,2.6759,2.6927,2.7164,2.7301,-1.7613,-1.7359,-1.6326,-1.5387,-1.4495,-1.4241,-1.3884,-1.336,-1.2764,-1.2164,-1.1654,-1.1512,-1.1064,-1.0554,-0.988,-0.9328,-0.8672,-0.7969,-0.7381,-0.669,-0.5987,-0.5208,-0.4466,-0.3892,-0.3303,-0.2523,-0.1562,-0.0746,0.0135,0.0739,0.1479,0.2354,0.2824,0.3088,0.3823,0.4556,0.5289,0.6017,0.6806,0.7587,0.8102,0.8549,0.9,0.9582,1.0288,1.0926,1.1615,1.2228,1.285,1.3571,1.435,1.5128,1.572,1.6249,1.6637,1.7088,1.7534,1.802,1.8526,1.9018,1.9495,1.993,2.0206,2.0888,2.1796,2.2065,2.1901,2.1943,2.1852,2.1903,2.2193,2.237,2.2574,2.2808,2.3057,2.333,2.3555,2.3821,2.3894,2.3981,2.4255,2.4568,2.4859,2.5089,2.5219,2.5322,2.547,2.5583,2.5907,2.6644,2.7114,2.7175,2.7264,2.7086,2.6636,2.662,2.6654,2.6555,2.6623,2.664,2.6674,2.6607,2.6607,2.6624,2.6674,2.6691,2.6708,2.6742,2.6809,2.6927,2.6893,2.6961,2.7402,2.764,2.8049,-1.6272,-1.5584,-1.4847,-1.4074,-1.3297,-1.2975,-1.2617,-1.2115,-1.1503,-1.0843,-1.0445,-0.9978,-0.9718,-0.9659,-0.8832,-0.8205,-0.7678,-0.6983,-0.6336,-0.5642,-0.5021,-0.423,-0.3535,-0.2936,-0.2165,-0.1279,-0.0403,0.0202,0.0941,0.1614,0.2151,0.2688,0.3025,0.3491,0.422,0.5017,0.5815,0.6605,0.7396,0.8177,0.8753,0.9198,0.9716,1.0288,1.0982,1.1553,1.2174,1.2781,1.3329,1.3992,1.4765,1.5546,1.6134,1.6602,1.7019,1.7601,1.7978,1.8681,1.9238,1.9818,2.0349,2.1161,2.1561,2.2075,2.2788,2.3155,2.32,2.364,2.3602,2.3553,2.3724,2.3765,2.3946,2.4221,2.4491,2.4678,2.4924,2.5123,2.5243,2.5438,2.5674,2.5979,2.6277,2.6471,2.6621,2.6768,2.6976,2.6987,2.6379,2.7156,2.8052,2.8176,2.8233,2.7479,2.6874,2.6925,2.6943,2.6809,2.6674,2.6674,2.6708,2.6708,2.6691,2.6725,2.6808,2.6876,2.6876,2.6842,2.7044,2.7128,2.7026,2.7128,2.769,2.8305,2.887]},{"header":{"parameterUnit":"m.s-1","parameterCategory":1,"la1":31.0,"la2":29.5877,"lo1":-88.7671,"lo2":-86.6584,"dy":0.0162,"dx":0.0185,"nx":115,"ny":88,"refTime":"2024-02-19T18:00:00:Z","depth":0,"parameterNumber":3,"parameterNumberName":"V-component_of_WINDS"},"data":[0.0,0.0,0.0,0.0,0.0,0.0,0.0,0.0,0.0,0.0,0.0,0.0,0.0,0.0,0.0,0.0,0.0,0.0,0.0,0.0,0.0,0.0,0.0,0.0,0.0,0.0,0.0,0.0,0.0,0.0,0.0,0.0,0.0,0.0,0.0,0.0,0.0,0.0,0.0,0.0,0.0,0.0,0.0,0.0,0.0,0.0,0.0,0.0,0.0,0.0,0.0,0.0,0.0,0.0,0.0,0.0,0.0,0.0,0.0,0.0,0.0,0.0,0.0,0.0,0.0,0.0,0.0,0.0,0.0,0.0,0.0,0.0,0.0,0.0,0.0,0.0,0.0,0.0,0.0,0.0,0.0,0.0,0.0,0.0,0.0,0.0,0.0,0.0,0.0,0.0,0.0,0.0,0.0,0.0,0.0,0.0,0.0,0.0,0.0,0.0,0.0,0.0,0.0,0.0,0.0,0.0,0.0,0.0,0.0,0.0,0.0,0.0,0.0,0.0,0.0,0.0,0.0,0.0,0.0,0.0,0.0,0.0,0.0,0.0,0.0,0.0,0.0,0.0,0.0,0.0,0.0,0.0,0.0,0.0,0.0,0.0,0.0,0.0,0.0,0.0,0.0,0.0,0.0,0.0,0.0,0.0,0.0,0.0,0.0,0.0,0.0,0.0,0.0,0.0,0.0,0.0,0.0,0.0,0.0,0.0,0.0,0.0,0.0,0.0,0.0,0.0,0.0,0.0,0.0,0.0,0.0,0.0,0.0,0.0,0.0,0.0,0.0,0.0,0.0,0.0,0.0,0.0,0.0,0.0,0.0,0.0,0.0,0.0,0.0,0.0,0.0,0.0,0.0,0.0,0.0,0.0,0.0,0.0,0.0,0.0,0.0,0.0,0.0,0.0,0.0,0.0,0.0,0.0,0.0,0.0,0.0,0.0,0.0,0.0,0.0,0.0,0.0,0.0,0.0,0.0,0.0,0.0,0.0,0.0,0.0,0.0,0.0,0.0,0.0,0.0,0.0,0.0,0.0,0.0,0.0,0.0,0.0,0.0,0.0,0.0,0.0,0.0,0.0,0.0,0.0,0.0,0.0,0.0,0.0,0.0,0.0,0.0,0.0,0.0,0.0,0.0,0.0,0.0,0.0,0.0,0.0,0.0,0.0,0.0,0.0,0.0,0.0,0.0,0.0,0.0,0.0,0.0,0.0,0.0,0.0,0.0,0.0,0.0,0.0,0.0,0.0,0.0,0.0,0.0,0.0,0.0,0.0,0.0,0.0,0.0,0.0,0.0,0.0,0.0,0.0,0.0,0.0,0.0,0.0,0.0,0.0,0.0,0.0,0.0,0.0,0.0,0.0,0.0,0.0,0.0,0.0,0.0,0.0,0.0,0.0,0.0,0.0,0.0,0.0,0.0,0.0,0.0,0.0,0.0,0.0,0.0,0.0,0.0,0.0,0.0,0.0,0.0,0.0,0.0,0.0,0.0,0.0,0.0,0.0,0.0,0.0,0.0,0.0,0.0,0.0,0.0,0.0,0.0,0.0,0.0,0.0,0.0,0.0,0.0,0.0,0.0,0.0,0.0,0.0,0.0,0.0,0.0,0.0,0.0,0.0,0.0,0.0,0.0,0.0,0.0,0.0,0.0,0.0,0.0,0.0,0.0,0.0,0.0,0.0,0.0,0.0,0.0,0.0,0.0,0.0,0.0,0.0,0.0,0.0,0.0,0.0,0.0,0.0,0.0,0.0,0.0,0.0,0.0,0.0,0.0,0.0,0.0,0.0,0.0,0.0,0.0,0.0,0.0,0.0,0.0,0.0,0.0,0.0,0.0,0.0,0.0,0.0,0.0,0.0,0.0,0.0,0.0,0.0,0.0,0.0,0.0,0.0,0.0,0.0,0.0,0.0,0.0,0.0,0.0,0.0,0.0,0.0,0.0,0.0,0.0,0.0,0.0,0.0,0.0,0.0,0.0,0.0,0.0,0.0,0.0,0.0,0.0,0.0,0.0,0.0,0.0,0.0,0.0,0.0,0.0,0.0,0.0,0.0,0.0,0.0,0.0,0.0,0.0,0.0,0.0,0.0,0.0,0.0,0.0,0.0,0.0,0.0,0.0,0.0,0.0,0.0,0.0,0.0,0.0,0.0,0.0,0.0,0.0,0.0,0.0,0.0,0.0,0.0,0.0,0.0,0.0,0.0,0.0,0.0,0.0,0.0,0.0,0.0,0.0,0.0,0.0,0.0,0.0,0.0,0.0,0.0,0.0,0.0,0.0,0.0,0.0,0.0,0.0,0.0,0.0,0.0,0.0,0.0,0.0,0.0,0.0,0.0,0.0,0.0,0.0,0.0,0.0,0.0,0.0,0.0,0.0,0.0,0.0,0.0,0.0,0.0,0.0,0.0,0.0,0.0,0.0,0.0,0.0,0.0,0.0,0.0,0.0,0.0,0.0,0.0,0.0,0.0,0.0,0.0,0.0,0.0,0.0,0.0,0.0,0.0,0.0,0.0,0.0,0.0,0.0,0.0,0.0,0.0,0.0,0.0,0.0,0.0,0.0,0.0,0.0,0.0,0.0,0.0,0.0,0.0,0.0,0.0,0.0,0.0,0.0,0.0,0.0,0.0,0.0,0.0,0.0,0.0,0.0,0.0,0.0,0.0,0.0,0.0,0.0,0.0,0.0,0.0,0.0,0.0,0.0,0.0,0.0,0.0,0.0,0.0,0.0,0.0,0.0,0.0,0.0,0.0,0.0,0.0,0.0,0.0,0.0,0.0,0.0,0.0,0.0,0.0,0.0,0.0,0.0,0.0,0.0,0.0,0.0,0.0,0.0,0.0,0.0,0.0,0.0,0.0,0.0,0.0,0.0,0.0,0.0,0.0,0.0,0.0,0.0,0.0,0.0,0.0,0.0,0.0,0.0,0.0,0.0,0.0,0.0,0.0,0.0,0.0,0.0,0.0,0.0,0.0,0.0,0.0,0.0,0.0,0.0,0.0,0.0,0.0,0.0,0.0,0.0,0.0,0.0,0.0,0.0,0.0,0.0,0.0,0.0,0.0,0.0,0.0,0.0,0.0,0.0,0.0,0.0,0.0,0.0,0.0,0.0,0.0,0.0,0.0,0.0,0.0,0.0,0.0,0.0,0.0,0.0,0.0,0.0,0.0,0.0,0.0,0.0,0.0,0.0,0.0,0.0,0.0,0.0,0.0,0.0,0.0,0.0,0.0,0.0,0.0,0.0,0.0,0.0,0.0,0.0,0.0,0.0,0.0,0.0,0.0,0.0,0.0,0.0,0.0,0.0,0.0,0.0,0.0,0.0,0.0,0.0,0.0,0.0,0.0,0.0,0.0,0.0,0.0,0.0,0.0,0.0,0.0,0.0,0.0,0.0,0.0,0.0,0.0,0.0,0.0,0.0,0.0,0.0,0.0,0.0,0.0,0.0,0.0,0.0,0.0,0.0,0.0,0.0,0.0,0.0,0.0,0.0,0.0,0.0,0.0,0.0,0.0,0.0,0.0,0.0,0.0,0.0,0.0,0.0,0.0,0.0,0.0,0.0,0.0,0.0,0.0,0.0,0.0,0.0,0.0,0.0,0.0,0.0,0.0,0.0,0.0,0.0,0.0,0.0,0.0,0.0,0.0,0.0,0.0,0.0,0.0,0.0,0.0,0.0,0.0,0.0,0.0,0.0,0.0,0.0,0.0,0.0,0.0,0.0,0.0,0.0,0.0,0.0,0.0,0.0,0.0,0.0,0.0,0.0,0.0,0.0,0.0,0.0,0.0,0.0,0.0,0.0,0.0,0.0,0.0,0.0,0.0,0.0,0.0,0.0,0.0,0.0,0.0,0.0,0.0,0.0,0.0,0.0,0.0,0.0,0.0,0.0,0.0,0.0,0.0,0.0,0.0,0.0,0.0,0.0,0.0,0.0,0.0,0.0,0.0,0.0,0.0,0.0,0.0,0.0,0.0,0.0,0.0,0.0,0.0,0.0,0.0,0.0,0.0,0.0,0.0,0.0,0.0,0.0,0.0,0.0,0.0,0.0,0.0,0.0,0.0,0.0,0.0,0.0,0.0,0.0,0.0,0.0,0.0,0.0,0.0,0.0,0.0,0.0,0.0,0.0,0.0,0.0,0.0,0.0,0.0,0.0,0.0,0.0,0.0,0.0,0.0,0.0,0.0,0.0,0.0,0.0,0.0,0.0,0.0,0.0,0.0,0.0,0.0,0.0,0.0,0.0,0.0,0.0,0.0,0.0,0.0,0.0,0.0,0.0,-0.3278,0.0,0.0,0.0,0.0,0.0,0.0,0.0,0.0,0.0,0.0,0.0,0.0,0.0,0.0,0.0,0.0,0.0,0.0,0.0,0.0,0.0,0.0,0.0,0.0,0.0,0.0,0.0,0.0,0.0,0.0,0.0,0.0,0.0,0.0,0.0,0.0,0.0,0.0,0.0,0.0,0.0,0.0,0.0,0.0,0.0,0.0,0.0,0.0,0.0,0.0,0.0,0.0,0.0,0.0,0.0,0.0,0.0,0.0,0.0,0.0,0.0,0.0,0.0,0.0,0.0,0.0,0.0,0.0,0.0,0.0,0.0,0.0,0.0,0.0,0.0,0.0,0.0,0.0,0.0,0.0,0.0,0.0,0.0,0.0,0.0,0.0,0.0,0.0,0.0,0.0,0.0,0.0,0.0,0.0,0.0,0.0,0.0,0.0,0.0,0.0,0.0,0.0,0.0,0.0,0.0,0.0,0.0,0.0,0.0,0.0,-0.4219,-0.3911,-0.3703,-0.3548,-0.3421,0.0,0.0,0.0,0.0,0.0,0.0,0.0,0.0,0.0,0.0,0.0,0.0,0.0,0.0,0.0,0.0,0.0,0.0,0.0,0.0,0.0,0.0,0.0,0.0,0.0,0.0,0.0,0.0,0.0,0.0,0.0,0.0,0.0,0.0,0.0,0.0,0.0,0.0,0.0,0.0,0.0,0.0,0.0,0.0,0.0,0.0,0.0,0.0,0.0,0.0,0.0,0.0,0.0,0.0,0.0,0.0,0.0,0.0,0.0,0.0,0.0,0.0,0.0,0.0,0.0,0.0,0.0,0.0,0.0,0.0,0.0,0.0,0.0,0.0,0.0,0.0,0.0,0.0,0.0,0.0,0.0,0.0,0.0,0.0,0.0,0.0,0.0,0.0,0.0,0.0,0.0,0.0,0.0,0.0,0.0,0.0,0.0,0.0,0.0,0.0,0.0,0.0,0.0,0.0,0.0,0.0,0.0,0.0,0.0,0.0,0.0,0.0,-0.3905,-0.3717,-0.3569,0.0,0.0,0.0,0.0,0.0,0.0,0.0,0.0,0.0,0.0,0.0,0.0,0.0,0.0,0.0,0.0,0.0,0.0,0.0,0.0,0.0,0.0,0.0,0.0,0.0,0.0,0.0,0.0,0.0,0.0,0.0,0.0,0.0,0.0,0.0,0.0,0.0,0.0,0.0,0.0,0.0,0.0,0.0,0.0,0.0,0.0,0.0,0.0,0.0,0.0,0.0,0.0,0.0,0.0,0.0,0.0,0.0,0.0,0.0,0.0,0.0,0.0,0.0,0.0,0.0,0.0,0.0,0.0,0.0,0.0,0.0,0.0,0.0,0.0,0.0,0.0,0.0,0.0,0.0,0.0,0.0,0.0,0.0,0.0,0.0,0.0,0.0,0.0,0.0,0.0,0.0,0.0,0.0,0.0,0.0,0.0,0.0,0.0,0.0,0.0,0.0,0.0,0.0,0.0,0.0,0.0,0.0,0.0,0.0,0.0,-0.4504,-0.4273,-0.4035,0.0,-0.3703,0.0,0.0,0.0,0.0,0.0,0.0,0.0,0.0,0.0,0.0,0.0,0.0,0.0,0.0,0.0,0.0,0.0,0.0,0.0,0.0,0.0,0.0,0.0,0.0,0.0,0.0,0.0,0.0,0.0,0.0,0.0,0.0,0.0,0.0,0.0,0.0,0.0,0.0,0.0,0.0,0.0,0.0,0.0,0.0,0.0,0.0,0.0,0.0,0.0,0.0,0.0,0.0,0.0,0.0,0.0,0.0,0.0,0.0,0.0,0.0,0.0,0.0,0.0,0.0,0.0,0.0,0.0,0.0,0.0,0.0,0.0,0.0,0.0,0.0,0.0,0.0,0.0,0.0,0.0,0.0,0.0,0.0,0.0,0.0,0.0,0.0,0.0,0.0,0.0,0.0,0.0,0.0,0.0,0.0,0.0,0.0,0.0,0.0,0.0,0.0,0.0,0.0,0.0,0.0,0.0,0.0,0.0,0.0,0.0,0.0,-0.4655,-0.4414,-0.4117,-0.3897,0.0,0.0,0.0,0.0,0.0,0.0,0.0,0.0,0.0,0.0,0.0,0.0,0.0,0.0,0.0,0.0,0.0,0.0,0.0,0.0,0.0,0.0,0.0,0.0,0.0,0.0,0.0,0.0,0.0,0.0,0.0,0.0,0.0,0.0,0.0,0.0,0.0,0.0,0.0,0.0,0.0,0.0,0.0,0.0,0.0,0.0,0.0,0.0,0.0,0.0,0.0,0.0,0.0,0.0,0.0,0.0,0.0,0.0,0.0,0.0,0.0,0.0,0.0,0.0,0.0,0.0,0.0,0.0,0.0,0.0,0.0,0.0,0.0,0.0,0.0,0.0,0.0,0.0,0.0,0.0,0.0,0.0,0.0,0.0,0.0,0.0,0.0,0.0,0.0,0.0,0.0,0.0,0.0,0.0,0.0,0.0,0.0,0.0,0.0,0.0,0.0,0.0,0.0,0.0,0.0,0.0,0.0,0.0,0.0,0.0,-0.5078,-0.4805,-0.4486,-0.4219,-0.4042,-0.3965,0.0,0.0,0.0,0.0,0.0,0.0,0.0,0.0,0.0,0.0,0.0,0.0,0.0,0.0,0.0,0.0,0.0,0.0,0.0,0.0,0.0,0.0,0.0,0.0,0.0,0.0,0.0,0.0,0.0,0.0,0.0,0.0,0.0,0.0,0.0,0.0,0.0,0.0,0.0,0.0,0.0,0.0,0.0,0.0,0.0,0.0,0.0,0.0,0.0,0.0,0.0,0.0,0.0,0.0,0.0,0.0,0.0,0.0,0.0,0.0,0.0,0.0,0.0,0.0,0.0,0.0,0.0,0.0,0.0,0.0,0.0,0.0,0.0,0.0,0.0,0.0,0.0,0.0,0.0,0.0,0.0,0.0,0.0,0.0,0.0,0.0,0.0,0.0,0.0,0.0,0.0,0.0,0.0,0.0,0.0,0.0,0.0,0.0,0.0,0.0,0.0,0.0,0.0,0.0,0.0,0.0,0.0,0.0,-0.5492,-0.5204,-0.4912,-0.4515,-0.4374,-0.426,0.0,0.0,0.0,0.0,0.0,0.0,0.0,0.0,0.0,0.0,0.0,0.0,0.0,0.0,0.0,0.0,0.0,0.0,0.0,0.0,0.0,0.0,0.0,0.0,0.0,0.0,0.0,0.0,0.0,0.0,0.0,0.0,0.0,0.0,0.0,0.0,0.0,0.0,0.0,0.0,0.0,0.0,0.0,0.0,0.0,0.0,0.0,0.0,0.0,0.0,0.0,0.0,0.0,0.0,0.0,0.0,0.0,0.0,0.0,0.0,0.0,0.0,0.0,0.0,0.0,0.0,0.0,0.0,0.0,0.0,0.0,0.0,0.0,0.0,0.0,0.0,0.0,0.0,0.0,0.0,0.0,0.0,0.0,0.0,0.0,0.0,0.0,0.0,0.0,0.0,0.0,0.0,0.0,0.0,0.0,0.0,0.0,0.0,0.0,0.0,0.0,0.0,0.0,0.0,0.0,0.0,0.0,0.0,0.0,-0.5611,-0.5291,-0.4991,-0.4774,-0.4624,-0.4532,0.0,0.0,0.0,0.0,0.0,0.0,0.0,0.0,0.0,0.0,0.0,0.0,0.0,0.0,0.0,0.0,0.0,0.0,0.0,0.0,0.0,0.0,0.0,0.0,0.0,0.0,0.0,0.0,0.0,0.0,0.0,0.0,0.0,0.0,0.0,0.0,0.0,0.0,0.0,0.0,0.0,0.0,0.0,0.0,0.0,0.0,0.0,0.0,0.0,0.0,0.0,0.0,0.0,0.0,0.0,0.0,0.0,0.0,0.0,0.0,0.0,0.0,0.0,0.0,0.0,0.0,0.0,0.0,0.0,0.0,0.0,0.0,0.0,0.0,0.0,0.0,0.0,0.0,0.0,0.0,0.0,0.0,0.0,0.0,0.0,0.0,0.0,0.0,0.0,0.0,0.0,0.0,0.0,0.0,0.0,0.0,0.0,0.0,0.0,0.0,0.0,0.0,0.0,0.0,0.0,0.0,0.0,0.0,0.0,-0.5686,0.0,-0.5137,-0.5,-0.4892,-0.4793,0.0,0.0,0.0,0.0,0.0,0.0,0.0,0.0,0.0,0.0,0.0,0.0,0.0,0.0,0.0,0.0,0.0,0.0,0.0,0.0,0.0,0.0,0.0,0.0,0.0,0.0,0.0,0.0,0.0,0.0,0.0,0.0,0.0,0.0,0.0,0.0,0.0,0.0,0.0,0.0,0.0,0.0,0.0,0.0,0.0,0.0,0.0,0.0,0.0,0.0,0.0,0.0,0.0,0.0,0.0,0.0,0.0,0.0,0.0,0.0,0.0,0.0,0.0,0.0,0.0,0.0,0.0,0.0,0.0,0.0,0.0,0.0,0.0,0.0,0.0,0.0,0.0,0.0,0.0,0.0,0.0,0.0,0.0,0.0,0.0,0.0,0.0,0.0,0.0,0.0,0.0,0.0,0.0,0.0,0.0,0.0,0.0,0.0,0.0,0.0,0.0,0.0,0.0,0.0,0.0,0.0,0.0,0.0,-0.6117,-0.5734,-0.5576,-0.5397,-0.5215,-0.5137,-0.503,0.0,0.0,0.0,0.0,0.0,0.0,0.0,0.0,0.0,0.0,0.0,0.0,0.0,0.0,0.0,0.0,0.0,0.0,0.0,0.0,0.0,0.0,0.0,0.0,0.0,0.0,0.0,0.0,0.0,0.0,0.0,0.0,0.0,0.0,0.0,0.0,0.0,0.0,0.0,0.0,0.0,0.0,0.0,0.0,0.0,0.0,0.0,0.0,0.0,0.0,0.0,0.0,0.0,0.0,0.0,0.0,0.0,0.0,0.0,0.0,0.0,0.0,0.0,0.0,0.0,0.0,0.0,0.0,0.0,0.0,0.0,0.0,0.0,0.0,0.0,0.0,0.0,0.0,0.0,0.0,0.0,0.0,0.0,0.0,0.0,0.0,0.0,0.0,0.0,0.0,0.0,0.0,0.0,0.0,0.0,0.0,0.0,0.0,0.0,0.0,0.0,0.0,0.0,0.0,0.0,0.0,0.0,0.0,0.0,-0.6045,-0.5863,-0.5708,-0.556,-0.5387,-0.5252,0.0,0.0,0.0,0.0,0.0,0.0,0.0,0.0,0.0,0.0,0.0,0.0,0.0,0.0,0.0,0.0,0.0,0.0,0.0,0.0,0.0,0.0,0.0,0.0,0.0,0.0,0.0,0.0,0.0,0.0,0.0,0.0,0.0,0.0,0.0,0.0,0.0,0.0,0.0,0.0,0.0,0.0,0.0,0.0,0.0,0.0,0.0,0.0,0.0,0.0,0.0,0.0,0.0,0.0,0.0,0.0,0.0,0.0,0.0,0.0,0.0,0.0,0.0,0.0,0.0,0.0,0.0,0.0,0.0,0.0,0.0,0.0,0.0,0.0,0.0,0.0,0.0,0.0,0.0,0.0,0.0,0.0,0.0,0.0,0.0,0.0,0.0,0.0,0.0,0.0,0.0,0.0,0.0,0.0,0.0,0.0,0.0,0.0,0.0,0.0,0.0,0.0,0.0,0.0,0.0,0.0,0.0,0.0,0.0,-0.6517,-0.6224,-0.6009,-0.586,-0.5689,-0.5547,-0.5453,0.0,0.0,0.0,0.0,0.0,0.0,0.0,0.0,0.0,0.0,0.0,0.0,0.0,0.0,0.0,0.0,0.0,0.0,0.0,0.0,0.0,0.0,0.0,0.0,0.0,0.0,0.0,0.0,0.0,0.0,0.0,0.0,0.0,0.0,0.0,0.0,0.0,0.0,0.0,0.0,0.0,0.0,0.0,0.0,0.0,0.0,0.0,0.0,0.0,0.0,0.0,0.0,0.0,0.0,0.0,0.0,0.0,0.0,0.0,0.0,0.0,0.0,0.0,0.0,0.0,0.0,0.0,0.0,0.0,0.0,0.0,0.0,0.0,0.0,0.0,0.0,0.0,0.0,0.0,0.0,0.0,0.0,0.0,0.0,0.0,0.0,0.0,0.0,0.0,0.0,0.0,0.0,0.0,0.0,0.0,0.0,0.0,0.0,0.0,0.0,0.0,0.0,0.0,0.0,0.0,0.0,0.0,0.0,-0.7023,-0.663,-0.6331,-0.6122,-0.5984,-0.5863,0.0,0.0,0.0,0.0,0.0,0.0,0.0,0.0,0.0,0.0,0.0,0.0,0.0,0.0,0.0,0.0,0.0,0.0,0.0,0.0,0.0,0.0,0.0,0.0,0.0,0.0,0.0,0.0,0.0,0.0,0.0,0.0,0.0,0.0,0.0,0.0,0.0,0.0,0.0,0.0,0.0,0.0,0.0,0.0,0.0,0.0,0.0,0.0,0.0,0.0,0.0,0.0,0.0,0.0,0.0,0.0,0.0,0.0,0.0,0.0,0.0,0.0,0.0,0.0,0.0,0.0,0.0,0.0,0.0,0.0,0.0,0.0,0.0,0.0,0.0,0.0,0.0,0.0,0.0,0.0,0.0,0.0,0.0,0.0,0.0,0.0,0.0,0.0,0.0,0.0,0.0,0.0,0.0,0.0,0.0,0.0,0.0,0.0,0.0,0.0,0.0,0.0,0.0,0.0,0.0,0.0,0.0,0.0,0.0,-0.7214,-0.7072,-0.6798,-0.6418,-0.626,-0.6147,0.0,0.0,0.0,0.0,0.0,0.0,0.0,0.0,0.0,0.0,0.0,0.0,0.0,0.0,0.0,0.0,0.0,0.0,0.0,0.0,0.0,0.0,0.0,0.0,0.0,0.0,0.0,0.0,0.0,0.0,0.0,0.0,0.0,0.0,0.0,0.0,0.0,0.0,0.0,0.0,0.0,0.0,0.0,0.0,0.0,0.0,0.0,0.0,0.0,0.0,0.0,0.0,0.0,0.0,0.0,0.0,0.0,0.0,0.0,0.0,0.0,0.0,0.0,0.0,0.0,0.0,0.0,0.0,0.0,0.0,0.0,0.0,0.0,0.0,0.0,0.0,0.0,0.0,0.0,0.0,0.0,0.0,0.0,0.0,0.0,0.0,0.0,0.0,0.0,0.0,0.0,0.0,0.0,0.0,0.0,0.0,0.0,0.0,0.0,0.0,0.0,0.0,0.0,0.0,0.0,0.0,0.0,0.0,-0.7467,-0.7435,-0.7298,-0.7107,-0.6858,-0.6613,-0.6448,0.0,0.0,0.0,0.0,0.0,0.0,0.0,0.0,0.0,0.0,0.0,0.0,0.0,0.0,0.0,0.0,0.0,0.0,0.0,0.0,0.0,0.0,0.0,0.0,0.0,0.0,0.0,0.0,0.0,0.0,0.0,0.0,0.0,0.0,0.0,0.0,0.0,0.0,0.0,0.0,0.0,0.0,0.0,0.0,0.0,0.0,0.0,0.0,0.0,0.0,0.0,0.0,0.0,0.0,0.0,0.0,0.0,0.0,0.0,0.0,0.0,0.0,0.0,0.0,0.0,0.0,0.0,0.0,0.0,0.0,0.0,0.0,0.0,0.0,0.0,0.0,0.0,0.0,0.0,0.0,0.0,0.0,0.0,0.0,0.0,0.0,0.0,0.0,0.0,0.0,0.0,0.0,0.0,0.0,0.0,0.0,0.0,0.0,0.0,0.0,0.0,0.0,0.0,0.0,0.0,0.0,0.0,0.0,-0.762,-0.759,-0.7437,-0.7328,-0.7324,-0.7003,-0.677,0.0,0.0,0.0,0.0,0.0,0.0,0.0,0.0,0.0,0.0,0.0,0.0,0.0,0.0,0.0,0.0,0.0,0.0,0.0,0.0,0.0,0.0,0.0,0.0,0.0,0.0,0.0,0.0,0.0,0.0,0.0,0.0,0.0,0.0,0.0,0.0,0.0,0.0,0.0,0.0,0.0,0.0,0.0,0.0,0.0,0.0,0.0,0.0,0.0,0.0,0.0,0.0,0.0,0.0,0.0,0.0,0.0,0.0,0.0,0.0,0.0,0.0,0.0,0.0,0.0,0.0,0.0,0.0,0.0,0.0,0.0,0.0,0.0,0.0,0.0,0.0,0.0,0.0,0.0,0.0,0.0,0.0,0.0,0.0,0.0,0.0,0.0,0.0,0.0,0.0,0.0,0.0,0.0,0.0,0.0,0.0,0.0,0.0,0.0,0.0,0.0,0.0,0.0,0.0,0.0,0.0,0.0,0.0,-0.7709,-0.759,-0.7545,-0.7512,-0.7463,-0.718,-0.697,0.0,0.0,0.0,0.0,0.0,0.0,0.0,0.0,0.0,0.0,0.0,0.0,0.0,0.0,0.0,0.0,0.0,0.0,0.0,0.0,0.0,0.0,0.0,0.0,0.0,0.0,0.0,0.0,0.0,0.0,0.0,0.0,0.0,0.0,0.0,0.0,0.0,0.0,0.0,0.0,0.0,0.0,0.0,0.0,0.0,0.0,0.0,0.0,-0.8202,0.0,0.0,0.0,0.0,0.0,0.0,0.0,0.0,0.0,0.0,0.0,0.0,0.0,0.0,0.0,0.0,0.0,0.0,0.0,0.0,0.0,0.0,0.0,0.0,0.0,0.0,0.0,0.0,0.0,0.0,0.0,0.0,0.0,0.0,0.0,0.0,0.0,0.0,0.0,0.0,0.0,0.0,0.0,0.0,0.0,0.0,0.0,0.0,0.0,0.0,0.0,0.0,0.0,0.0,0.0,0.0,0.0,0.0,0.0,-0.7797,-0.7739,-0.765,-0.7574,-0.7543,-0.7371,-0.7212,0.0,0.0,0.0,0.0,0.0,0.0,0.0,0.0,0.0,0.0,0.0,0.0,0.0,0.0,0.0,0.0,0.0,0.0,0.0,0.0,0.0,0.0,0.0,0.0,0.0,0.0,0.0,0.0,0.0,0.0,0.0,0.0,0.0,0.0,0.0,0.0,0.0,0.0,0.0,0.0,0.0,0.0,0.0,0.0,0.0,0.0,0.0,0.0,0.0,0.0,0.0,0.0,0.0,0.0,0.0,0.0,0.0,0.0,0.0,0.0,0.0,0.0,0.0,0.0,0.0,0.0,0.0,0.0,0.0,0.0,0.0,0.0,0.0,0.0,0.0,0.0,0.0,0.0,0.0,0.0,0.0,0.0,0.0,0.0,0.0,0.0,0.0,0.0,0.0,0.0,0.0,0.0,0.0,0.0,0.0,0.0,0.0,0.0,0.0,0.0,0.0,0.0,0.0,0.0,0.0,0.0,0.0,-0.7942,-0.7899,-0.7885,-0.7724,-0.7577,-0.7475,-0.75,-0.7407,-0.7201,0.0,0.0,0.0,0.0,0.0,0.0,0.0,0.0,0.0,0.0,0.0,0.0,0.0,0.0,0.0,0.0,0.0,0.0,0.0,0.0,0.0,0.0,0.0,0.0,0.0,0.0,0.0,0.0,0.0,0.0,0.0,0.0,0.0,0.0,0.0,0.0,0.0,0.0,-0.7383,-0.7202,0.0,0.0,0.0,0.0,0.0,0.0,0.0,0.0,-0.7941,0.0,0.0,0.0,0.0,0.0,0.0,0.0,0.0,0.0,0.0,0.0,0.0,0.0,0.0,0.0,0.0,0.0,0.0,0.0,0.0,0.0,0.0,0.0,0.0,0.0,0.0,0.0,0.0,0.0,0.0,0.0,0.0,0.0,0.0,0.0,0.0,0.0,0.0,0.0,0.0,0.0,0.0,0.0,0.0,0.0,0.0,0.0,0.0,0.0,0.0,0.0,0.0,0.0,0.0,0.0,0.0,-0.7997,-0.7999,-0.7928,-0.7827,-0.7783,-0.7474,-0.688,-0.733,-0.7314,-0.6785,0.0,0.0,0.0,0.0,0.0,0.0,0.0,0.0,0.0,0.0,0.0,0.0,0.0,0.0,0.0,0.0,0.0,0.0,0.0,0.0,0.0,0.0,0.0,0.0,0.0,0.0,0.0,0.0,0.0,0.0,0.0,0.0,0.0,0.0,0.0,0.0,0.0,0.0,0.0,-0.7059,-0.6836,0.0,0.0,0.0,0.0,0.0,0.0,0.0,0.0,-0.7665,0.0,0.0,0.0,0.0,0.0,0.0,0.0,0.0,0.0,0.0,0.0,0.0,0.0,0.0,0.0,0.0,0.0,0.0,0.0,0.0,0.0,0.0,0.0,0.0,0.0,0.0,0.0,0.0,0.0,0.0,0.0,0.0,0.0,0.0,0.0,0.0,0.0,0.0,0.0,0.0,0.0,0.0,0.0,0.0,0.0,0.0,0.0,0.0,0.0,0.0,0.0,0.0,0.0,0.0,0.0,-0.8109,-0.8025,-0.7818,-0.7391,-0.7307,-0.6931,-0.6214,-0.6274,-0.625,0.0,0.0,0.0,0.0,0.0,0.0,0.0,0.0,0.0,0.0,0.0,0.0,0.0,0.0,0.0,0.0,0.0,0.0,0.0,0.0,0.0,0.0,0.0,0.0,0.0,0.0,0.0,0.0,0.0,0.0,0.0,0.0,0.0,0.0,0.0,0.0,0.0,0.0,0.0,0.0,-0.8235,-0.8084,-0.8101,0.0,0.0,0.0,0.0,0.0,0.0,-0.7694,-0.7543,0.0,0.0,0.0,0.0,0.0,0.0,0.0,0.0,0.0,0.0,0.0,0.0,0.0,0.0,0.0,0.0,0.0,0.0,0.0,0.0,0.0,0.0,0.0,0.0,0.0,0.0,0.0,0.0,0.0,0.0,0.0,0.0,0.0,0.0,0.0,0.0,0.0,0.0,0.0,0.0,0.0,0.0,0.0,0.0,0.0,0.0,0.0,0.0,0.0,0.0,0.0,0.0,0.0,0.0,0.0,-0.8218,-0.7971,-0.7555,-0.699,-0.6713,-0.6234,-0.5493,-0.5192,-0.5146,0.0,0.0,0.0,0.0,0.0,0.0,0.0,0.0,0.0,0.0,0.0,0.0,0.0,0.0,0.0,0.0,0.0,0.0,0.0,0.0,0.0,0.0,0.0,0.0,0.0,0.0,0.0,0.0,0.0,0.0,0.0,0.0,0.0,0.0,0.0,0.0,0.0,0.0,0.0,0.0,0.0,-0.9177,-0.9178,-0.8886,0.0,0.0,0.0,0.0,-0.7841,-0.7649,0.0,0.0,0.0,0.0,0.0,0.0,0.0,0.0,0.0,0.0,0.0,0.0,0.0,0.0,0.0,0.0,0.0,0.0,0.0,0.0,0.0,0.0,0.0,0.0,0.0,0.0,0.0,0.0,0.0,0.0,0.0,0.0,0.0,0.0,0.0,0.0,0.0,0.0,0.0,0.0,0.0,0.0,0.0,0.0,0.0,0.0,0.0,0.0,0.0,0.0,0.0,0.0,0.0,0.0,0.0,0.0,-0.8264,-0.7584,-0.7111,-0.6895,-0.6211,-0.549,-0.4763,-0.4799,-0.4771,0.0,0.0,0.0,0.0,0.0,0.0,0.0,0.0,0.0,0.0,0.0,0.0,0.0,0.0,0.0,0.0,0.0,0.0,0.0,0.0,0.0,0.0,0.0,0.0,0.0,0.0,0.0,0.0,0.0,0.0,0.0,0.0,0.0,0.0,0.0,0.0,0.0,0.0,0.0,0.0,0.0,-0.9188,-0.912,-0.8823,-0.8495,0.0,0.0,-0.7955,-0.7827,-0.7679,0.0,0.0,0.0,0.0,0.0,0.0,0.0,0.0,0.0,0.0,0.0,0.0,0.0,0.0,0.0,0.0,0.0,0.0,0.0,0.0,0.0,0.0,0.0,0.0,0.0,0.0,0.0,0.0,0.0,0.0,0.0,0.0,0.0,0.0,0.0,0.0,0.0,0.0,0.0,0.0,0.0,0.0,0.0,0.0,0.0,0.0,0.0,0.0,0.0,0.0,0.0,0.0,0.0,0.0,0.0,-0.8353,-0.8264,-0.7518,-0.6836,-0.6279,-0.5476,-0.4717,-0.3984,-0.3924,-0.3827,0.0,0.0,0.0,0.0,0.0,0.0,0.0,0.0,0.0,0.0,0.0,0.0,0.0,0.0,0.0,0.0,0.0,0.0,0.0,0.0,0.0,0.0,0.0,0.0,0.0,0.0,0.0,0.0,0.0,0.0,0.0,0.0,0.0,0.0,0.0,0.0,0.0,0.0,0.0,0.0,0.0,0.0,-0.9073,-0.8764,0.0,0.0,0.0,-0.7927,-0.7768,0.0,0.0,0.0,0.0,0.0,0.0,0.0,0.0,0.0,0.0,0.0,0.0,0.0,0.0,0.0,0.0,0.0,0.0,0.0,0.0,0.0,0.0,0.0,0.0,0.0,0.0,0.0,0.0,0.0,0.0,0.0,0.0,0.0,0.0,0.0,0.0,0.0,0.0,0.0,0.0,0.0,0.0,0.0,0.0,0.0,0.0,0.0,0.0,0.0,0.0,0.0,0.0,0.0,0.0,0.0,0.0,0.0,-0.8293,-0.7323,-0.6493,-0.5789,-0.4842,-0.402,-0.3438,-0.3234,0.0,0.0,0.0,0.0,0.0,0.0,0.0,0.0,0.0,0.0,0.0,0.0,0.0,0.0,0.0,0.0,0.0,0.0,0.0,0.0,0.0,0.0,0.0,0.0,0.0,0.0,0.0,-0.4572,0.0,0.0,0.0,0.0,0.0,0.0,0.0,0.0,0.0,0.0,0.0,0.0,0.0,0.0,-0.9067,-0.8974,-0.87,-0.8377,0.0,0.0,-0.8198,-0.8034,-0.8437,-0.8741,0.0,0.0,0.0,0.0,0.0,0.0,0.0,0.0,0.0,0.0,0.0,0.0,0.0,0.0,0.0,0.0,0.0,0.0,0.0,0.0,0.0,0.0,0.0,0.0,0.0,0.0,0.0,0.0,0.0,0.0,0.0,0.0,0.0,0.0,0.0,0.0,0.0,0.0,0.0,0.0,0.0,0.0,0.0,0.0,0.0,0.0,0.0,0.0,0.0,0.0,0.0,0.0,0.0,0.0,0.0,-0.8248,-0.6833,-0.5983,-0.576,-0.4337,-0.3451,-0.322,-0.3035,-0.286,0.0,0.0,0.0,0.0,0.0,0.0,0.0,0.0,0.0,0.0,0.0,0.0,0.0,0.0,0.0,0.0,0.0,0.0,0.0,0.0,0.0,0.0,0.0,0.0,0.0,0.0,0.0,0.0,0.0,0.0,0.0,0.0,0.0,0.0,0.0,0.0,0.0,0.0,0.0,0.0,0.0,-0.9067,-0.8913,-0.8677,-0.839,0.0,0.0,-0.8924,-0.8814,-0.9215,-0.9482,-0.9337,0.0,0.0,0.0,0.0,0.0,0.0,0.0,0.0,0.0,0.0,0.0,0.0,0.0,0.0,0.0,0.0,0.0,0.0,0.0,0.0,0.0,0.0,0.0,0.0,0.0,0.0,0.0,0.0,0.0,0.0,0.0,0.0,0.0,0.0,0.0,0.0,0.0,0.0,0.0,0.0,0.0,0.0,0.0,0.0,0.0,0.0,0.0,0.0,0.0,0.0,0.0,0.0,0.0,-0.8205,-0.8094,-0.6672,-0.5852,-0.5633,-0.4216,-0.3332,-0.3077,-0.2803,-0.2644,0.0,0.0,0.0,0.0,0.0,0.0,0.0,0.0,0.0,0.0,0.0,0.0,0.0,0.0,0.0,0.0,0.0,0.0,0.0,0.0,0.0,0.0,0.0,0.0,0.0,0.0,0.0,0.0,-0.3087,-0.299,-0.3867,0.0,0.0,0.0,0.0,0.0,0.0,0.0,0.0,0.0,0.0,-1.0032,-0.9038,-0.9371,0.0,0.0,-0.9498,-0.9571,-0.9525,-0.9947,-1.021,-1.0106,-1.0045,0.0,0.0,0.0,0.0,0.0,0.0,0.0,0.0,0.0,0.0,0.0,0.0,0.0,0.0,0.0,0.0,0.0,0.0,0.0,0.0,0.0,0.0,0.0,0.0,0.0,0.0,0.0,0.0,0.0,0.0,0.0,0.0,0.0,0.0,0.0,0.0,0.0,0.0,0.0,0.0,0.0,0.0,0.0,0.0,0.0,0.0,0.0,0.0,0.0,0.0,0.0,0.0,-0.8111,-0.7956,-0.6772,-0.5973,-0.5608,-0.4345,-0.3461,-0.3003,-0.2671,-0.2501,0.0,0.0,0.0,0.0,0.0,0.0,0.0,0.0,0.0,0.0,0.0,0.0,0.0,0.0,0.0,0.0,0.0,0.0,0.0,0.0,0.0,0.0,0.0,0.0,0.0,0.0,0.0,0.0,-0.2971,-0.3116,-0.4369,0.0,0.0,0.0,0.0,0.0,0.0,0.0,0.0,0.0,0.0,-1.0811,-0.9726,-1.0104,-1.0527,-1.0653,-1.0453,-1.0281,-1.0206,-1.0639,-1.0961,-1.0856,0.0,0.0,0.0,0.0,0.0,0.0,0.0,0.0,0.0,0.0,0.0,0.0,0.0,0.0,0.0,0.0,0.0,0.0,0.0,0.0,0.0,0.0,0.0,0.0,0.0,0.0,0.0,0.0,0.0,0.0,-0.9945,0.0,0.0,0.0,0.0,0.0,0.0,0.0,0.0,0.0,0.0,0.0,0.0,0.0,0.0,0.0,0.0,0.0,0.0,0.0,0.0,0.0,0.0,-0.8039,-0.7897,-0.7142,-0.638,-0.5608,-0.473,-0.3849,-0.3035,-0.2671,-0.2404,-0.2225,0.0,0.0,0.0,0.0,0.0,0.0,0.0,0.0,0.0,0.0,0.0,0.0,0.0,0.0,0.0,0.0,0.0,0.0,0.0,0.0,0.0,0.0,0.0,0.0,0.0,0.0,-0.352,-0.3835,-0.4466,0.0,0.0,0.0,0.0,0.0,0.0,0.0,0.0,0.0,0.0,-1.1298,-1.1172,-1.1068,-1.0762,-1.0887,-1.18,-1.1404,-1.0955,-1.0881,-1.132,-1.1681,0.0,0.0,0.0,0.0,0.0,0.0,0.0,0.0,0.0,0.0,0.0,0.0,0.0,0.0,0.0,0.0,0.0,0.0,0.0,0.0,0.0,0.0,0.0,0.0,0.0,0.0,0.0,-1.1509,-1.1162,0.0,0.0,0.0,0.0,0.0,0.0,0.0,0.0,0.0,0.0,0.0,-1.1949,-1.2164,0.0,0.0,0.0,0.0,0.0,0.0,0.0,0.0,0.0,0.0,0.0,0.0,-0.7941,-0.7738,-0.7133,-0.6397,-0.5608,-0.4749,-0.3891,-0.3023,-0.2739,-0.2355,-0.1958,0.0,0.0,0.0,0.0,0.0,0.0,0.0,0.0,0.0,0.0,0.0,0.0,0.0,0.0,0.0,0.0,0.0,0.0,0.0,0.0,0.0,0.0,0.0,0.0,0.0,-0.4083,0.0,0.0,0.0,0.0,0.0,0.0,0.0,0.0,0.0,0.0,0.0,-1.2498,-1.2815,-1.2697,-1.2569,-1.2504,-1.2188,-1.2008,0.0,0.0,0.0,0.0,0.0,0.0,0.0,0.0,0.0,0.0,0.0,0.0,0.0,0.0,-1.0403,-1.0027,-0.9914,-0.988,-0.983,0.0,0.0,0.0,0.0,0.0,0.0,0.0,0.0,0.0,0.0,0.0,0.0,0.0,0.0,0.0,0.0,-1.2499,0.0,0.0,0.0,0.0,0.0,0.0,0.0,0.0,-1.2014,-1.2117,-1.206,-1.2282,-1.2479,0.0,-1.2735,-1.2794,0.0,0.0,0.0,0.0,0.0,0.0,0.0,0.0,-0.7941,-0.7753,-0.7355,-0.6771,-0.5971,-0.5126,-0.4263,-0.3408,-0.2833,-0.2324,-0.1875,-0.1948,-0.2132,0.0,0.0,0.0,0.0,0.0,0.0,0.0,0.0,0.0,0.0,0.0,0.0,0.0,0.0,0.0,0.0,0.0,0.0,0.0,0.0,0.0,0.0,0.0,-0.4422,0.0,0.0,0.0,0.0,0.0,0.0,0.0,0.0,0.0,-1.2889,-1.2979,-1.3176,-1.3509,-1.343,-1.3295,-1.321,0.0,0.0,0.0,0.0,0.0,0.0,0.0,-1.1985,-1.2515,-1.2522,-1.2625,-1.3205,-1.3101,-1.2904,-1.2788,0.0,0.0,-1.0961,-1.0619,-1.0465,-1.0663,-1.0676,-1.069,-1.0913,-1.0965,-1.0952,0.0,0.0,0.0,0.0,0.0,0.0,0.0,0.0,-1.3106,-1.3105,0.0,-1.3105,0.0,0.0,0.0,0.0,0.0,0.0,0.0,0.0,-1.2846,-1.2688,-1.2334,-1.2462,-1.2609,-1.2716,-1.2846,-1.2885,-1.2871,-1.2813,0.0,0.0,0.0,0.0,0.0,0.0,-0.8054,-0.7911,-0.7826,-0.7414,-0.662,-0.5843,-0.4999,-0.4096,-0.299,-0.2275,-0.2012,-0.1875,-0.1886,-0.2089,-0.2471,0.0,0.0,0.0,0.0,0.0,0.0,0.0,0.0,0.0,0.0,0.0,0.0,0.0,0.0,0.0,0.0,0.0,0.0,0.0,0.0,-0.3814,0.0,0.0,0.0,0.0,0.0,0.0,0.0,0.0,0.0,0.0,-1.2887,-1.3334,-1.3653,-1.3495,0.0,0.0,0.0,0.0,-1.2754,-1.2383,-1.2257,-1.2133,-1.1949,-1.1848,-1.1985,-1.2515,0.0,0.0,-1.3613,-1.4067,-1.4083,-1.3462,-1.3808,-1.373,-1.1899,-1.1016,-1.0714,-1.1189,-1.1281,-1.1451,-1.2021,-1.2018,-1.2032,-1.819,0.0,0.0,0.0,0.0,-1.5456,-1.517,-1.511,-1.4728,-1.4299,-1.3898,-1.4255,0.0,0.0,0.0,0.0,0.0,0.0,-1.3483,-1.3471,-1.3618,-1.368,-1.369,-1.3296,-1.3205,-1.3318,-1.2899,-1.2678,-1.2681,-1.2678,-1.2362,-1.1774,0.0,0.0,0.0,0.0,-0.8587,-0.8013,-0.7941,-0.7568,-0.6827,-0.6397,-0.5481,-0.3978,-0.3041,-0.2423,-0.2154,-0.2012,-0.1927,-0.1886,-0.2185,0.0,0.0,0.0,0.0,0.0,0.0,0.0,0.0,0.0,0.0,0.0,0.0,0.0,0.0,0.0,0.0,0.0,0.0,0.0,-0.4241,-0.482,-0.573,0.0,0.0,0.0,0.0,0.0,0.0,0.0,0.0,0.0,-1.3462,-1.3544,-1.3573,0.0,0.0,-1.3329,-1.3346,-1.3086,-1.2797,-1.2562,0.0,0.0,0.0,-1.197,-1.2088,-1.2647,-1.3333,-1.3967,-1.4447,-1.462,-1.4596,-1.4339,-1.4387,-1.4135,-1.3269,-1.2359,-1.1869,-1.1975,-1.2002,-1.2027,-1.2215,-1.2268,-1.2268,-1.9622,-1.8295,-1.7956,-1.7553,-1.7078,-1.6742,-1.6601,-1.6539,-1.6227,-1.5897,-1.5549,-1.5574,-1.5429,-1.514,-1.4805,0.0,0.0,0.0,-1.4344,-1.4246,-1.4364,-1.4353,-1.4271,-1.393,-1.3825,-1.3895,-1.3267,-1.2975,-1.3035,-1.2767,-1.2469,-1.2106,0.0,0.0,-1.0192,-0.9844,-0.9296,-0.8584,-0.8526,-0.8131,-0.7351,-0.6766,-0.5779,-0.4388,-0.3484,-0.2908,-0.2642,-0.227,-0.204,-0.1924,-0.202,-0.2265,0.0,0.0,0.0,0.0,0.0,0.0,0.0,0.0,0.0,0.0,0.0,-0.4286,0.0,0.0,0.0,0.0,-0.4081,-0.4477,-0.4589,-0.5154,0.0,0.0,0.0,0.0,0.0,0.0,0.0,-1.3187,-1.352,-1.3715,-1.3591,-1.3526,-1.3493,-1.3395,-1.3379,-1.3329,-1.3379,0.0,-1.2904,-1.2675,-1.2483,-1.2359,-1.2216,-1.2075,-1.2169,-1.2694,-1.3642,-1.4342,-1.46,-1.4765,-1.4842,-1.4794,-1.4686,-1.4498,-1.4151,-1.3583,-1.3063,-1.2831,-1.2763,-1.2815,-1.3074,-1.3141,-1.3128,-2.0685,-2.0669,-1.9749,-1.8608,-1.7481,-1.748,-1.7489,-1.7474,-1.7478,-1.7548,-1.754,-1.6882,-1.6631,-1.6618,-1.5965,0.0,-1.5595,-1.5669,-1.5414,-1.4995,-1.5049,-1.4873,-1.4464,-1.4417,-1.4436,-1.4554,-1.3892,-1.3642,-1.3717,-1.3075,-1.2735,-1.2653,-1.1904,-1.1542,-1.1464,-1.081,-1.0145,-0.9496,-0.9435,-0.897,-0.8087,-0.6997,-0.601,-0.5125,-0.4245,-0.365,-0.3325,-0.2652,-0.2237,-0.2118,-0.1994,-0.2017,-0.2281,0.0,0.0,0.0,0.0,0.0,0.0,0.0,0.0,0.0,0.0,0.0,0.0,0.0,0.0,0.0,-0.3617,0.0,-0.4582,-0.5194,0.0,0.0,0.0,-1.0244,-1.2582,-1.2886,-1.312,-1.3698,0.0,0.0,-1.3514,0.0,-1.3464,-1.3396,-1.3396,-1.3379,-1.3311,-1.3189,-1.2993,-1.2751,-1.2613,-1.2423,-1.2262,-1.2138,-1.2234,-1.2732,-1.3568,-1.415,-1.4327,-1.4731,-1.4939,-1.4949,-1.4887,-1.4794,-1.4746,-1.4554,-1.4367,-1.3739,-1.3553,-1.367,-1.4151,-1.4288,-1.4292,-2.1841,-2.1383,-2.1438,-2.0688,-1.9418,-1.8596,-1.8234,-1.819,-1.7703,-1.753,-1.7515,-1.7353,-1.7279,-1.7279,-1.7166,-1.681,-1.6351,-1.6412,-1.6159,-1.5674,-1.5728,-1.5747,-1.5729,-1.5273,-1.5102,-1.5164,-1.4515,-1.4187,-1.4201,-1.3512,-1.3161,-1.3103,-1.2396,-1.1831,-1.1424,-1.1319,-1.0908,-1.024,-1.0224,-0.975,-0.8774,-0.7426,-0.6486,-0.5997,-0.51,-0.4268,-0.3569,-0.3152,-0.2712,-0.2191,-0.2089,-0.2069,-0.214,-0.2393,0.0,0.0,0.0,0.0,0.0,0.0,0.0,0.0,0.0,-0.3663,-0.3603,0.0,-0.2808,0.0,-0.4276,-0.5393,-0.5502,-0.6985,0.0,0.0,-1.0453,-1.1652,-1.3098,-1.402,-1.4486,-1.4401,-1.488,-1.4962,-1.4313,-1.4244,-1.404,-1.3481,-1.3396,-1.3363,-1.3294,-1.3189,-1.303,-1.2811,-1.2655,-1.2534,-1.2379,-1.2159,-1.2197,-1.2718,-1.2971,-1.3374,-1.4235,-1.4863,-1.5193,-1.5088,-1.5147,-1.5131,-1.4963,-1.4904,-1.4847,-1.4661,-1.4418,-1.429,-1.4456,-1.447,-1.4483,-2.2612,-2.2071,-2.2192,-2.1821,-2.1043,-1.9878,-1.922,-1.8975,-1.8639,-1.8475,-1.8475,-1.8178,-1.7881,-1.7614,-1.7632,-1.7424,-1.7096,-1.7145,-1.6863,-1.6352,-1.638,-1.6344,-1.6136,-1.581,-1.5706,-1.5765,-1.5102,-1.4816,-1.4818,-1.414,-1.379,-1.3729,-1.3031,-1.2552,-1.2242,-1.2056,-1.1621,-1.0991,-1.0736,-1.0288,-0.9687,-0.8773,-0.8005,-0.7384,-0.6432,-0.5342,-0.4122,-0.3571,-0.2962,-0.2279,-0.2384,-0.2369,-0.2218,-0.2451,-0.265,0.0,0.0,0.0,0.0,0.0,0.0,0.0,0.0,0.0,0.0,0.0,-0.3256,0.0,-0.5516,0.0,-0.6765,-0.7914,-0.9121,-1.0242,-1.1111,-1.219,-1.3683,-1.4552,-1.5031,-1.5081,-1.5435,-1.5518,-1.506,-1.4988,-1.4851,-1.4411,-1.4055,-1.3699,-1.3327,-1.3138,-1.2995,-1.2869,-1.2713,-1.2538,-1.2383,-1.2143,-1.2091,-1.2366,-1.2605,-1.2908,-1.3565,-1.4585,-1.5152,-1.479,-1.5007,-1.5283,-1.5162,-1.5072,-1.5013,-1.4982,-1.4845,-1.4752,-1.4721,-1.4721,-1.4721,-2.3216,-2.2718,-2.2527,-2.2391,-2.2229,-2.1198,-2.0399,-1.973,-1.9698,-1.9705,-1.966,-1.9091,-1.8523,-1.7951,-1.7984,-1.7924,-1.7817,-1.7849,-1.7537,-1.7015,-1.7,-1.6728,-1.6205,-1.6233,-1.6243,-1.6243,-1.5675,-1.5407,-1.5454,-1.4816,-1.4441,-1.4362,-1.3729,-1.3395,-1.3386,-1.289,-1.2316,-1.1763,-1.1156,-1.0784,-1.0656,-1.0397,-0.9822,-0.8928,-0.8017,-0.6802,-0.5276,-0.4443,-0.368,-0.302,-0.3299,-0.3261,-0.2822,-0.3113,-0.3121,0.0,-0.2817,0.0,0.0,0.0,0.0,0.0,0.0,0.0,0.0,-0.324,-0.4171,-0.6617,-0.7089,-0.7543,-0.8283,-0.8748,-0.9584,-1.0951,-1.1448,-1.2422,-1.4284,-1.4965,-1.5428,-1.579,-1.5908,-1.5923,-1.5784,-1.5731,-1.5731,-1.5494,-1.4929,-1.4251,-1.3494,-1.3153,-1.2979,-1.2908,-1.2719,-1.2503,-1.2327,-1.2123,-1.2027,-1.2046,-1.2291,-1.2624,-1.2749,-1.3821,-1.4688,-1.4482,-1.4936,-1.5344,-1.5328,-1.5193,-1.5074,-1.5074,-1.5074,-1.5043,-1.4982,-1.4982,-1.5013,-2.3474,-2.3457,-2.323,-2.2803,-2.2287,-2.2301,-2.1595,-2.0445,-1.9929,-1.9705,-1.9675,-1.9555,-1.9435,-1.9316,-1.9316,-1.9016,-1.8538,-1.8523,-1.8164,-1.7535,-1.7616,-1.7301,-1.6773,-1.6818,-1.6559,-1.6067,-1.5945,-1.5912,-1.5936,-1.5277,-1.497,-1.4939,-1.428,-1.399,-1.4,0.0,0.0,0.0,-1.1921,-1.158,-1.1531,-1.093,-1.0447,-1.0078,-0.9627,0.0,-0.7999,-0.7525,-0.7034,-0.6491,-0.6504,0.0,0.0,0.0,0.0,0.0,0.0,0.0,0.0,0.0,0.0,0.0,-0.5379,-0.5722,-0.5164,-0.6296,-0.7362,-0.7928,-0.8706,-0.943,-1.006,-1.1099,-1.2028,-1.2722,-1.2721,-1.3347,-1.5076,-1.6416,-1.7084,-1.6563,-1.702,-1.7173,-1.6597,-1.6495,-1.6275,-1.5764,-1.5378,-1.4917,-1.4214,-1.3518,-1.3012,-1.2889,-1.2678,-1.2479,-1.2323,-1.2138,-1.1991,-1.2,-1.1945,-1.2164,-1.2571,-1.249,-1.3331,-1.4637,-1.5491,-1.5639,-1.5492,-1.5418,-1.5389,-1.5315,-1.5329,-1.5255,-1.5043,-1.5013,-1.5013,-2.4167,0.0,-2.3758,-2.3423,0.0,-2.2775,-2.2293,-2.162,-2.0617,-2.0004,-1.9705,-1.9705,-1.9705,-1.9705,-1.9705,-1.951,-1.9196,-1.9196,-1.8837,-1.8208,-1.8227,-1.7947,-1.7346,-1.7378,-1.7076,-1.6499,-1.6499,-1.6346,-1.6067,-1.5744,-1.5576,-1.5576,-1.4944,-1.4683,-1.4761,-1.4318,-1.3679,-1.285,-1.258,-1.2436,-1.2437,-1.209,-1.1646,-1.1172,0.0,0.0,0.0,0.0,0.0,0.0,0.0,0.0,0.0,0.0,0.0,-0.6201,-0.6173,-0.6264,-0.6472,-0.6557,-0.6668,-0.688,-0.8014,-0.8168,-0.6787,-0.8503,-0.9661,-0.9742,-1.0505,-1.1225,-1.1794,-1.2613,-1.3377,-1.3922,-1.4098,-1.473,-1.5984,-1.7117,-1.7664,-1.7398,-1.7596,-1.7642,-1.7304,-1.7236,-1.7117,-1.6728,-1.6236,-1.5821,-1.5349,-1.4294,-1.3347,-1.2857,-1.262,-1.2459,-1.2307,-1.2123,-1.1991,-1.1991,-1.1891,-1.1939,-1.2209,-1.2022,-1.2276,-1.3545,-1.4785,-1.5755,-1.5683,-1.558,-1.5477,-1.5418,-1.5403,-1.5359,-1.5193,-1.5163,-1.5149,-2.4876,-2.4098,-2.4153,-2.3925,-2.3465,-2.3014,-2.2772,-2.2619,0.0,0.0,0.0,-1.9705,-1.9705,-1.9705,-1.9705,-1.9705,-1.9705,-1.9705,-1.939,-1.8882,-1.8882,-1.8542,-1.7977,-1.7977,-1.7663,-1.7136,-1.7121,-1.6864,-1.6376,-1.6312,-1.6294,-1.6248,-1.5703,-1.5418,-1.544,-1.5129,-1.4438,-1.3383,-1.3446,-1.3501,-1.3519,-1.3572,-1.3255,-1.2605,-1.2313,-1.1608,-1.0444,-1.0113,-0.9734,-0.9287,-0.9577,-0.9515,-0.9012,-0.9297,-0.9172,-0.8543,-0.8609,-0.8777,-0.8967,-0.9246,-0.9554,-0.9909,-1.1083,-1.0893,-0.8825,-1.03,-1.1514,-1.1823,-1.2405,-1.3003,-1.3675,-1.4046,-1.449,-1.5089,-1.542,-1.5937,-1.6888,-1.7514,-1.7861,-1.7883,-1.7822,-1.7811,-1.7772,-1.7755,-1.7789,-1.7665,-1.711,-1.6602,-1.6292,-1.4982,-1.3616,-1.2787,-1.2538,-1.2423,-1.2323,-1.2138,-1.2012,-1.1991,-1.1891,-1.1826,-1.1826,-1.1826,-1.1826,-1.1969,-1.388,-1.5244,-1.5695,-1.5683,-1.5507,-1.5418,-1.5418,-1.5403,-1.5313,-1.5283,-1.5253,-2.5171,-2.4805,-2.4376,-2.391,-2.3494,-2.3477,-2.3161,-2.2577,-2.1291,-2.0333,-1.9705,-1.9705,-1.9705,-1.9705,-1.9705,-1.9705,-1.9705,-1.9705,-1.9666,0.0,-1.9555,-1.9196,-1.8568,-1.8568,-1.8242,-1.7625,-1.758,-1.7646,-1.7637,-1.7152,-1.6924,-1.6967,-1.6435,-1.5973,-1.5693,-1.5719,-1.5454,-1.4903,-1.501,-1.5095,-1.5177,-1.5274,-1.5335,-1.5253,-1.5073,-1.4929,-1.4729,-1.4517,-1.4479,-1.4452,-1.458,-1.4312,-1.3548,-1.3549,-1.3244,-1.2403,-1.2426,-1.2609,-1.2798,-1.3048,-1.345,-1.3952,-1.4922,-1.4425,-1.1882,-1.2026,-1.2908,-1.426,-1.4444,-1.497,-1.6075,-1.6088,-1.6197,-1.6657,-1.6229,-1.6392,-1.7714,-1.8005,-1.8065,-1.7905,-1.79,-1.7861,-1.7811,-1.7789,-1.7789,-1.771,-1.7467,-1.7142,-1.6221,-1.4955,-1.3706,-1.2815,-1.2483,-1.2383,-1.2302,-1.2138,-1.2012,-1.1991,-1.1891,-1.1826,-1.1826,-1.1826,-1.1826,-1.1826,-1.3166,-1.4453,-1.5529,-1.5785,-1.5668,-1.5522,-1.5492,-1.5433,-1.5343,-1.5253,-1.5222,-2.5747,-2.5555,-2.533,-2.4781,-2.3956,-2.3716,-2.3251,-2.2694,-2.2054,-2.141,-2.0767,-2.0408,-2.0243,-2.0213,-1.9891,-1.9705,-1.9705,-1.9705,-1.9705,-1.9705,-1.9705,-1.9525,-1.9271,-1.9241,-1.8882,-1.8268,-1.8335,-1.8221,-1.7938,-1.7699,-1.767,-1.7746,-1.7286,-1.6991,-1.6901,-1.6701,-1.6539,-1.6402,-1.5737,-1.5459,-1.5559,-1.5678,-1.5791,-1.5847,-1.5865,-1.5902,-1.5939,-1.5904,-1.5923,-1.5993,-1.6079,-1.5937,-1.5569,-1.5613,-1.5447,-1.4975,-1.507,-1.5225,-1.5379,-1.571,-1.6035,-1.6362,-1.6825,-1.6604,-1.5349,-1.5291,-1.5615,-1.6277,-1.6206,-1.6284,-1.6812,-1.701,-1.7184,-1.7328,-1.7323,-1.7574,-1.8063,-1.8211,-1.813,-1.7966,-1.7922,-1.7878,-1.7794,-1.7789,-1.7772,-1.7687,-1.7572,-1.7117,-1.6186,-1.5174,-1.4184,-1.3359,-1.2772,-1.2415,-1.2302,-1.2138,-1.2012,-1.1991,-1.1891,-1.1826,-1.1826,-1.1826,-1.1826,-1.1901,-1.2897,-1.4214,-1.5544,-1.5726,-1.5639,-1.5551,-1.5492,-1.5403,-1.5268,-1.5131,-1.4994,-2.6179,-2.5958,-2.6159,-2.5579,-2.4655,-2.4074,-2.355,-2.3116,-2.2951,-2.2592,-2.2069,-2.1306,-2.0932,-2.0872,-2.0363,-2.0139,-2.0139,-2.0139,-2.0175,-2.0124,-1.9989,-1.9914,-1.9884,-1.9779,-1.9405,-1.9006,-1.903,-1.8857,-1.8455,-1.8371,-1.8361,-1.8361,-1.8071,-1.8003,-1.8194,-1.7854,-1.7781,-1.7863,-1.6998,-1.6403,-1.6143,-1.6287,-1.6402,-1.6513,-1.6622,-1.6677,-1.6816,-1.6915,-1.7068,-1.7309,-1.7405,-1.7539,-1.773,-1.7819,-1.7835,-1.7822,-1.7924,-1.7985,-1.7974,-1.827,-1.8402,-1.8289,-1.8354,-1.837,-1.8364,-1.8313,-1.8113,-1.7805,-1.7538,-1.7447,-1.755,-1.7778,-1.7964,-1.7861,-1.821,-1.8375,-1.836,-1.8274,-1.8151,-1.8065,-1.7983,-1.79,-1.7833,-1.7811,-1.7772,-1.7664,-1.7519,-1.7047,-1.6301,-1.5511,-1.4627,-1.3855,-1.2973,-1.2374,-1.2282,-1.2117,-1.2012,-1.1991,-1.1869,-1.1826,-1.1826,-1.1826,-1.1826,-1.1939,-1.2873,-1.4162,-1.5382,-1.5654,-1.5551,-1.5477,-1.5433,-1.5314,-1.5131,-1.4963,-1.4794,-2.6141,-2.5865,-2.6153,-2.5957,-2.5418,-2.4761,-2.4433,-2.4313,-2.3804,-2.3475,-2.3266,-2.2143,-2.1635,-2.1605,-2.1515,-2.144,-2.144,-2.15,-2.147,-2.1395,-2.0902,-2.0617,-2.0572,-2.0004,-1.9696,-1.9722,-1.9737,-1.9768,-1.9806,-1.9375,-1.8967,-1.8682,-1.8605,-1.8781,-1.9046,-1.9132,-1.9316,-1.9655,-1.9772,-1.9184,-1.7864,-1.7914,-1.8099,-1.8348,-1.8294,-1.8391,-1.8627,-1.8846,-1.9305,-2.003,-2.0191,-2.066,-2.1324,-2.1569,-2.1676,-2.167,-2.1817,-2.1732,-2.1224,-2.1264,-2.0923,-2.0253,-2.0144,-2.0115,-2.0031,-1.9985,-1.955,-1.881,-1.8411,-1.849,-1.9004,-1.8968,-1.882,-1.8664,-1.8569,-1.8485,-1.8463,-1.8319,-1.819,-1.819,-1.8065,-1.7961,-1.7883,-1.7833,-1.7743,-1.7612,-1.7482,-1.7329,-1.6969,-1.5863,-1.4626,-1.3881,-1.3005,-1.2396,-1.2231,-1.2096,-1.1991,-1.1912,-1.1848,-1.1826,-1.1826,-1.1826,-1.1826,-1.1925,-1.2787,-1.4042,-1.5064,-1.5507,-1.5492,-1.5389,-1.5314,-1.5222,-1.4932,-1.4808,-1.4777,-2.6289,-2.6269,-2.663,-2.655,-2.6153,-2.548,-2.5211,-2.5181,-2.4926,-2.4582,-2.4178,-2.3655,-2.2996,-2.2263,-2.1889,-2.1714,-2.1687,-2.1689,-2.1715,-2.1694,-2.1416,-2.1291,-2.1261,-2.1098,-2.0956,-2.0963,-2.0712,-2.0639,-2.0696,-2.0351,-2.0081,-1.9925,-1.9747,-1.975,-1.9931,-1.9761,-1.9777,-2.001,-2.0235,-2.0078,-1.9681,-1.973,-1.9917,-2.0083,-1.9836,-1.9973,-2.0514,-2.0475,-2.0726,-2.1432,-2.1634,-2.1857,-2.2281,-2.2429,-2.255,-2.2604,-2.2722,-2.2701,-2.2442,-2.2506,-2.2363,-2.1997,-2.1967,-2.1704,-2.1135,-2.0971,-2.048,-1.9595,-1.9249,-1.9255,-1.9343,-1.9248,-1.9086,-1.8931,-1.877,-1.8638,-1.8505,-1.8403,-1.8298,-1.8211,-1.8104,-1.7966,-1.79,-1.7772,-1.7658,-1.7559,-1.7427,-1.733,-1.7224,-1.6223,-1.4799,-1.3394,-1.2895,-1.2738,-1.2339,-1.2091,-1.1991,-1.1912,-1.1848,-1.1826,-1.1805,-1.1805,-1.1826,-1.1826,-1.2823,-1.3977,-1.5155,-1.5359,-1.5358,-1.5284,-1.5102,-1.4963,-1.4808,-1.4651,-1.4556,-2.678,-2.6769,-2.7099,-2.7054,-2.6811,-2.6153,-2.5869,-2.5839,-2.5689,-2.533,-2.4866,-2.4851,-2.4373,-2.3445,-2.2607,-2.2209,-2.2239,-2.2224,-2.2211,-2.2188,-2.2058,-2.2004,-2.1989,-2.1843,-2.1822,-2.1864,-2.1591,-2.1439,-2.1435,-2.1277,-2.1066,-2.091,-2.0762,-2.073,-2.0809,-2.0539,-2.0531,-2.0764,-2.0975,-2.1177,-2.1394,-2.1574,-2.1569,-2.1301,-2.0945,-2.1134,-2.1814,-2.2077,-2.2318,-2.2571,-2.276,-2.2966,-2.3258,-2.3371,-2.3493,-2.3562,-2.3681,-2.3626,-2.341,-2.3417,-2.3343,-2.3108,-2.3003,-2.2669,-2.2061,-2.1807,-2.1281,-2.0391,-2.0132,-1.9942,-1.9471,-1.9308,-1.9132,-1.8981,-1.886,-1.8769,-1.8565,-1.8465,-1.8345,-1.8256,-1.8091,-1.7944,-1.7839,-1.7704,-1.7566,-1.7489,-1.7386,-1.7306,-1.7158,-1.6403,-1.5042,-1.3224,-1.3212,-1.296,-1.2328,-1.2091,-1.1991,-1.1891,-1.1826,-1.1805,-1.1768,-1.1805,-1.1805,-1.1925,-1.2887,-1.3865,-1.4892,-1.5209,-1.5222,-1.5117,-1.4963,-1.4746,-1.4637,-1.4461,-1.43,-2.7769,-2.7279,-2.7237,-2.7431,-2.752,-2.6856,-2.6572,-2.6572,-2.5944,-2.5615,-2.557,-2.557,-2.5525,-2.527,-2.4059,-2.352,-2.3505,-2.3505,-2.352,-2.3445,-2.2936,-2.272,-2.2712,-2.2124,-2.1985,-2.2332,-2.2279,-2.2102,-2.1846,-2.1859,-2.1709,-2.1326,-2.1415,-2.1582,-2.1665,-2.1797,-2.209,-2.2241,-2.2488,-2.2845,-2.3112,-2.3365,-2.2824,-2.1768,-2.1515,-2.1734,-2.2197,-2.3785,-2.439,-2.3664,-2.3767,-2.4222,-2.5005,-2.5164,-2.5219,-2.5365,-2.546,-2.5166,-2.4453,-2.4328,-2.4007,-2.3266,-2.3165,-2.2912,-2.2799,-2.2633,-2.2138,-2.1229,-2.1066,-2.0645,-1.9806,-1.9457,-1.9243,-1.9115,-1.8948,-1.8825,-1.8697,-1.8524,-1.8385,-1.8287,-1.8095,-1.79,-1.7749,-1.7658,-1.7542,-1.7425,-1.7345,-1.7281,-1.7175,-1.6403,-1.5391,-1.4507,-1.3729,-1.2952,-1.2237,-1.2012,-1.1949,-1.1869,-1.1805,-1.1783,-1.1747,-1.1747,-1.1783,-1.2082,-1.3054,-1.3934,-1.4716,-1.5027,-1.5011,-1.4918,-1.4794,-1.4606,-1.4479,-1.4351,-1.4203,-2.8296,-2.8469,-2.8454,-2.8581,-2.8786,-2.8158,-2.7874,-2.7814,-2.7156,-2.6617,-2.6273,-2.6243,-2.6019,-2.557,-2.5106,-2.4867,-2.4897,-2.4867,-2.4687,-2.4387,-2.4146,-2.3872,-2.3576,-2.3427,-2.3458,-2.3492,-2.3359,-2.3069,-2.2713,-2.2403,-2.2231,-2.21,-2.1861,-2.1811,-2.2015,-2.2243,-2.247,-2.2685,-2.2952,-2.3223,-2.3481,-2.3725,-2.3626,-2.3309,-2.3327,-2.3449,-2.3665,-2.4563,-2.4885,-2.4605,-2.4717,-2.4956,-2.5329,-2.5466,-2.556,-2.5648,-2.5681,-2.5565,-2.527,-2.5186,-2.5044,-2.4719,-2.4594,-2.4231,-2.3773,-2.3495,-2.3026,-2.2216,-2.1897,-2.1596,-2.1086,-2.0119,-1.9305,-1.9164,-1.9052,-1.8932,-1.8715,-1.8563,-1.8406,-1.8229,-1.8014,-1.7811,-1.7658,-1.7542,-1.7448,-1.7386,-1.7257,-1.7232,-1.7175,-1.6683,-1.605,-1.5583,-1.4924,-1.4034,-1.2773,-1.2197,-1.1912,-1.1848,-1.1783,-1.174,-1.1718,-1.1748,-1.1778,-1.219,-1.3103,-1.4199,-1.4982,-1.4873,-1.4856,-1.4686,-1.4529,-1.4415,-1.4319,-1.4189,-1.404,-2.8842,-2.9322,-2.9186,-2.9267,-2.9501,-2.9131,-2.8906,-2.8861,-2.8412,-2.7844,-2.732,-2.723,-2.6871,-2.6318,-2.6243,-2.6279,-2.624,-2.5905,-2.5468,-2.5137,-2.5153,-2.5016,-2.4795,-2.4664,-2.4709,-2.4725,-2.4445,-2.4042,-2.3661,-2.3335,-2.308,-2.2732,-2.2421,-2.2279,-2.2293,-2.2497,-2.2685,-2.2919,-2.3168,-2.3412,-2.3642,-2.3855,-2.4096,-2.4302,-2.4442,-2.4559,-2.467,-2.4942,-2.5111,-2.5138,-2.5262,-2.5369,-2.5452,-2.5579,-2.5656,-2.5704,-2.5696,-2.5702,-2.5685,-2.5629,-2.5576,-2.555,-2.5483,-2.5134,-2.4543,-2.4377,-2.3816,-2.3088,-2.2714,-2.2567,-2.1973,-2.0964,-2.0068,-1.9705,-1.95,-1.9201,-1.8787,-1.8582,-1.8406,-1.8163,-1.7927,-1.7749,-1.7595,-1.7496,-1.7377,-1.7322,-1.7158,-1.7133,-1.7108,-1.6831,-1.6448,-1.6145,-1.545,-1.4557,-1.3606,-1.2953,-1.2201,-1.2022,-1.1918,-1.1866,-1.194,-1.1924,-1.2068,-1.2459,-1.3246,-1.4369,-1.4873,-1.4732,-1.4592,-1.4452,-1.4324,-1.4176,-1.4092,-1.4007,-1.394,-2.9493,-2.9997,-2.9407,-2.9474,-2.9733,-2.9645,-2.9579,-2.9579,-2.949,-2.9041,-2.8502,-2.8547,-2.8158,-2.7664,-2.755,-2.763,-2.7489,-2.6557,-2.5968,-2.5847,-2.5986,-2.6107,-2.6178,-2.5623,-2.5512,-2.5711,-2.5409,-2.5008,-2.4551,-2.4603,-2.4166,-2.3314,-2.3274,-2.3028,-2.2549,-2.2763,-2.2919,-2.3102,-2.3365,-2.3598,-2.3795,-2.3999,-2.4192,-2.4425,-2.466,-2.4802,-2.4808,-2.4987,-2.5138,-2.5203,-2.5341,-2.5468,-2.5585,-2.5648,-2.5701,-2.5693,-2.5703,-2.5693,-2.5691,-2.5643,-2.5585,-2.5506,-2.5461,-2.5348,-2.5148,-2.5045,-2.4636,-2.3891,-2.3577,-2.3205,-2.2461,-2.206,-2.1504,-2.0688,-2.037,-1.9921,-1.9199,-1.8672,-1.8383,-1.807,-1.7873,-1.7704,-1.7549,-1.7448,-1.7321,-1.7166,-1.7066,-1.7032,-1.6956,-1.6675,-1.6367,-1.6001,-1.5598,-1.4932,-1.4302,-1.371,-1.2894,-1.2238,-1.2156,-1.2118,-1.2448,-1.2551,-1.2686,-1.3055,-1.3573,-1.462,-1.4655,-1.4543,-1.4415,-1.4273,-1.4111,-1.406,-1.4139,-1.4104,-1.4002,-3.0172,-3.0748,-3.0557,-3.0613,-3.0827,-3.0447,-3.0208,-3.0163,-2.9774,-2.9475,-2.9295,-2.928,-2.9146,-2.8914,-2.8591,-2.8469,-2.8444,-2.7746,-2.7204,-2.6824,-2.6918,-2.6811,-2.6559,-2.6514,-2.6467,-2.627,-2.577,-2.5577,-2.5576,-2.5309,-2.493,-2.4688,-2.3926,-2.3551,-2.3436,-2.3197,-2.3119,-2.3295,-2.3513,-2.3714,-2.3937,-2.4135,-2.4338,-2.4543,-2.4749,-2.4893,-2.4987,-2.5115,-2.5214,-2.5341,-2.5412,-2.5511,-2.5586,-2.5652,-2.5687,-2.5698,-2.5703,-2.5687,-2.5687,-2.5619,-2.5585,-2.5499,-2.5445,-2.534,-2.5233,-2.5164,-2.4924,-2.4528,-2.4436,-2.4166,-2.3822,-2.3615,-2.283,-2.1424,-2.1134,-2.0856,-2.021,-1.9535,-1.8754,-1.8051,-1.7789,-1.7612,-1.7472,-1.7345,-1.7232,-1.7066,-1.6914,-1.6785,-1.6827,-1.657,-1.6285,-1.6006,-1.5646,-1.5337,-1.4779,-1.4359,-1.386,-1.3134,-1.2829,-1.2687,-1.2972,-1.3147,-1.3293,-1.3529,-1.4098,-1.4373,-1.4388,-1.4365,-1.4235,-1.4145,-1.404,-1.4125,-1.4319,-1.4332,-1.423,-3.0551,-3.1058,-3.1087,-3.1264,-3.1437,-3.1046,-3.0896,-3.0836,-3.0477,-3.0163,-2.9968,-2.9924,-2.9828,-2.9642,-2.9343,-2.9267,-2.928,-2.8859,-2.8437,-2.8056,-2.7889,-2.769,-2.7467,-2.7597,-2.7313,-2.6756,-2.639,-2.6233,-2.6241,-2.5932,-2.5747,-2.5567,-2.4949,-2.4361,-2.4085,-2.3786,-2.3631,-2.3593,-2.3707,-2.3917,-2.4096,-2.4303,-2.4478,-2.467,-2.4851,-2.5013,-2.5138,-2.5214,-2.5313,-2.5385,-2.549,-2.5568,-2.5628,-2.5675,-2.5705,-2.5703,-2.5696,-2.5687,-2.5671,-2.5615,-2.5531,-2.5464,-2.5395,-2.5313,-2.5209,-2.5137,-2.5006,-2.4884,-2.4783,-2.4682,-2.4479,-2.4321,-2.3657,-2.259,-2.2037,-2.1547,-2.0955,-2.0169,-1.931,-1.858,-1.8158,-1.7802,-1.7436,-1.724,-1.7083,-1.694,-1.6727,-1.6596,-1.6639,-1.6463,-1.6203,-1.6037,-1.5905,-1.5581,-1.5203,-1.4928,-1.474,-1.4173,-1.3624,-1.351,-1.3561,-1.3584,-1.3643,-1.3777,-1.4165,-1.4164,-1.4176,-1.417,-1.4086,-1.402,-1.4096,-1.438,-1.4611,-1.4657,-1.4623,-3.0727,-3.122,-3.1235,-3.1412,-3.1586,-3.1599,-3.1524,-3.1437,-3.1392,-3.1076,-3.0657,-3.0567,-3.0393,-3.0036,-2.9969,-3.0038,-3.0097,-2.9577,-2.9373,-2.9288,-2.8933,-2.867,-2.8896,-2.8721,-2.8086,-2.731,-2.7201,-2.6992,-2.6671,-2.659,-2.6517,-2.6189,-2.6078,-2.5645,-2.4813,-2.4612,-2.429,-2.3974,-2.3967,-2.4114,-2.4284,-2.4497,-2.466,-2.4808,-2.4947,-2.5099,-2.5222,-2.534,-2.5421,-2.5434,-2.5556,-2.5634,-2.5691,-2.5703,-2.5701,-2.5701,-2.569,-2.5656,-2.56,-2.5537,-2.5464,-2.5404,-2.5341,-2.5269,-2.518,-2.5044,-2.494,-2.4813,-2.4707,-2.4599,-2.443,-2.4247,-2.3983,-2.3687,-2.2905,-2.2024,-2.0917,-2.0522,-1.9952,-1.9181,-1.8792,-1.8377,-1.7535,-1.7304,-1.7036,-1.6701,-1.6596,-1.6517,-1.6436,-1.6313,-1.616,-1.6037,-1.5926,-1.5722,-1.537,-1.5183,-1.5037,-1.4747,-1.4256,-1.4113,-1.4041,-1.3997,-1.3947,-1.4077,-1.4028,-1.3979,-1.402,-1.4067,-1.4151,-1.425,-1.4443,-1.4732,-1.4941,-1.5031,-1.5145,-3.2178,-3.2517,-3.264,-3.2541,-3.2228,-3.2258,-3.1958,-3.1511,-3.1482,-3.1362,-3.1255,-3.127,-3.1249,-3.1227,-3.0824,-3.0815,-3.0806,-3.0037,-2.9744,-2.991,-2.9406,-2.9305,-2.9444,-2.914,-2.8854,-2.857,-2.7977,-2.7547,-2.7538,-2.7197,-2.7049,-2.7091,-2.6726,-2.6486,-2.6136,-2.5302,-2.4843,-2.465,-2.4312,-2.4229,-2.4373,-2.4578,-2.4768,-2.4921,-2.5063,-2.5201,-2.5331,-2.5464,-2.555,-2.5549,-2.5634,-2.5683,-2.5701,-2.5699,-2.5703,-2.5689,-2.5668,-2.5634,-2.5587,-2.5492,-2.541,-2.5341,-2.5271,-2.5184,-2.5063,-2.4985,-2.487,-2.4753,-2.4629,-2.4497,-2.4339,-2.4171,-2.3873,-2.3486,-2.314,-2.2559,-2.1707,-2.1232,-2.0696,-1.9782,-1.9467,-1.8887,-1.8143,-1.7716,-1.7423,-1.6828,-1.6568,-1.6398,-1.6359,-1.6219,-1.6065,-1.5926,-1.5827,-1.5697,-1.5551,-1.5418,-1.5255,-1.5121,-1.4813,-1.4546,-1.4473,-1.441,-1.4322,-1.4296,-1.3946,-1.3835,-1.4025,-1.4136,-1.4319,-1.4513,-1.4787,-1.5057,-1.5374,-1.556,-1.5746,-3.2752,-3.3018,-3.322,-3.3183,-3.2901,-3.2632,-3.2302,-3.1943,-3.1644,-3.1467,-3.1539,-3.1612,-3.1727,-3.1853,-3.1698,-3.1719,-3.1736,-3.0772,-3.0459,-3.0449,-2.992,-2.977,-2.9827,-2.9623,-2.9576,-2.9549,-2.8992,-2.8539,-2.8203,-2.7837,-2.7733,-2.7595,-2.7412,-2.7236,-2.6933,-2.6423,-2.5673,-2.5296,-2.4947,-2.4763,-2.4564,-2.4685,-2.4847,-2.5038,-2.5168,-2.5313,-2.5461,-2.555,-2.5609,-2.5605,-2.5656,-2.5693,-2.5698,-2.5703,-2.5693,-2.5662,-2.563,-2.5582,-2.5518,-2.5426,-2.534,-2.5262,-2.5176,-2.5069,-2.4966,-2.487,-2.4768,-2.4645,-2.453,-2.4393,-2.421,-2.3996,-2.3682,-2.336,-2.3168,-2.2805,-2.2168,-2.1917,-2.1322,-2.0532,-2.0014,-1.9618,-1.8653,-1.8363,-1.7829,-1.7235,-1.6868,-1.6611,-1.6354,-1.6169,-1.5955,-1.5799,-1.5683,-1.5595,-1.5492,-1.5358,-1.5117,-1.5025,-1.4839,-1.4683,-1.4574,-1.4497,-1.4369,-1.4189,-1.3861,-1.3765,-1.4037,-1.4349,-1.4642,-1.4865,-1.5107,-1.5461,-1.5838,-1.596,-1.6183,-3.3084,-3.3273,-3.3413,-3.3555,-3.3514,-3.2901,-3.2587,-3.2377,-3.1809,-3.1539,-3.1597,-3.1727,-3.1898,-3.2038,-3.2155,-3.2477,-3.2563,-3.1526,-3.1114,-3.0768,-3.038,-3.0146,-3.0326,-3.0402,-3.0299,-3.0179,-3.02,-2.9658,-2.904,-2.8754,-2.8399,-2.8164,-2.8152,-2.787,-2.7558,-2.7434,-2.683,-2.6031,-2.5672,-2.5402,-2.5039,-2.4979,-2.4975,-2.5126,-2.5293,-2.5429,-2.5557,-2.5615,-2.5595,-2.5595,-2.5651,-2.5697,-2.5703,-2.5694,-2.5662,-2.5605,-2.5568,-2.5518,-2.5406,-2.5331,-2.5243,-2.5176,-2.5057,-2.494,-2.4856,-2.4734,-2.461,-2.4478,-2.4411,-2.4266,-2.4054,-2.3768,-2.3481,-2.3217,-2.3012,-2.279,-2.2579,-2.2377,-2.1928,-2.1066,-2.0722,-2.013,-1.9444,-1.8919,-1.8507,-1.7704,-1.7296,-1.6914,-1.6552,-1.6255,-1.5932,-1.5595,-1.5522,-1.5507,-1.5388,-1.5238,-1.498,-1.4794,-1.4588,-1.4429,-1.4319,-1.4241,-1.4189,-1.406,-1.4093,-1.4149,-1.4243,-1.4543,-1.4942,-1.5285,-1.5598,-1.5973,-1.6321,-1.6283,-1.6434,-3.4522,-3.4732,-3.4942,-3.4707,-3.4218,-3.3559,-3.2976,-3.2467,-3.1824,-3.1612,-3.1727,-3.1799,-3.1996,-3.2287,-3.2398,-3.2672,-3.2845,-3.1792,-3.0975,-3.0412,-3.0461,-3.0651,-3.0855,-3.0935,-3.0954,-3.0866,-3.0685,-3.049,-3.0227,-2.9478,-2.9018,-2.9048,-2.8658,-2.842,-2.8385,-2.8009,-2.7764,-2.7321,-2.6522,-2.596,-2.5731,-2.5336,-2.5184,-2.5283,-2.5437,-2.5551,-2.559,-2.5629,-2.5664,-2.5677,-2.5702,-2.5683,-2.5691,-2.5655,-2.561,-2.5568,-2.5485,-2.5418,-2.5331,-2.5214,-2.5103,-2.5044,-2.4921,-2.4813,-2.467,-2.4594,-2.4478,-2.4338,-2.4266,-2.4094,-2.3828,-2.3544,-2.3289,-2.3045,-2.2816,-2.2579,-2.2377,-2.2192,-2.1886,-2.1553,-2.1231,-2.0762,-1.9872,-1.9593,-1.9045,-1.8285,-1.7746,-1.7288,-1.6893,-1.6502,-1.598,-1.5624,-1.5593,-1.5548,-1.5208,-1.5025,-1.4763,-1.4671,-1.4487,-1.4345,-1.4266,-1.4086,-1.4047,-1.4235,-1.4534,-1.4616,-1.4635,-1.5031,-1.5473,-1.58,-1.6061,-1.6258,-1.6459,-1.6522,-1.6534,-3.5001,-3.5213,-3.5439,-3.5115,-3.4427,-3.3784,-3.311,-3.2467,-3.1882,-3.167,-3.1784,-3.1883,-3.215,-3.2398,-3.2617,-3.2833,-3.2519,-3.1645,-3.0833,-3.0514,-3.0609,-3.0895,-3.119,-3.1346,-3.1445,-3.1528,-3.1493,-3.1359,-3.0984,-3.0588,-3.0083,-2.9611,-2.9285,-2.9082,-2.8965,-2.8673,-2.8435,-2.8147,-2.7612,-2.6961,-2.6306,-2.6006,-2.5601,-2.5506,-2.5557,-2.5615,-2.5648,-2.5685,-2.5702,-2.57,-2.567,-2.5654,-2.5655,-2.563,-2.5582,-2.5492,-2.5418,-2.5303,-2.5203,-2.5122,-2.5013,-2.4926,-2.4779,-2.467,-2.4559,-2.4478,-2.4357,-2.421,-2.4095,-2.3915,-2.3571,-2.3342,-2.3119,-2.2893,-2.2676,-2.2443,-2.222,-2.2044,-2.1869,-2.1648,-2.1339,-2.0926,-2.0496,-2.0082,-1.9638,-1.887,-1.8522,-1.8093,-1.7576,-1.7089,-1.6216,-1.5841,-1.5794,-1.5599,-1.511,-1.4794,-1.4543,-1.4515,-1.454,-1.4492,-1.4435,-1.419,-1.3967,-1.4358,-1.4773,-1.5044,-1.5183,-1.5598,-1.5885,-1.6162,-1.6333,-1.6471,-1.6534,-1.6534,-1.6534,-3.5001,-3.5213,-3.5424,-3.5115,-3.4427,-3.3769,-3.311,-3.2526,-3.2013,-3.1856,-3.1883,-3.2094,-3.2281,-3.2408,-3.2701,-3.2588,-3.196,-3.153,-3.0937,-3.0634,-3.0855,-3.1134,-3.1385,-3.1651,-3.1856,-3.1946,-3.2074,-3.1914,-3.1774,-3.1666,-3.1168,-3.0324,-2.9988,-2.98,-2.947,-2.9291,-2.9119,-2.876,-2.8547,-2.8089,-2.7038,-2.6724,-2.6185,-2.5687,-2.5605,-2.5629,-2.5668,-2.5702,-2.5699,-2.5698,-2.5628,-2.559,-2.5587,-2.5556,-2.5511,-2.5379,-2.5312,-2.5233,-2.5103,-2.5013,-2.4893,-2.4779,-2.4657,-2.4526,-2.4444,-2.4321,-2.4173,-2.4056,-2.3876,-2.3685,-2.3389,-2.3168,-2.2952,-2.2764,-2.2596,-2.2343,-2.2073,-2.1899,-2.1738,-2.1526,-2.1246,-2.0862,-2.0667,-2.0374,-1.9942,-1.9544,-1.922,-1.8854,-1.8338,-1.7757,-1.6931,-1.6276,-1.6268,-1.5981,-1.5496,-1.5272,-1.4923,-1.4735,-1.4785,-1.4765,-1.4719,-1.4592,-1.4479,-1.4629,-1.4968,-1.5309,-1.561,-1.5834,-1.612,-1.6434,-1.6534,-1.6534,-1.6534,-1.6534,-1.6534,-3.5082,-3.5424,-3.5504,-3.51,-3.4412,-3.3769,-3.3126,-3.263,-3.204,-3.1955,-3.215,-3.2287,-3.2269,-3.2179,-3.2285,-3.1895,-3.1467,-3.127,-3.1139,-3.0864,-3.1095,-3.1346,-3.1671,-3.1929,-3.2144,-3.2336,-3.2456,-3.2497,-3.2487,-3.2313,-3.2091,-3.1754,-3.0876,-3.0331,-3.0169,-2.9886,-2.9569,-2.9458,-2.9193,-2.8772,-2.831,-2.7258,-2.6401,-2.579,-2.571,-2.5668,-2.5683,-2.5699,-2.5676,-2.5639,-2.5604,-2.5538,-2.5471,-2.543,-2.5382,-2.5331,-2.5243,-2.5134,-2.5032,-2.4893,-2.4779,-2.4639,-2.4495,-2.4375,-2.4248,-2.4134,-2.3978,-2.3813,-2.362,-2.3412,-2.3265,-2.302,-2.2764,-2.2596,-2.2443,-2.2243,-2.1899,-2.1661,-2.1509,-2.1309,-2.1055,-2.081,-2.061,-2.0407,-2.0051,-1.9726,-1.9506,-1.9265,-1.8951,-1.8411,-1.7772,-1.7225,-1.6852,-1.6438,-1.5968,-1.5828,-1.5604,-1.5336,-1.5283,-1.5265,-1.5194,-1.5119,-1.512,-1.526,-1.5499,-1.5872,-1.6082,-1.6145,-1.6271,-1.6497,-1.6534,-1.6534,-1.6534,-1.6534,-1.6534,-3.5148,-3.5459,-3.513,-3.4577,-3.3918,-3.3321,-3.278,-3.2251,-3.2076,-3.215,-3.2302,-3.2437,-3.2369,-3.2237,-3.2336,-3.1935,-3.1455,-3.1156,-3.1132,-3.1055,-3.1368,-3.1596,-3.1875,-3.2144,-3.2404,-3.2606,-3.277,-3.2912,-3.3111,-3.3071,-3.283,-3.2375,-3.1565,-3.1027,-3.0635,-3.0095,-2.9912,-2.9916,-2.9786,-2.9483,-2.91,-2.7633,-2.6668,-2.6353,-2.5902,-2.5703,-2.5698,-2.5671,-2.5632,-2.5599,-2.5557,-2.5449,-2.5365,-2.5303,-2.5284,-2.5241,-2.5145,-2.5038,-2.4907,-2.4779,-2.4642,-2.4495,-2.4338,-2.4192,-2.4095,-2.3955,-2.375,-2.3553,-2.3412,-2.3168,-2.2995,-2.2799,-2.2605,-2.2415,-2.2287,-2.2089,-2.1751,-2.1448,-2.123,-2.1071,-2.0893,-2.0677,-2.0475,-2.027,-2.0061,-1.9884,-1.9741,-1.9545,-1.9339,-1.8848,-1.8245,-1.7582,-1.7018,-1.6624,-1.6261,-1.6126,-1.6078,-1.5875,-1.575,-1.575,-1.5775,-1.5722,-1.5794,-1.5926,-1.6195,-1.6346,-1.6371,-1.6358,-1.6471,-1.6534,-1.6534,-1.6534,-1.6534,-1.6534,-1.6491,-3.5059,-3.525,-3.4711,-3.4085,-3.3321,-3.29,-3.2387,-3.2031,-3.215,-3.2287,-3.2437,-3.2447,-3.2332,-3.2111,-3.2015,-3.1795,-3.1414,-3.0974,-3.1089,-3.1308,-3.1634,-3.1839,-3.2091,-3.2335,-3.2639,-3.2816,-3.3099,-3.328,-3.3339,-3.3524,-3.3411,-3.2988,-3.2344,-3.1701,-3.1186,-3.0423,-3.024,-3.0226,-3.0348,-3.0036,-2.9171,-2.799,-2.7071,-2.6942,-2.6171,-2.5698,-2.5673,-2.5628,-2.5579,-2.5512,-2.5449,-2.5339,-2.5254,-2.519,-2.5134,-2.5099,-2.5019,-2.4902,-2.476,-2.4639,-2.4493,-2.4338,-2.4154,-2.4037,-2.3915,-2.3743,-2.3522,-2.3265,-2.3119,-2.297,-2.2764,-2.2605,-2.2415,-2.2248,-2.2118,-2.1928,-2.1556,-2.1214,-2.0942,-2.0778,-2.0677,-2.0543,-2.0339,-2.0096,-1.9869,-1.9726,-1.9581,-1.9398,-1.9176,-1.8988,-1.8394,-1.7622,-1.7068,-1.6729,-1.6474,-1.6361,-1.6336,-1.6244,-1.6202,-1.6196,-1.6255,-1.6328,-1.6355,-1.6283,-1.6358,-1.6471,-1.6522,-1.6534,-1.6534,-1.6534,-1.6534,-1.6534,-1.6534,-1.6479,-1.6436,-3.4792,-3.4607,-3.4487,-3.3815,-3.2885,-3.2734,-3.2516,-3.2181,-3.2287,-3.2468,-3.2586,-3.2332,-3.2029,-3.1614,-3.1038,-3.0839,-3.0899,-3.1116,-3.1274,-3.1542,-3.1802,-3.2073,-3.2318,-3.2555,-3.2816,-3.3068,-3.3386,-3.353,-3.3643,-3.3842,-3.4037,-3.3743,-3.277,-3.2128,-3.1936,-3.0773,-3.0265,-3.0367,-3.046,-3.0197,-2.9512,-2.8556,-2.7798,-2.7031,-2.6303,-2.5732,-2.5648,-2.5579,-2.5538,-2.5441,-2.5359,-2.5264,-2.5149,-2.5037,-2.4955,-2.4888,-2.4851,-2.4823,-2.4639,-2.4491,-2.4319,-2.4173,-2.3999,-2.3855,-2.3682,-2.3481,-2.3223,-2.2995,-2.2893,-2.2721,-2.2535,-2.2326,-2.213,-2.2044,-2.1974,-2.1708,-2.1356,-2.086,-2.0595,-2.0512,-2.0392,-2.0323,-2.0185,-1.994,-1.9726,-1.9566,-1.942,-1.925,-1.8988,-1.8721,-1.8542,-1.7777,-1.7287,-1.6956,-1.6731,-1.6652,-1.6517,-1.6484,-1.6504,-1.6532,-1.6515,-1.6511,-1.6489,-1.6471,-1.6534,-1.6479,-1.6479,-1.6479,-1.6491,-1.6491,-1.6491,-1.6491,-1.6534,-1.6479,-1.6392,-3.4129,-3.4412,-3.3802,-3.3216,-3.2704,-3.2516,-3.241,-3.2333,-3.2468,-3.2687,-3.2833,-3.2499,-3.1997,-3.1375,-3.0856,-3.0749,-3.1015,-3.1291,-3.1521,-3.1783,-3.2037,-3.2284,-3.2506,-3.2784,-3.3086,-3.3339,-3.3597,-3.3842,-3.3965,-3.4099,-3.4269,-3.4211,-3.3126,-3.2371,-3.2336,-3.103,-3.0521,-3.0471,-3.0565,-3.0523,-3.0076,-2.9379,-2.8535,-2.7691,-2.6822,-2.6173,-2.5715,-2.5506,-2.5449,-2.5339,-2.5234,-2.5107,-2.5019,-2.4915,-2.4837,-2.4689,-2.4623,-2.4556,-2.4474,-2.4301,-2.4136,-2.3959,-2.3792,-2.3598,-2.3365,-2.3175,-2.2952,-2.2685,-2.2632,-2.2497,-2.2271,-2.2084,-2.1899,-2.1781,-2.1768,-2.1448,-2.1087,-2.0561,-2.02,-2.02,-2.0115,-2.0045,-1.994,-1.9762,-1.9508,-1.9325,-1.9176,-1.8988,-1.8683,-1.8372,-1.8189,-1.7948,-1.7545,-1.7261,-1.7098,-1.6933,-1.669,-1.6629,-1.6599,-1.6587,-1.6557,-1.6509,-1.6534,-1.6479,-1.6479,-1.6479,-1.6436,-1.6436,-1.6491,-1.6491,-1.6491,-1.6448,-1.6448,-1.6318,-1.6231,-3.3453,-3.3935,-3.3066,-3.2628,-3.2564,-3.2333,-3.2302,-3.2453,-3.2687,-3.2864,-3.2855,-3.2412,-3.1783,-3.1314,-3.0958,-3.1015,-3.1308,-3.1542,-3.1783,-3.2018,-3.2301,-3.2539,-3.277,-3.3055,-3.3327,-3.3559,-3.3823,-3.4074,-3.4269,-3.4413,-3.4542,-3.4595,-3.3204,-3.2657,-3.2254,-3.1289,-3.0451,-3.0593,-3.0717,-3.0743,-3.0572,-2.9882,-2.9192,-2.8385,-2.7498,-2.6559,-2.5978,-2.5499,-2.533,-2.5234,-2.5107,-2.4975,-2.4861,-2.4779,-2.4657,-2.4512,-2.4426,-2.4302,-2.4211,-2.4079,-2.3921,-2.3732,-2.3508,-2.3271,-2.301,-2.285,-2.2677,-2.2426,-2.2371,-2.2203,-2.1986,-2.184,-2.1661,-2.1542,-2.1466,-2.1151,-2.0811,-2.0323,-1.9955,-1.9955,-1.9833,-1.9617,-1.9545,-1.9472,-1.9325,-1.9101,-1.8927,-1.8788,-1.8425,-1.8029,-1.7828,-1.7706,-1.7502,-1.7199,-1.7044,-1.6918,-1.6761,-1.6675,-1.6633,-1.659,-1.6448,-1.6491,-1.6534,-1.6479,-1.6436,-1.6392,-1.6318,-1.6405,-1.6491,-1.6405,-1.6362,-1.6362,-1.6318,-1.6188,-1.6069,-3.2765,-3.2795,-3.2749,-3.2531,-3.2283,-3.2318,-3.2453,-3.2687,-3.3081,-3.295,-3.2474,-3.1799,-3.1331,-3.0958,-3.1116,-3.1291,-3.1596,-3.1802,-3.2037,-3.2318,-3.2573,-3.2784,-3.3006,-3.3298,-3.3577,-3.3807,-3.4049,-3.4316,-3.4542,-3.4713,-3.4812,-3.4643,-3.3377,-3.2943,-3.2366,-3.1378,-3.0679,-3.0698,-3.0782,-3.0786,-3.0586,-3.009,-2.9514,-2.9031,-2.7815,-2.6734,-2.6563,-2.5754,-2.5234,-2.5126,-2.4975,-2.4828,-2.4719,-2.4594,-2.4461,-2.4339,-2.4191,-2.4057,-2.3919,-2.3858,-2.371,-2.3486,-2.3206,-2.297,-2.279,-2.2605,-2.2398,-2.2186,-2.2101,-2.1915,-2.1708,-2.1542,-2.1371,-2.123,-2.1103,-2.0893,-2.0512,-2.0065,-1.9777,-1.969,-1.9545,-1.9362,-1.9124,-1.9049,-1.9026,-1.8836,-1.8581,-1.84,-1.8109,-1.7788,-1.7529,-1.7365,-1.7282,-1.7031,-1.6803,-1.6633,-1.6534,-1.6448,-1.6417,-1.6374,-1.6275,-1.6362,-1.6448,-1.6405,-1.6318,-1.6231,-1.6188,-1.6231,-1.6231,-1.6231,-1.6188,-1.6144,-1.6057,-1.5969,-1.5836,-3.2246,-3.2418,-3.2444,-3.2405,-3.2342,-3.2468,-3.2742,-3.3027,-3.3277,-3.3072,-3.2414,-3.1858,-3.1358,-3.1183,-3.1291,-3.1579,-3.1802,-3.209,-3.2336,-3.2539,-3.2752,-3.3006,-3.325,-3.3512,-3.3807,-3.3998,-3.4269,-3.4495,-3.4708,-3.4926,-3.5092,-3.4685,-3.3551,-3.3115,-3.2458,-3.1543,-3.0899,-3.0763,-3.0786,-3.0801,-3.0733,-3.0521,-3.0019,-2.9311,-2.8337,-2.7229,-2.6612,-2.5676,-2.5229,-2.4975,-2.4847,-2.4685,-2.4545,-2.4391,-2.4266,-2.4114,-2.3958,-2.3792,-2.3642,-2.3598,-2.3486,-2.3157,-2.2876,-2.2659,-2.2552,-2.2343,-2.213,-2.1957,-2.1811,-2.1617,-2.1464,-2.1294,-2.1167,-2.0941,-2.0777,-2.061,-2.022,-1.9762,-1.956,-1.9487,-1.9325,-1.9087,-1.886,-1.8616,-1.8592,-1.8567,-1.8307,-1.8043,-1.776,-1.7502,-1.7295,-1.7073,-1.6989,-1.682,-1.6577,-1.6448,-1.6318,-1.6231,-1.6188,-1.6144,-1.61,-1.6244,-1.6275,-1.6231,-1.6144,-1.6013,-1.5969,-1.5969,-1.6013,-1.6113,-1.6013,-1.5881,-1.5792,-1.5703,-1.5629,-3.1996,-3.2247,-3.2468,-3.2523,-3.2578,-3.2742,-3.3027,-3.3351,-3.3351,-3.2935,-3.2243,-3.1741,-3.1463,-3.1414,-3.1579,-3.1839,-3.2091,-3.2353,-3.2573,-3.2802,-3.3055,-3.325,-3.3494,-3.3743,-3.3998,-3.4221,-3.4473,-3.4687,-3.4907,-3.5089,-3.5051,-3.4602,-3.3789,-3.3214,-3.2754,-3.167,-3.0806,-3.0788,-3.0801,-3.079,-3.0798,-3.0706,-3.0515,-2.9722,-2.8827,-2.7904,-2.702,-2.6109,-2.5317,-2.496,-2.4704,-2.4526,-2.4355,-2.4192,-2.4057,-2.3896,-2.3728,-2.3553,-2.3435,-2.3295,-2.3151,-2.2825,-2.2571,-2.2398,-2.226,-2.2044,-2.1827,-2.1691,-2.1526,-2.1356,-2.1183,-2.099,-2.0843,-2.0644,-2.061,-2.0392,-1.9975,-1.9508,-1.9376,-1.9242,-1.904,-1.8798,-1.8514,-1.824,-1.8121,-1.8095,-1.7855,-1.7666,-1.7502,-1.7253,-1.7002,-1.6833,-1.6693,-1.6522,-1.6349,-1.6188,-1.6057,-1.5969,-1.5925,-1.5913,-1.5925,-1.6013,-1.61,-1.6013,-1.5925,-1.5748,-1.5748,-1.5748,-1.5881,-1.5981,-1.5836,-1.5647,-1.5525,-1.5459,-1.5463,-3.2089,-3.2398,-3.2711,-3.2819,-3.2795,-3.3187,-3.3419,-3.347,-3.3128,-3.2534,-3.1874,-3.1453,-3.1431,-3.1579,-3.1821,-3.2109,-3.2404,-3.2621,-3.283,-3.3086,-3.3327,-3.3587,-3.3788,-3.3998,-3.4221,-3.4473,-3.4687,-3.4869,-3.5075,-3.5223,-3.5009,-3.4313,-3.3557,-3.2915,-3.297,-3.1601,-3.0849,-3.0801,-3.0793,-3.0798,-3.0764,-3.0717,-3.0517,-3.0143,-2.9332,-2.8341,-2.765,-2.6287,-2.5452,-2.5023,-2.4566,-2.4338,-2.4154,-2.3998,-2.3834,-2.3703,-2.3522,-2.3313,-2.3119,-2.2944,-2.2694,-2.2508,-2.2298,-2.213,-2.1986,-2.1797,-2.1573,-2.1433,-2.1214,-2.1023,-2.0827,-2.0628,-2.0475,-2.0357,-2.0323,-2.015,-1.969,-1.9213,-1.904,-1.8941,-1.8711,-1.8439,-1.8149,-1.7855,-1.7693,-1.7529,-1.7365,-1.724,-1.7115,-1.696,-1.6705,-1.6522,-1.6349,-1.6219,-1.6044,-1.5925,-1.5792,-1.5703,-1.5659,-1.5603,-1.5647,-1.5736,-1.578,-1.5792,-1.5614,-1.539,-1.5435,-1.5525,-1.5525,-1.5525,-1.5558,-1.5424,-1.53,-1.5268,-1.5325,-3.1089,-3.1374,-3.1663,-3.1918,-3.2167,-3.2663,-3.299,-3.3064,-3.2515,-3.2121,-3.2001,-3.1652,-3.1579,-3.1821,-3.2144,-3.2438,-3.2639,-3.2898,-3.3117,-3.3357,-3.3615,-3.3788,-3.4005,-3.4245,-3.4454,-3.4645,-3.483,-3.502,-3.516,-3.5249,-3.4963,-3.4309,-3.3014,-3.2194,-3.1656,-3.093,-3.08,-3.0797,-3.0791,-3.0784,-3.0736,-3.0676,-3.0565,-3.0393,-2.9443,-2.8739,-2.8208,-2.6624,-2.5646,-2.5274,-2.4838,-2.4319,-2.4124,-2.3955,-2.3746,-2.3547,-2.3318,-2.297,-2.2694,-2.2409,-2.2281,-2.222,-2.214,-2.1982,-2.1771,-2.1481,-2.1325,-2.1231,-2.1083,-2.0901,-2.0579,-2.0354,-2.0146,-2.0045,-1.996,-1.9762,-1.9362,-1.8912,-1.862,-1.8595,-1.8439,-1.8097,-1.776,-1.7488,-1.7282,-1.7128,-1.696,-1.6863,-1.6735,-1.665,-1.6448,-1.6219,-1.6044,-1.5869,-1.5748,-1.557,-1.5435,-1.5345,-1.53,-1.53,-1.5334,-1.5424,-1.5513,-1.557,-1.5255,-1.504,-1.5165,-1.52,-1.5051,-1.5017,-1.52,-1.5188,-1.5051,-1.5103,-1.5218,-3.0618,-3.0958,-3.1207,-3.1501,-3.1854,-3.224,-3.2482,-3.2452,-3.2071,-3.1991,-3.1992,-3.1768,-3.1858,-3.2161,-3.2489,-3.2758,-3.2902,-3.3147,-3.3397,-3.3625,-3.3842,-3.403,-3.4269,-3.4454,-3.4647,-3.483,-3.4983,-3.5141,-3.5228,-3.511,-3.4414,-3.3341,-3.2333,-3.1539,-3.0992,-3.0836,-3.0799,-3.0777,-3.0774,-3.0728,-3.0651,-3.0582,-3.0501,-3.0221,-2.9685,-2.9052,-2.8335,-2.7296,-2.6115,-2.5875,-2.5311,-2.4741,-2.4567,-2.4405,-2.4254,-2.4053,-2.3746,-2.344,-2.3151,-2.2869,-2.2862,-2.272,-2.2327,-2.2026,-2.189,-2.189,-2.1804,-2.1616,-2.1217,-2.1058,-2.0901,-2.0597,-2.0412,-2.0339,-1.9878,-1.9686,-1.972,-1.9293,-1.8876,-1.878,-1.848,-1.8044,-1.7497,-1.7141,-1.6863,-1.6705,-1.659,-1.6529,-1.6467,-1.6337,-1.623,-1.6021,-1.5787,-1.5608,-1.5437,-1.5232,-1.5108,-1.4926,-1.4994,-1.5038,-1.4937,-1.4971,-1.5165,-1.5267,-1.4971,-1.4808,-1.4907,-1.4951,-1.4982,-1.5067,-1.5185,-1.5086,-1.489,-1.5037,-1.5263,-3.0643,-3.1144,-3.1405,-3.1646,-3.1898,-3.1927,-3.1843,-3.1757,-3.2075,-3.1992,-3.1651,-3.1873,-3.2161,-3.2472,-3.2787,-3.3015,-3.3219,-3.3481,-3.368,-3.3902,-3.4105,-3.4316,-3.4517,-3.4708,-3.4869,-3.5001,-3.5102,-3.5166,-3.5251,-3.4364,-3.3295,-3.2338,-3.15,-3.1005,-3.0839,-3.0796,-3.0796,-3.0774,-3.0739,-3.0685,-3.0599,-3.054,-3.0425,-3.0222,-2.9978,-2.9464,-2.898,-2.8445,-2.7707,-2.7056,-2.6235,-2.6031,-2.587,-2.575,-2.5535,-2.5174,-2.467,-2.4239,-2.3924,-2.3603,-2.3391,-2.3095,-2.2833,-2.2473,-2.2289,-2.2318,-2.22,-2.2113,-2.1824,-2.1805,-2.1719,-2.1443,-2.1198,-2.0724,-2.0135,-2.0098,-2.028,-1.9992,-1.9514,-1.922,-1.8901,-1.8385,-1.7622,-1.7165,-1.6992,-1.6846,-1.6749,-1.6504,-1.6402,-1.611,-1.6011,-1.5865,-1.5613,-1.5372,-1.5222,-1.5184,-1.511,-1.5123,-1.4942,-1.4942,-1.4802,-1.4636,-1.4754,-1.4776,-1.4658,-1.4682,-1.4996,-1.5143,-1.5131,-1.5211,-1.5228,-1.5254,-1.5088,-1.5279,-1.5519,-2.9675,-2.9986,-3.0215,-3.0575,-3.0942,-3.1299,-3.1398,-3.1375,-3.1691,-3.1771,-3.1821,-3.2161,-3.2472,-3.2787,-3.3086,-3.3286,-3.3502,-3.3753,-3.3947,-3.4154,-3.4367,-3.4564,-3.4713,-3.4832,-3.5035,-3.5078,-3.5124,-3.4924,-3.4372,-3.347,-3.274,-3.2023,-3.1181,-3.0879,-3.0788,-3.0794,-3.0779,-3.0761,-3.0711,-3.0634,-3.053,-3.0449,-3.0323,-3.0194,-3.0138,-2.9674,-2.9364,-2.8978,-2.8256,-2.7502,-2.653,-2.602,-2.5768,-2.5526,-2.5272,-2.4824,-2.4444,-2.4129,-2.3935,-2.3685,-2.3509,-2.3455,-2.3283,-2.3027,-2.2755,-2.2608,-2.257,-2.2432,-2.2252,-2.2129,-2.1902,-2.168,-2.1486,-2.1058,-2.0604,-2.0613,-2.0695,-2.0329,-1.9863,-1.9431,-1.911,-1.8498,-1.7766,-1.7592,-1.7418,-1.7201,-1.6918,-1.6633,-1.6408,-1.6184,-1.5986,-1.5856,-1.5724,-1.5508,-1.5503,-1.5471,-1.5343,-1.5264,-1.5092,-1.4946,-1.4896,-1.4752,-1.4486,-1.4573,-1.4892,-1.5078,-1.5271,-1.5286,-1.5236,-1.5237,-1.529,-1.5321,-1.5373,-1.5521,-1.5635,-2.935,-2.9649,-2.9902,-3.029,-3.0814,-3.1196,-3.1406,-3.1504,-3.1654,-3.1858,-3.2161,-3.2523,-3.2802,-3.3086,-3.3368,-3.3597,-3.377,-3.403,-3.425,-3.4383,-3.4494,-3.4451,-3.4566,-3.4537,-3.44,-3.4482,-3.4398,-3.4141,-3.3606,-3.2791,-3.2023,-3.1493,-3.0937,-3.0864,-3.079,-3.0759,-3.0704,-3.0676,-3.0637,-3.0567,-3.0481,-3.0359,-3.0207,-3.0045,-3.0,-2.9734,-2.9414,-2.8957,-2.8446,-2.7967,-2.7069,-2.673,-2.646,-2.6138,-2.5811,-2.5441,-2.5163,-2.4926,-2.4699,-2.4366,-2.4047,-2.3781,-2.3748,-2.3553,-2.3381,-2.3216,-2.3016,-2.2813,-2.2532,-2.2239,-2.2014,-2.1743,-2.1585,-2.1411,-2.1245,-2.1133,-2.0868,-2.0556,-2.0114,-1.9641,-1.914,-1.8541,-1.815,-1.8001,-1.7773,-1.7376,-1.7075,-1.681,-1.6631,-1.6452,-1.6227,-1.6076,-1.5914,-1.5774,-1.5766,-1.5646,-1.5456,-1.5268,-1.509,-1.4996,-1.5039,-1.507,-1.497,-1.5151,-1.5415,-1.5509,-1.5489,-1.5361,-1.5295,-1.5311,-1.5454,-1.554,-1.5636,-1.5714,-1.5782,-2.9367,-2.9626,-3.0038,-3.041,-3.1021,-3.121,-3.1436,-3.1757,-3.1689,-3.2092,-3.247,-3.2713,-3.2888,-3.306,-3.3214,-3.3379,-3.3482,-3.3697,-3.3824,-3.4394,-3.4245,-3.4089,-3.3862,-3.3834,-3.3736,-3.3261,-3.313,-3.346,-3.2992,-3.224,-3.1411,-3.082,-3.081,-3.0798,-3.0759,-3.0723,-3.0645,-3.0549,-3.0482,-3.0419,-3.0367,-3.024,-3.0079,-2.9872,-2.9698,-2.9455,-2.9166,-2.8845,-2.8528,-2.8335,-2.8093,-2.7734,-2.727,-2.6862,-2.6488,-2.6199,-2.5752,-2.5448,-2.5174,-2.4894,-2.4705,-2.4507,-2.4313,-2.391,-2.3561,-2.3459,-2.3245,-2.3018,-2.273,-2.2469,-2.2235,-2.2026,-2.186,-2.1633,-2.1472,-2.1293,-2.1023,-2.0673,-2.0237,-1.9804,-1.9333,-1.8792,-1.8474,-1.8289,-1.8087,-1.7611,-1.7302,-1.7062,-1.6853,-1.6768,-1.649,-1.6284,-1.62,-1.6073,-1.585,-1.5732,-1.5478,-1.5278,-1.5204,-1.517,-1.528,-1.5355,-1.5452,-1.5584,-1.5714,-1.569,-1.569,-1.5528,-1.5492,-1.5608,-1.5693,-1.5756,-1.5816,-1.5766,-1.5783,-2.8232,-2.8558,-2.9026,-2.9437,-2.9785,-2.997,-3.0299,-3.0545,-3.0773,-3.159,-3.2567,-3.2475,-3.2462,-3.2729,-3.2477,-3.2487,-3.2598,-3.2981,-3.2843,-3.307,-3.3287,-3.3414,-3.3158,-3.3154,-3.3087,-3.319,-3.3098,-3.2753,-3.2268,-3.1587,-3.1073,-3.0834,-3.0785,-3.0774,-3.0724,-3.0668,-3.0558,-3.043,-3.0328,-3.0267,-3.0194,-3.0064,-2.9872,-2.9681,-2.9474,-2.9272,-2.8966,-2.8626,-2.8414,-2.8228,-2.7933,-2.7517,-2.7004,-2.6674,-2.6367,-2.6101,-2.5844,-2.5546,-2.5262,-2.4974,-2.4695,-2.4354,-2.3994,-2.3739,-2.3523,-2.3494,-2.3363,-2.3142,-2.2904,-2.2678,-2.2449,-2.2263,-2.2044,-2.1855,-2.1616,-2.134,-2.1122,-2.0709,-2.0294,-1.9939,-1.9522,-1.9157,-1.8814,-1.853,-1.8341,-1.8102,-1.7848,-1.7622,-1.7274,-1.7046,-1.6699,-1.6469,-1.6499,-1.6377,-1.6106,-1.5846,-1.5622,-1.5583,-1.5578,-1.5537,-1.5475,-1.5537,-1.5665,-1.5766,-1.5871,-1.581,-1.577,-1.583,-1.5776,-1.574,-1.5682,-1.5624,-1.5527,-1.5498,-1.5546,-2.801,-2.8246,-2.8797,-2.9194,-2.9455,-2.969,-3.0018,-3.03,-3.0523,-3.12,-3.2065,-3.1928,-3.1926,-3.2207,-3.1899,-3.1818,-3.1969,-3.226,-3.2521,-3.2564,-3.2473,-3.2576,-3.2567,-3.2473,-3.2125,-3.2213,-3.2135,-3.1789,-3.1514,-3.1191,-3.0835,-3.0788,-3.076,-3.0722,-3.0658,-3.0585,-3.0481,-3.0359,-3.0194,-3.0079,-3.0003,-2.982,-2.9662,-2.9474,-2.9272,-2.9052,-2.8779,-2.8448,-2.821,-2.7933,-2.7612,-2.7213,-2.6775,-2.6469,-2.6189,-2.5901,-2.5605,-2.5317,-2.5029,-2.4726,-2.4472,-2.4143,-2.3726,-2.351,-2.3504,-2.3412,-2.312,-2.2861,-2.2583,-2.237,-2.2077,-2.1888,-2.1712,-2.1471,-2.1166,-2.0871,-2.0636,-2.0308,-2.008,-1.9876,-1.9482,-1.912,-1.8782,-1.8466,-1.8258,-1.8097,-1.7941,-1.7634,-1.7423,-1.7272,-1.6889,-1.6639,-1.6644,-1.6425,-1.6048,-1.5904,-1.5857,-1.5853,-1.5788,-1.5651,-1.5484,-1.5678,-1.5826,-1.5778,-1.573,-1.571,-1.571,-1.574,-1.5624,-1.5449,-1.5449,-1.5449,-1.5312,-1.5291,-1.5446,-2.7916,-2.8189,-2.871,-2.9092,-2.9394,-2.9691,-2.9946,-3.0183,-3.044,-3.0685,-3.0965,-3.0998,-3.1243,-3.1543,-3.1576,-3.1744,-3.1808,-3.1669,-3.1971,-3.2163,-3.2301,-3.1981,-3.1777,-3.1695,-3.1428,-3.1187,-3.1094,-3.1065,-3.0937,-3.0792,-3.0785,-3.0769,-3.073,-3.0665,-3.0582,-3.0482,-3.0383,-3.0247,-3.0079,-2.9872,-2.9716,-2.957,-2.9436,-2.9272,-2.9052,-2.8839,-2.8569,-2.8291,-2.8035,-2.7672,-2.7276,-2.6875,-2.6555,-2.6258,-2.599,-2.5696,-2.5394,-2.5147,-2.4923,-2.4673,-2.4399,-2.407,-2.3659,-2.3506,-2.3579,-2.3354,-2.3079,-2.2822,-2.253,-2.2289,-2.2,-2.1792,-2.161,-2.1362,-2.1036,-2.0732,-2.0476,-2.0166,-2.0049,-1.9945,-1.9642,-1.9281,-1.8904,-1.8565,-1.8322,-1.8146,-1.7835,-1.7501,-1.7229,-1.7138,-1.6943,-1.6734,-1.6626,-1.6355,-1.6004,-1.5916,-1.5936,-1.572,-1.5604,-1.5536,-1.5478,-1.5594,-1.5594,-1.5526,-1.5478,-1.5488,-1.5498,-1.5439,-1.5323,-1.5234,-1.5215,-1.5254,-1.5346,-1.54,-1.5468,-2.6816,-2.7267,-2.7631,-2.7923,-2.8193,-2.8472,-2.8675,-2.8891,-2.9203,-2.9392,-2.9701,-2.982,-3.0132,-3.0868,-3.0302,-3.0356,-3.0795,-3.086,-3.08,-3.0816,-3.1259,-3.1081,-3.103,-3.121,-3.0959,-3.0833,-3.0798,-3.08,-3.0786,-3.0798,-3.0765,-3.0722,-3.0711,-3.0642,-3.051,-3.0389,-3.0267,-3.0104,-2.994,-2.9736,-2.9551,-2.9395,-2.9249,-2.9052,-2.8797,-2.8594,-2.8335,-2.8045,-2.7789,-2.7461,-2.7053,-2.6657,-2.6329,-2.6059,-2.5835,-2.5609,-2.5321,-2.5246,-2.5071,-2.4915,-2.4686,-2.4667,-2.437,-2.4091,-2.4014,-2.3769,-2.3506,-2.3231,-2.2992,-2.2845,-2.2612,-2.2454,-2.2233,-2.1904,-2.1572,-2.1358,-2.11,-2.0802,-2.0625,-2.0416,-2.0149,-1.9755,-1.9356,-1.9057,-1.8814,-1.8569,-1.8196,-1.7862,-1.7295,-1.7134,-1.7022,-1.693,-1.6797,-1.6267,-1.5909,-1.5939,-1.587,-1.5635,-1.5478,-1.5478,-1.542,-1.542,-1.541,-1.5352,-1.5245,-1.5205,-1.5205,-1.5264,-1.5145,-1.5115,-1.5058,-1.5115,-1.527,-1.5448,-1.5512]}]]